<?xml version="1.0" encoding="utf-8"?>
<gpx xmlns:xsi="http://www.w3.org/2001/XMLSchema-instance" xmlns:xsd="http://www.w3.org/2001/XMLSchema" version="1.1" creator="Shapelink.com" xmlns="http://www.topografix.com/GPX/1/1" xmlns:gpxtpx="http://www.garmin.com/xmlschemas/TrackPointExtension/v1">
  <metadata>
    <name>Løping 5.13 km, 2013-04-12</name>
    <desc></desc>
    <author><name>Mikael Blom</name></author> 
    <time>2013-04-12T18:57:43Z</time>
  </metadata>
  <trk>
    <name>Løping 5.13 km, 2013-04-12</name>
    <trkseg>
      <trkpt lat="59.9923142" lon="17.7375165">
        <ele>65.0264</ele>
        <time>2013-04-12T18:57:43Z</time>
      </trkpt>
      <trkpt lat="59.992306" lon="17.7375295">
        <ele>65.0264</ele>
        <time>2013-04-12T18:57:44Z</time>
      </trkpt>
      <trkpt lat="59.9922925" lon="17.7375361">
        <ele>65.5071</ele>
        <time>2013-04-12T18:57:45Z</time>
      </trkpt>
      <trkpt lat="59.9922697" lon="17.7375369">
        <ele>65.0264</ele>
        <time>2013-04-12T18:57:46Z</time>
      </trkpt>
      <trkpt lat="59.992239" lon="17.7375377">
        <ele>64.5457</ele>
        <time>2013-04-12T18:57:47Z</time>
      </trkpt>
      <trkpt lat="59.9922176" lon="17.7375392">
        <ele>64.0651</ele>
        <time>2013-04-12T18:57:48Z</time>
      </trkpt>
      <trkpt lat="59.9921918" lon="17.7375435">
        <ele>63.5844</ele>
        <time>2013-04-12T18:57:49Z</time>
      </trkpt>
      <trkpt lat="59.9921686" lon="17.7375435">
        <ele>64.0651</ele>
        <time>2013-04-12T18:57:50Z</time>
      </trkpt>
      <trkpt lat="59.9921488" lon="17.7375404">
        <ele>64.0651</ele>
        <time>2013-04-12T18:57:51Z</time>
      </trkpt>
      <trkpt lat="59.9921254" lon="17.737534">
        <ele>63.1036</ele>
        <time>2013-04-12T18:57:52Z</time>
      </trkpt>
      <trkpt lat="59.9921018" lon="17.737524">
        <ele>63.1036</ele>
        <time>2013-04-12T18:57:53Z</time>
      </trkpt>
      <trkpt lat="59.9920796" lon="17.7375257">
        <ele>63.5844</ele>
        <time>2013-04-12T18:57:54Z</time>
      </trkpt>
      <trkpt lat="59.9920604" lon="17.737531">
        <ele>63.5844</ele>
        <time>2013-04-12T18:57:55Z</time>
      </trkpt>
      <trkpt lat="59.9920301" lon="17.7375589">
        <ele>63.5844</ele>
        <time>2013-04-12T18:57:56Z</time>
      </trkpt>
      <trkpt lat="59.9919967" lon="17.737581">
        <ele>62.6229</ele>
        <time>2013-04-12T18:57:57Z</time>
      </trkpt>
      <trkpt lat="59.991965" lon="17.7375945">
        <ele>63.1036</ele>
        <time>2013-04-12T18:57:58Z</time>
      </trkpt>
      <trkpt lat="59.9919319" lon="17.7376128">
        <ele>62.6229</ele>
        <time>2013-04-12T18:57:59Z</time>
      </trkpt>
      <trkpt lat="59.9919025" lon="17.7376276">
        <ele>61.6617</ele>
        <time>2013-04-12T18:58:00Z</time>
      </trkpt>
      <trkpt lat="59.9918661" lon="17.7376438">
        <ele>61.181</ele>
        <time>2013-04-12T18:58:01Z</time>
      </trkpt>
      <trkpt lat="59.9918335" lon="17.7376568">
        <ele>60.7003</ele>
        <time>2013-04-12T18:58:02Z</time>
      </trkpt>
      <trkpt lat="59.9918017" lon="17.7376716">
        <ele>59.7391</ele>
        <time>2013-04-12T18:58:03Z</time>
      </trkpt>
      <trkpt lat="59.9917729" lon="17.7376862">
        <ele>59.7391</ele>
        <time>2013-04-12T18:58:04Z</time>
      </trkpt>
      <trkpt lat="59.9917428" lon="17.7377085">
        <ele>59.7391</ele>
        <time>2013-04-12T18:58:05Z</time>
      </trkpt>
      <trkpt lat="59.9917148" lon="17.737723">
        <ele>59.2584</ele>
        <time>2013-04-12T18:58:06Z</time>
      </trkpt>
      <trkpt lat="59.9916853" lon="17.7377432">
        <ele>58.7777</ele>
        <time>2013-04-12T18:58:07Z</time>
      </trkpt>
      <trkpt lat="59.9916561" lon="17.7377594">
        <ele>58.7777</ele>
        <time>2013-04-12T18:58:08Z</time>
      </trkpt>
      <trkpt lat="59.9916302" lon="17.7377732">
        <ele>58.7777</ele>
        <time>2013-04-12T18:58:09Z</time>
      </trkpt>
      <trkpt lat="59.9916114" lon="17.7377783">
        <ele>58.7777</ele>
        <time>2013-04-12T18:58:10Z</time>
      </trkpt>
      <trkpt lat="59.9915886" lon="17.7377819">
        <ele>58.2971</ele>
        <time>2013-04-12T18:58:11Z</time>
      </trkpt>
      <trkpt lat="59.9915592" lon="17.7377867">
        <ele>57.3358</ele>
        <time>2013-04-12T18:58:12Z</time>
      </trkpt>
      <trkpt lat="59.9915342" lon="17.7377873">
        <ele>56.8551</ele>
        <time>2013-04-12T18:58:13Z</time>
      </trkpt>
      <trkpt lat="59.9915108" lon="17.7377871">
        <ele>55.8938</ele>
        <time>2013-04-12T18:58:14Z</time>
      </trkpt>
      <trkpt lat="59.991489" lon="17.7377791">
        <ele>56.3745</ele>
        <time>2013-04-12T18:58:15Z</time>
      </trkpt>
      <trkpt lat="59.9914584" lon="17.7377822">
        <ele>55.4131</ele>
        <time>2013-04-12T18:58:16Z</time>
      </trkpt>
      <trkpt lat="59.9914324" lon="17.7377887">
        <ele>54.9324</ele>
        <time>2013-04-12T18:58:17Z</time>
      </trkpt>
      <trkpt lat="59.9914096" lon="17.7377863">
        <ele>55.4131</ele>
        <time>2013-04-12T18:58:18Z</time>
      </trkpt>
      <trkpt lat="59.9913798" lon="17.7377972">
        <ele>55.4131</ele>
        <time>2013-04-12T18:58:19Z</time>
      </trkpt>
      <trkpt lat="59.9913481" lon="17.7378138">
        <ele>54.9324</ele>
        <time>2013-04-12T18:58:20Z</time>
      </trkpt>
      <trkpt lat="59.991317" lon="17.7378379">
        <ele>54.4518</ele>
        <time>2013-04-12T18:58:21Z</time>
      </trkpt>
      <trkpt lat="59.9912892" lon="17.7378371">
        <ele>54.4518</ele>
        <time>2013-04-12T18:58:22Z</time>
      </trkpt>
      <trkpt lat="59.9912621" lon="17.7378436">
        <ele>54.4518</ele>
        <time>2013-04-12T18:58:23Z</time>
      </trkpt>
      <trkpt lat="59.9912339" lon="17.7378619">
        <ele>54.4518</ele>
        <time>2013-04-12T18:58:24Z</time>
      </trkpt>
      <trkpt lat="59.9912046" lon="17.737878">
        <ele>54.4518</ele>
        <time>2013-04-12T18:58:25Z</time>
      </trkpt>
      <trkpt lat="59.9911803" lon="17.7378874">
        <ele>53.9712</ele>
        <time>2013-04-12T18:58:26Z</time>
      </trkpt>
      <trkpt lat="59.9911493" lon="17.737895">
        <ele>53.4905</ele>
        <time>2013-04-12T18:58:27Z</time>
      </trkpt>
      <trkpt lat="59.9911229" lon="17.7378966">
        <ele>53.4905</ele>
        <time>2013-04-12T18:58:28Z</time>
      </trkpt>
      <trkpt lat="59.9911021" lon="17.7378954">
        <ele>53.9712</ele>
        <time>2013-04-12T18:58:29Z</time>
      </trkpt>
      <trkpt lat="59.9910777" lon="17.7379013">
        <ele>53.4905</ele>
        <time>2013-04-12T18:58:30Z</time>
      </trkpt>
      <trkpt lat="59.9910636" lon="17.7379003">
        <ele>54.4518</ele>
        <time>2013-04-12T18:58:31Z</time>
      </trkpt>
      <trkpt lat="59.9910512" lon="17.7379006">
        <ele>54.4518</ele>
        <time>2013-04-12T18:58:32Z</time>
      </trkpt>
      <trkpt lat="59.9910314" lon="17.7379043">
        <ele>54.4518</ele>
        <time>2013-04-12T18:58:33Z</time>
      </trkpt>
      <trkpt lat="59.9910135" lon="17.737919">
        <ele>54.4518</ele>
        <time>2013-04-12T18:58:34Z</time>
      </trkpt>
      <trkpt lat="59.9909939" lon="17.7379327">
        <ele>53.9712</ele>
        <time>2013-04-12T18:58:35Z</time>
      </trkpt>
      <trkpt lat="59.9909751" lon="17.7379394">
        <ele>53.9712</ele>
        <time>2013-04-12T18:58:36Z</time>
      </trkpt>
      <trkpt lat="59.9909579" lon="17.7379482">
        <ele>53.9712</ele>
        <time>2013-04-12T18:58:37Z</time>
      </trkpt>
      <trkpt lat="59.990939" lon="17.7379615">
        <ele>54.4518</ele>
        <time>2013-04-12T18:58:38Z</time>
      </trkpt>
      <trkpt lat="59.9909182" lon="17.7379852">
        <ele>54.4518</ele>
        <time>2013-04-12T18:58:39Z</time>
      </trkpt>
      <trkpt lat="59.9909006" lon="17.7379895">
        <ele>54.9324</ele>
        <time>2013-04-12T18:58:40Z</time>
      </trkpt>
      <trkpt lat="59.9908775" lon="17.7380002">
        <ele>54.9324</ele>
        <time>2013-04-12T18:58:41Z</time>
      </trkpt>
      <trkpt lat="59.9908615" lon="17.7380143">
        <ele>55.4131</ele>
        <time>2013-04-12T18:58:42Z</time>
      </trkpt>
      <trkpt lat="59.9908425" lon="17.7380321">
        <ele>55.8938</ele>
        <time>2013-04-12T18:58:43Z</time>
      </trkpt>
      <trkpt lat="59.9908234" lon="17.7380207">
        <ele>56.8551</ele>
        <time>2013-04-12T18:58:44Z</time>
      </trkpt>
      <trkpt lat="59.9907959" lon="17.7380406">
        <ele>56.8551</ele>
        <time>2013-04-12T18:58:45Z</time>
      </trkpt>
      <trkpt lat="59.9907757" lon="17.7380448">
        <ele>56.3745</ele>
        <time>2013-04-12T18:58:46Z</time>
      </trkpt>
      <trkpt lat="59.9907581" lon="17.7380498">
        <ele>56.3745</ele>
        <time>2013-04-12T18:58:47Z</time>
      </trkpt>
      <trkpt lat="59.99073" lon="17.7380692">
        <ele>55.8938</ele>
        <time>2013-04-12T18:58:48Z</time>
      </trkpt>
      <trkpt lat="59.9907058" lon="17.7380821">
        <ele>55.8938</ele>
        <time>2013-04-12T18:58:49Z</time>
      </trkpt>
      <trkpt lat="59.9906859" lon="17.738086">
        <ele>56.3745</ele>
        <time>2013-04-12T18:58:50Z</time>
      </trkpt>
      <trkpt lat="59.9906715" lon="17.7380878">
        <ele>56.8551</ele>
        <time>2013-04-12T18:58:51Z</time>
      </trkpt>
      <trkpt lat="59.990656" lon="17.7380837">
        <ele>57.8165</ele>
        <time>2013-04-12T18:58:52Z</time>
      </trkpt>
      <trkpt lat="59.9906384" lon="17.7380879">
        <ele>57.8165</ele>
        <time>2013-04-12T18:58:53Z</time>
      </trkpt>
      <trkpt lat="59.9906207" lon="17.7381016">
        <ele>58.2971</ele>
        <time>2013-04-12T18:58:54Z</time>
      </trkpt>
      <trkpt lat="59.9906042" lon="17.7381164">
        <ele>57.3358</ele>
        <time>2013-04-12T18:58:55Z</time>
      </trkpt>
      <trkpt lat="59.9905799" lon="17.7381358">
        <ele>56.8551</ele>
        <time>2013-04-12T18:58:56Z</time>
      </trkpt>
      <trkpt lat="59.9905659" lon="17.7381287">
        <ele>56.3745</ele>
        <time>2013-04-12T18:58:57Z</time>
      </trkpt>
      <trkpt lat="59.9905496" lon="17.7381236">
        <ele>56.3745</ele>
        <time>2013-04-12T18:58:58Z</time>
      </trkpt>
      <trkpt lat="59.9905307" lon="17.7381303">
        <ele>56.3745</ele>
        <time>2013-04-12T18:58:59Z</time>
      </trkpt>
      <trkpt lat="59.9905149" lon="17.7381312">
        <ele>56.8551</ele>
        <time>2013-04-12T18:59:00Z</time>
      </trkpt>
      <trkpt lat="59.9905006" lon="17.7381365">
        <ele>56.8551</ele>
        <time>2013-04-12T18:59:01Z</time>
      </trkpt>
      <trkpt lat="59.9904892" lon="17.7381404">
        <ele>57.3358</ele>
        <time>2013-04-12T18:59:02Z</time>
      </trkpt>
      <trkpt lat="59.9904696" lon="17.7381464">
        <ele>56.8551</ele>
        <time>2013-04-12T18:59:03Z</time>
      </trkpt>
      <trkpt lat="59.9904343" lon="17.7381701">
        <ele>55.8938</ele>
        <time>2013-04-12T18:59:04Z</time>
      </trkpt>
      <trkpt lat="59.9904012" lon="17.7382029">
        <ele>55.4131</ele>
        <time>2013-04-12T18:59:05Z</time>
      </trkpt>
      <trkpt lat="59.990378" lon="17.7382157">
        <ele>54.9324</ele>
        <time>2013-04-12T18:59:06Z</time>
      </trkpt>
      <trkpt lat="59.9903421" lon="17.7382394">
        <ele>54.4518</ele>
        <time>2013-04-12T18:59:07Z</time>
      </trkpt>
      <trkpt lat="59.9903178" lon="17.7382436">
        <ele>54.9324</ele>
        <time>2013-04-12T18:59:08Z</time>
      </trkpt>
      <trkpt lat="59.9902909" lon="17.7382567">
        <ele>54.9324</ele>
        <time>2013-04-12T18:59:09Z</time>
      </trkpt>
      <trkpt lat="59.9902675" lon="17.7382764">
        <ele>54.9324</ele>
        <time>2013-04-12T18:59:10Z</time>
      </trkpt>
      <trkpt lat="59.9902396" lon="17.7383006">
        <ele>55.4131</ele>
        <time>2013-04-12T18:59:11Z</time>
      </trkpt>
      <trkpt lat="59.990215" lon="17.738312">
        <ele>55.8938</ele>
        <time>2013-04-12T18:59:12Z</time>
      </trkpt>
      <trkpt lat="59.9901907" lon="17.738321">
        <ele>55.4131</ele>
        <time>2013-04-12T18:59:13Z</time>
      </trkpt>
      <trkpt lat="59.9901644" lon="17.738324">
        <ele>55.4131</ele>
        <time>2013-04-12T18:59:14Z</time>
      </trkpt>
      <trkpt lat="59.9901399" lon="17.7383267">
        <ele>54.9324</ele>
        <time>2013-04-12T18:59:15Z</time>
      </trkpt>
      <trkpt lat="59.9901209" lon="17.7383341">
        <ele>55.4131</ele>
        <time>2013-04-12T18:59:16Z</time>
      </trkpt>
      <trkpt lat="59.9900909" lon="17.7383577">
        <ele>55.4131</ele>
        <time>2013-04-12T18:59:17Z</time>
      </trkpt>
      <trkpt lat="59.9900677" lon="17.7383794">
        <ele>55.8938</ele>
        <time>2013-04-12T18:59:18Z</time>
      </trkpt>
      <trkpt lat="59.9900498" lon="17.7383863">
        <ele>55.8938</ele>
        <time>2013-04-12T18:59:19Z</time>
      </trkpt>
      <trkpt lat="59.990023" lon="17.7384031">
        <ele>55.8938</ele>
        <time>2013-04-12T18:59:20Z</time>
      </trkpt>
      <trkpt lat="59.9899894" lon="17.7384266">
        <ele>55.4131</ele>
        <time>2013-04-12T18:59:21Z</time>
      </trkpt>
      <trkpt lat="59.9899582" lon="17.7384405">
        <ele>55.8938</ele>
        <time>2013-04-12T18:59:22Z</time>
      </trkpt>
      <trkpt lat="59.9899375" lon="17.738451">
        <ele>55.8938</ele>
        <time>2013-04-12T18:59:23Z</time>
      </trkpt>
      <trkpt lat="59.9899037" lon="17.7384732">
        <ele>55.4131</ele>
        <time>2013-04-12T18:59:24Z</time>
      </trkpt>
      <trkpt lat="59.9898729" lon="17.7384914">
        <ele>55.8938</ele>
        <time>2013-04-12T18:59:25Z</time>
      </trkpt>
      <trkpt lat="59.9898454" lon="17.7385001">
        <ele>55.8938</ele>
        <time>2013-04-12T18:59:26Z</time>
      </trkpt>
      <trkpt lat="59.989823" lon="17.7385022">
        <ele>56.3745</ele>
        <time>2013-04-12T18:59:27Z</time>
      </trkpt>
      <trkpt lat="59.9897894" lon="17.7385193">
        <ele>56.3745</ele>
        <time>2013-04-12T18:59:28Z</time>
      </trkpt>
      <trkpt lat="59.9897574" lon="17.738541">
        <ele>55.8938</ele>
        <time>2013-04-12T18:59:29Z</time>
      </trkpt>
      <trkpt lat="59.9897256" lon="17.7385514">
        <ele>55.8938</ele>
        <time>2013-04-12T18:59:30Z</time>
      </trkpt>
      <trkpt lat="59.9896967" lon="17.7385653">
        <ele>55.8938</ele>
        <time>2013-04-12T18:59:31Z</time>
      </trkpt>
      <trkpt lat="59.9896721" lon="17.7385988">
        <ele>55.8938</ele>
        <time>2013-04-12T18:59:32Z</time>
      </trkpt>
      <trkpt lat="59.9896532" lon="17.7386183">
        <ele>55.8938</ele>
        <time>2013-04-12T18:59:33Z</time>
      </trkpt>
      <trkpt lat="59.9896354" lon="17.7386333">
        <ele>55.4131</ele>
        <time>2013-04-12T18:59:34Z</time>
      </trkpt>
      <trkpt lat="59.989625" lon="17.7386418">
        <ele>54.9324</ele>
        <time>2013-04-12T18:59:35Z</time>
      </trkpt>
      <trkpt lat="59.9896131" lon="17.7386393">
        <ele>54.4518</ele>
        <time>2013-04-12T18:59:36Z</time>
      </trkpt>
      <trkpt lat="59.9895895" lon="17.7386344">
        <ele>54.9324</ele>
        <time>2013-04-12T18:59:37Z</time>
      </trkpt>
      <trkpt lat="59.9895636" lon="17.7386273">
        <ele>55.4131</ele>
        <time>2013-04-12T18:59:38Z</time>
      </trkpt>
      <trkpt lat="59.9895444" lon="17.7386089">
        <ele>54.9324</ele>
        <time>2013-04-12T18:59:39Z</time>
      </trkpt>
      <trkpt lat="59.989519" lon="17.7386037">
        <ele>54.9324</ele>
        <time>2013-04-12T18:59:40Z</time>
      </trkpt>
      <trkpt lat="59.9895036" lon="17.7386146">
        <ele>54.4518</ele>
        <time>2013-04-12T18:59:41Z</time>
      </trkpt>
      <trkpt lat="59.989487" lon="17.7386224">
        <ele>54.9324</ele>
        <time>2013-04-12T18:59:42Z</time>
      </trkpt>
      <trkpt lat="59.9894688" lon="17.7386105">
        <ele>55.4131</ele>
        <time>2013-04-12T18:59:43Z</time>
      </trkpt>
      <trkpt lat="59.9894416" lon="17.7386227">
        <ele>54.9324</ele>
        <time>2013-04-12T18:59:44Z</time>
      </trkpt>
      <trkpt lat="59.9894118" lon="17.738633">
        <ele>55.4131</ele>
        <time>2013-04-12T18:59:45Z</time>
      </trkpt>
      <trkpt lat="59.9893828" lon="17.7386497">
        <ele>55.4131</ele>
        <time>2013-04-12T18:59:46Z</time>
      </trkpt>
      <trkpt lat="59.9893589" lon="17.7386641">
        <ele>55.4131</ele>
        <time>2013-04-12T18:59:47Z</time>
      </trkpt>
      <trkpt lat="59.9893398" lon="17.7386709">
        <ele>55.8938</ele>
        <time>2013-04-12T18:59:48Z</time>
      </trkpt>
      <trkpt lat="59.9893158" lon="17.7386784">
        <ele>55.8938</ele>
        <time>2013-04-12T18:59:49Z</time>
      </trkpt>
      <trkpt lat="59.9892984" lon="17.738682">
        <ele>55.4131</ele>
        <time>2013-04-12T18:59:50Z</time>
      </trkpt>
      <trkpt lat="59.9892709" lon="17.7386923">
        <ele>55.4131</ele>
        <time>2013-04-12T18:59:51Z</time>
      </trkpt>
      <trkpt lat="59.9892393" lon="17.7387083">
        <ele>55.4131</ele>
        <time>2013-04-12T18:59:52Z</time>
      </trkpt>
      <trkpt lat="59.9892109" lon="17.7387294">
        <ele>54.9324</ele>
        <time>2013-04-12T18:59:53Z</time>
      </trkpt>
      <trkpt lat="59.9891923" lon="17.738748">
        <ele>55.4131</ele>
        <time>2013-04-12T18:59:54Z</time>
      </trkpt>
      <trkpt lat="59.9891694" lon="17.7387589">
        <ele>54.9324</ele>
        <time>2013-04-12T18:59:55Z</time>
      </trkpt>
      <trkpt lat="59.9891521" lon="17.7387672">
        <ele>55.4131</ele>
        <time>2013-04-12T18:59:56Z</time>
      </trkpt>
      <trkpt lat="59.9891324" lon="17.7387803">
        <ele>55.8938</ele>
        <time>2013-04-12T18:59:57Z</time>
      </trkpt>
      <trkpt lat="59.9891211" lon="17.7387884">
        <ele>56.3745</ele>
        <time>2013-04-12T18:59:58Z</time>
      </trkpt>
      <trkpt lat="59.9891125" lon="17.7387809">
        <ele>56.8551</ele>
        <time>2013-04-12T18:59:59Z</time>
      </trkpt>
      <trkpt lat="59.9890995" lon="17.7387835">
        <ele>56.3745</ele>
        <time>2013-04-12T19:00:00Z</time>
      </trkpt>
      <trkpt lat="59.9890813" lon="17.7387867">
        <ele>56.8551</ele>
        <time>2013-04-12T19:00:01Z</time>
      </trkpt>
      <trkpt lat="59.9890563" lon="17.7388066">
        <ele>56.8551</ele>
        <time>2013-04-12T19:00:02Z</time>
      </trkpt>
      <trkpt lat="59.9890352" lon="17.7388291">
        <ele>57.8165</ele>
        <time>2013-04-12T19:00:03Z</time>
      </trkpt>
      <trkpt lat="59.9890187" lon="17.7388459">
        <ele>58.7777</ele>
        <time>2013-04-12T19:00:04Z</time>
      </trkpt>
      <trkpt lat="59.9889927" lon="17.7388628">
        <ele>58.7777</ele>
        <time>2013-04-12T19:00:05Z</time>
      </trkpt>
      <trkpt lat="59.9889797" lon="17.7388674">
        <ele>59.2584</ele>
        <time>2013-04-12T19:00:06Z</time>
      </trkpt>
      <trkpt lat="59.9889623" lon="17.7388829">
        <ele>59.7391</ele>
        <time>2013-04-12T19:00:07Z</time>
      </trkpt>
      <trkpt lat="59.9889374" lon="17.7388973">
        <ele>58.7777</ele>
        <time>2013-04-12T19:00:08Z</time>
      </trkpt>
      <trkpt lat="59.9889212" lon="17.7389016">
        <ele>58.7777</ele>
        <time>2013-04-12T19:00:09Z</time>
      </trkpt>
      <trkpt lat="59.9889128" lon="17.738905">
        <ele>59.2584</ele>
        <time>2013-04-12T19:00:10Z</time>
      </trkpt>
      <trkpt lat="59.988897" lon="17.73891">
        <ele>59.2584</ele>
        <time>2013-04-12T19:00:11Z</time>
      </trkpt>
      <trkpt lat="59.988886" lon="17.7389089">
        <ele>59.7391</ele>
        <time>2013-04-12T19:00:12Z</time>
      </trkpt>
      <trkpt lat="59.9888689" lon="17.7389029">
        <ele>60.2197</ele>
        <time>2013-04-12T19:00:13Z</time>
      </trkpt>
      <trkpt lat="59.9888529" lon="17.7388974">
        <ele>60.7003</ele>
        <time>2013-04-12T19:00:14Z</time>
      </trkpt>
      <trkpt lat="59.9888376" lon="17.738905">
        <ele>61.6617</ele>
        <time>2013-04-12T19:00:15Z</time>
      </trkpt>
      <trkpt lat="59.9888198" lon="17.7389312">
        <ele>62.1423</ele>
        <time>2013-04-12T19:00:16Z</time>
      </trkpt>
      <trkpt lat="59.9887898" lon="17.7389627">
        <ele>62.6229</ele>
        <time>2013-04-12T19:00:17Z</time>
      </trkpt>
      <trkpt lat="59.9887667" lon="17.7389772">
        <ele>63.1036</ele>
        <time>2013-04-12T19:00:18Z</time>
      </trkpt>
      <trkpt lat="59.9887563" lon="17.7389877">
        <ele>63.5844</ele>
        <time>2013-04-12T19:00:19Z</time>
      </trkpt>
      <trkpt lat="59.9887434" lon="17.7389905">
        <ele>63.1036</ele>
        <time>2013-04-12T19:00:20Z</time>
      </trkpt>
      <trkpt lat="59.988727" lon="17.7389902">
        <ele>63.5844</ele>
        <time>2013-04-12T19:00:21Z</time>
      </trkpt>
      <trkpt lat="59.9887083" lon="17.7389956">
        <ele>63.5844</ele>
        <time>2013-04-12T19:00:22Z</time>
      </trkpt>
      <trkpt lat="59.9886913" lon="17.7390055">
        <ele>63.5844</ele>
        <time>2013-04-12T19:00:23Z</time>
      </trkpt>
      <trkpt lat="59.9886708" lon="17.7390254">
        <ele>64.0651</ele>
        <time>2013-04-12T19:00:24Z</time>
      </trkpt>
      <trkpt lat="59.9886477" lon="17.7390376">
        <ele>64.0651</ele>
        <time>2013-04-12T19:00:25Z</time>
      </trkpt>
      <trkpt lat="59.9886245" lon="17.739044">
        <ele>63.1036</ele>
        <time>2013-04-12T19:00:26Z</time>
      </trkpt>
      <trkpt lat="59.9886002" lon="17.7390569">
        <ele>63.1036</ele>
        <time>2013-04-12T19:00:27Z</time>
      </trkpt>
      <trkpt lat="59.9885715" lon="17.7390683">
        <ele>62.6229</ele>
        <time>2013-04-12T19:00:28Z</time>
      </trkpt>
      <trkpt lat="59.9885513" lon="17.7390791">
        <ele>62.1423</ele>
        <time>2013-04-12T19:00:29Z</time>
      </trkpt>
      <trkpt lat="59.9885254" lon="17.7390999">
        <ele>62.1423</ele>
        <time>2013-04-12T19:00:30Z</time>
      </trkpt>
      <trkpt lat="59.9885023" lon="17.739106">
        <ele>63.1036</ele>
        <time>2013-04-12T19:00:31Z</time>
      </trkpt>
      <trkpt lat="59.9884794" lon="17.7391202">
        <ele>62.1423</ele>
        <time>2013-04-12T19:00:32Z</time>
      </trkpt>
      <trkpt lat="59.9884553" lon="17.7391402">
        <ele>62.1423</ele>
        <time>2013-04-12T19:00:33Z</time>
      </trkpt>
      <trkpt lat="59.9884265" lon="17.7391567">
        <ele>61.6617</ele>
        <time>2013-04-12T19:00:34Z</time>
      </trkpt>
      <trkpt lat="59.9883995" lon="17.7391666">
        <ele>61.6617</ele>
        <time>2013-04-12T19:00:35Z</time>
      </trkpt>
      <trkpt lat="59.9883763" lon="17.7391678">
        <ele>61.181</ele>
        <time>2013-04-12T19:00:36Z</time>
      </trkpt>
      <trkpt lat="59.9883502" lon="17.7391802">
        <ele>61.181</ele>
        <time>2013-04-12T19:00:37Z</time>
      </trkpt>
      <trkpt lat="59.9883245" lon="17.7392006">
        <ele>60.7003</ele>
        <time>2013-04-12T19:00:38Z</time>
      </trkpt>
      <trkpt lat="59.9883004" lon="17.7392109">
        <ele>60.7003</ele>
        <time>2013-04-12T19:00:39Z</time>
      </trkpt>
      <trkpt lat="59.9882766" lon="17.7392239">
        <ele>60.2197</ele>
        <time>2013-04-12T19:00:40Z</time>
      </trkpt>
      <trkpt lat="59.9882538" lon="17.7392341">
        <ele>60.2197</ele>
        <time>2013-04-12T19:00:41Z</time>
      </trkpt>
      <trkpt lat="59.9882296" lon="17.7392451">
        <ele>60.2197</ele>
        <time>2013-04-12T19:00:42Z</time>
      </trkpt>
      <trkpt lat="59.9882078" lon="17.7392458">
        <ele>59.7391</ele>
        <time>2013-04-12T19:00:43Z</time>
      </trkpt>
      <trkpt lat="59.9881823" lon="17.7392491">
        <ele>59.7391</ele>
        <time>2013-04-12T19:00:44Z</time>
      </trkpt>
      <trkpt lat="59.9881586" lon="17.7392579">
        <ele>59.2584</ele>
        <time>2013-04-12T19:00:45Z</time>
      </trkpt>
      <trkpt lat="59.9881373" lon="17.739266">
        <ele>59.2584</ele>
        <time>2013-04-12T19:00:46Z</time>
      </trkpt>
      <trkpt lat="59.9881182" lon="17.7392803">
        <ele>58.7777</ele>
        <time>2013-04-12T19:00:47Z</time>
      </trkpt>
      <trkpt lat="59.9880901" lon="17.7392875">
        <ele>58.7777</ele>
        <time>2013-04-12T19:00:48Z</time>
      </trkpt>
      <trkpt lat="59.9880629" lon="17.7392916">
        <ele>58.2971</ele>
        <time>2013-04-12T19:00:49Z</time>
      </trkpt>
      <trkpt lat="59.9880404" lon="17.7392938">
        <ele>58.2971</ele>
        <time>2013-04-12T19:00:50Z</time>
      </trkpt>
      <trkpt lat="59.9880218" lon="17.7393016">
        <ele>57.8165</ele>
        <time>2013-04-12T19:00:51Z</time>
      </trkpt>
      <trkpt lat="59.9880053" lon="17.7393108">
        <ele>58.2971</ele>
        <time>2013-04-12T19:00:52Z</time>
      </trkpt>
      <trkpt lat="59.9879878" lon="17.7393243">
        <ele>58.2971</ele>
        <time>2013-04-12T19:00:53Z</time>
      </trkpt>
      <trkpt lat="59.9879733" lon="17.7393429">
        <ele>57.8165</ele>
        <time>2013-04-12T19:00:54Z</time>
      </trkpt>
      <trkpt lat="59.9879551" lon="17.7393454">
        <ele>57.3358</ele>
        <time>2013-04-12T19:00:55Z</time>
      </trkpt>
      <trkpt lat="59.9879333" lon="17.7393384">
        <ele>57.3358</ele>
        <time>2013-04-12T19:00:56Z</time>
      </trkpt>
      <trkpt lat="59.9879009" lon="17.7393346">
        <ele>57.3358</ele>
        <time>2013-04-12T19:00:57Z</time>
      </trkpt>
      <trkpt lat="59.9878742" lon="17.7393387">
        <ele>57.3358</ele>
        <time>2013-04-12T19:00:58Z</time>
      </trkpt>
      <trkpt lat="59.9878494" lon="17.7393389">
        <ele>57.3358</ele>
        <time>2013-04-12T19:00:59Z</time>
      </trkpt>
      <trkpt lat="59.9878234" lon="17.7393438">
        <ele>56.8551</ele>
        <time>2013-04-12T19:01:00Z</time>
      </trkpt>
      <trkpt lat="59.987803" lon="17.7393474">
        <ele>56.8551</ele>
        <time>2013-04-12T19:01:01Z</time>
      </trkpt>
      <trkpt lat="59.9877785" lon="17.7393485">
        <ele>56.8551</ele>
        <time>2013-04-12T19:01:02Z</time>
      </trkpt>
      <trkpt lat="59.9877526" lon="17.7393553">
        <ele>56.8551</ele>
        <time>2013-04-12T19:01:03Z</time>
      </trkpt>
      <trkpt lat="59.9877266" lon="17.7393629">
        <ele>56.8551</ele>
        <time>2013-04-12T19:01:04Z</time>
      </trkpt>
      <trkpt lat="59.9876822" lon="17.7393936">
        <ele>57.8165</ele>
        <time>2013-04-12T19:01:05Z</time>
      </trkpt>
      <trkpt lat="59.9876448" lon="17.7394069">
        <ele>58.2971</ele>
        <time>2013-04-12T19:01:06Z</time>
      </trkpt>
      <trkpt lat="59.9876168" lon="17.7394123">
        <ele>58.2971</ele>
        <time>2013-04-12T19:01:07Z</time>
      </trkpt>
      <trkpt lat="59.9875973" lon="17.7394052">
        <ele>58.2971</ele>
        <time>2013-04-12T19:01:08Z</time>
      </trkpt>
      <trkpt lat="59.9875754" lon="17.7394036">
        <ele>58.2971</ele>
        <time>2013-04-12T19:01:09Z</time>
      </trkpt>
      <trkpt lat="59.9875445" lon="17.7394143">
        <ele>58.2971</ele>
        <time>2013-04-12T19:01:10Z</time>
      </trkpt>
      <trkpt lat="59.987507" lon="17.7394226">
        <ele>57.8165</ele>
        <time>2013-04-12T19:01:11Z</time>
      </trkpt>
      <trkpt lat="59.9874799" lon="17.7394273">
        <ele>57.3358</ele>
        <time>2013-04-12T19:01:12Z</time>
      </trkpt>
      <trkpt lat="59.9874578" lon="17.7394315">
        <ele>56.8551</ele>
        <time>2013-04-12T19:01:13Z</time>
      </trkpt>
      <trkpt lat="59.9874356" lon="17.7394477">
        <ele>56.3745</ele>
        <time>2013-04-12T19:01:14Z</time>
      </trkpt>
      <trkpt lat="59.9874141" lon="17.7394491">
        <ele>56.3745</ele>
        <time>2013-04-12T19:01:15Z</time>
      </trkpt>
      <trkpt lat="59.9873859" lon="17.739452">
        <ele>55.8938</ele>
        <time>2013-04-12T19:01:16Z</time>
      </trkpt>
      <trkpt lat="59.9873585" lon="17.7394568">
        <ele>55.4131</ele>
        <time>2013-04-12T19:01:17Z</time>
      </trkpt>
      <trkpt lat="59.987331" lon="17.7394637">
        <ele>54.9324</ele>
        <time>2013-04-12T19:01:18Z</time>
      </trkpt>
      <trkpt lat="59.9873071" lon="17.7394614">
        <ele>54.4518</ele>
        <time>2013-04-12T19:01:19Z</time>
      </trkpt>
      <trkpt lat="59.9872745" lon="17.7394712">
        <ele>54.4518</ele>
        <time>2013-04-12T19:01:20Z</time>
      </trkpt>
      <trkpt lat="59.9872464" lon="17.7394785">
        <ele>54.4518</ele>
        <time>2013-04-12T19:01:21Z</time>
      </trkpt>
      <trkpt lat="59.9872176" lon="17.7394797">
        <ele>54.4518</ele>
        <time>2013-04-12T19:01:22Z</time>
      </trkpt>
      <trkpt lat="59.9871899" lon="17.7394817">
        <ele>54.4518</ele>
        <time>2013-04-12T19:01:23Z</time>
      </trkpt>
      <trkpt lat="59.98716" lon="17.7394869">
        <ele>55.4131</ele>
        <time>2013-04-12T19:01:24Z</time>
      </trkpt>
      <trkpt lat="59.9871262" lon="17.7395004">
        <ele>55.8938</ele>
        <time>2013-04-12T19:01:25Z</time>
      </trkpt>
      <trkpt lat="59.9870967" lon="17.7394999">
        <ele>56.3745</ele>
        <time>2013-04-12T19:01:26Z</time>
      </trkpt>
      <trkpt lat="59.9870647" lon="17.7395013">
        <ele>56.3745</ele>
        <time>2013-04-12T19:01:27Z</time>
      </trkpt>
      <trkpt lat="59.9870303" lon="17.739503">
        <ele>56.8551</ele>
        <time>2013-04-12T19:01:28Z</time>
      </trkpt>
      <trkpt lat="59.9869964" lon="17.7395055">
        <ele>57.3358</ele>
        <time>2013-04-12T19:01:29Z</time>
      </trkpt>
      <trkpt lat="59.9869636" lon="17.7395095">
        <ele>57.8165</ele>
        <time>2013-04-12T19:01:30Z</time>
      </trkpt>
      <trkpt lat="59.9869341" lon="17.7394992">
        <ele>57.8165</ele>
        <time>2013-04-12T19:01:31Z</time>
      </trkpt>
      <trkpt lat="59.9869056" lon="17.7394852">
        <ele>57.3358</ele>
        <time>2013-04-12T19:01:32Z</time>
      </trkpt>
      <trkpt lat="59.9868791" lon="17.7394755">
        <ele>57.8165</ele>
        <time>2013-04-12T19:01:33Z</time>
      </trkpt>
      <trkpt lat="59.98685" lon="17.7394601">
        <ele>57.8165</ele>
        <time>2013-04-12T19:01:34Z</time>
      </trkpt>
      <trkpt lat="59.9868262" lon="17.7394342">
        <ele>58.2971</ele>
        <time>2013-04-12T19:01:35Z</time>
      </trkpt>
      <trkpt lat="59.9868063" lon="17.7394062">
        <ele>58.2971</ele>
        <time>2013-04-12T19:01:36Z</time>
      </trkpt>
      <trkpt lat="59.9867884" lon="17.7393791">
        <ele>58.2971</ele>
        <time>2013-04-12T19:01:37Z</time>
      </trkpt>
      <trkpt lat="59.9867746" lon="17.7393518">
        <ele>58.2971</ele>
        <time>2013-04-12T19:01:38Z</time>
      </trkpt>
      <trkpt lat="59.9867633" lon="17.7393248">
        <ele>57.8165</ele>
        <time>2013-04-12T19:01:39Z</time>
      </trkpt>
      <trkpt lat="59.986744" lon="17.739302">
        <ele>57.8165</ele>
        <time>2013-04-12T19:01:40Z</time>
      </trkpt>
      <trkpt lat="59.986715" lon="17.7392842">
        <ele>57.8165</ele>
        <time>2013-04-12T19:01:41Z</time>
      </trkpt>
      <trkpt lat="59.9866962" lon="17.7392638">
        <ele>57.8165</ele>
        <time>2013-04-12T19:01:42Z</time>
      </trkpt>
      <trkpt lat="59.9866752" lon="17.739249">
        <ele>57.3358</ele>
        <time>2013-04-12T19:01:43Z</time>
      </trkpt>
      <trkpt lat="59.9866548" lon="17.73923">
        <ele>56.8551</ele>
        <time>2013-04-12T19:01:44Z</time>
      </trkpt>
      <trkpt lat="59.9866359" lon="17.7392081">
        <ele>55.8938</ele>
        <time>2013-04-12T19:01:45Z</time>
      </trkpt>
      <trkpt lat="59.9866207" lon="17.7391876">
        <ele>54.9324</ele>
        <time>2013-04-12T19:01:46Z</time>
      </trkpt>
      <trkpt lat="59.9866061" lon="17.7391703">
        <ele>54.4518</ele>
        <time>2013-04-12T19:01:47Z</time>
      </trkpt>
      <trkpt lat="59.9865846" lon="17.7391599">
        <ele>53.9712</ele>
        <time>2013-04-12T19:01:48Z</time>
      </trkpt>
      <trkpt lat="59.9865544" lon="17.7391459">
        <ele>53.9712</ele>
        <time>2013-04-12T19:01:49Z</time>
      </trkpt>
      <trkpt lat="59.9865317" lon="17.7391269">
        <ele>53.9712</ele>
        <time>2013-04-12T19:01:50Z</time>
      </trkpt>
      <trkpt lat="59.986514" lon="17.7391104">
        <ele>53.4905</ele>
        <time>2013-04-12T19:01:51Z</time>
      </trkpt>
      <trkpt lat="59.9864928" lon="17.7390928">
        <ele>53.4905</ele>
        <time>2013-04-12T19:01:52Z</time>
      </trkpt>
      <trkpt lat="59.9864685" lon="17.7390778">
        <ele>53.9712</ele>
        <time>2013-04-12T19:01:53Z</time>
      </trkpt>
      <trkpt lat="59.9864406" lon="17.7390648">
        <ele>53.4905</ele>
        <time>2013-04-12T19:01:54Z</time>
      </trkpt>
      <trkpt lat="59.9864149" lon="17.7390461">
        <ele>53.4905</ele>
        <time>2013-04-12T19:01:55Z</time>
      </trkpt>
      <trkpt lat="59.9863952" lon="17.7390236">
        <ele>53.0098</ele>
        <time>2013-04-12T19:01:56Z</time>
      </trkpt>
      <trkpt lat="59.986369" lon="17.7389953">
        <ele>52.5292</ele>
        <time>2013-04-12T19:01:57Z</time>
      </trkpt>
      <trkpt lat="59.9863417" lon="17.7389782">
        <ele>53.0098</ele>
        <time>2013-04-12T19:01:58Z</time>
      </trkpt>
      <trkpt lat="59.9863146" lon="17.7389627">
        <ele>52.5292</ele>
        <time>2013-04-12T19:01:59Z</time>
      </trkpt>
      <trkpt lat="59.9862966" lon="17.738944">
        <ele>52.0486</ele>
        <time>2013-04-12T19:02:00Z</time>
      </trkpt>
      <trkpt lat="59.9862771" lon="17.7389333">
        <ele>51.5679</ele>
        <time>2013-04-12T19:02:01Z</time>
      </trkpt>
      <trkpt lat="59.9862587" lon="17.7389351">
        <ele>51.5679</ele>
        <time>2013-04-12T19:02:02Z</time>
      </trkpt>
      <trkpt lat="59.9862463" lon="17.7389414">
        <ele>51.5679</ele>
        <time>2013-04-12T19:02:03Z</time>
      </trkpt>
      <trkpt lat="59.9862267" lon="17.7389363">
        <ele>51.5679</ele>
        <time>2013-04-12T19:02:04Z</time>
      </trkpt>
      <trkpt lat="59.9862178" lon="17.7389187">
        <ele>51.0872</ele>
        <time>2013-04-12T19:02:05Z</time>
      </trkpt>
      <trkpt lat="59.9862063" lon="17.738896">
        <ele>50.6066</ele>
        <time>2013-04-12T19:02:06Z</time>
      </trkpt>
      <trkpt lat="59.9861849" lon="17.7388682">
        <ele>51.0872</ele>
        <time>2013-04-12T19:02:07Z</time>
      </trkpt>
      <trkpt lat="59.9861469" lon="17.7388504">
        <ele>51.0872</ele>
        <time>2013-04-12T19:02:08Z</time>
      </trkpt>
      <trkpt lat="59.9861084" lon="17.7388278">
        <ele>50.6066</ele>
        <time>2013-04-12T19:02:09Z</time>
      </trkpt>
      <trkpt lat="59.9860759" lon="17.7388105">
        <ele>50.6066</ele>
        <time>2013-04-12T19:02:10Z</time>
      </trkpt>
      <trkpt lat="59.9860417" lon="17.73879">
        <ele>50.6066</ele>
        <time>2013-04-12T19:02:11Z</time>
      </trkpt>
      <trkpt lat="59.9860078" lon="17.7387796">
        <ele>50.126</ele>
        <time>2013-04-12T19:02:12Z</time>
      </trkpt>
      <trkpt lat="59.985981" lon="17.738769">
        <ele>50.6066</ele>
        <time>2013-04-12T19:02:13Z</time>
      </trkpt>
      <trkpt lat="59.985953" lon="17.7387523">
        <ele>50.6066</ele>
        <time>2013-04-12T19:02:14Z</time>
      </trkpt>
      <trkpt lat="59.9859274" lon="17.7387351">
        <ele>51.0872</ele>
        <time>2013-04-12T19:02:15Z</time>
      </trkpt>
      <trkpt lat="59.9858944" lon="17.7387192">
        <ele>51.0872</ele>
        <time>2013-04-12T19:02:16Z</time>
      </trkpt>
      <trkpt lat="59.9858691" lon="17.7387001">
        <ele>51.0872</ele>
        <time>2013-04-12T19:02:17Z</time>
      </trkpt>
      <trkpt lat="59.9858462" lon="17.7386876">
        <ele>51.0872</ele>
        <time>2013-04-12T19:02:18Z</time>
      </trkpt>
      <trkpt lat="59.9858194" lon="17.7386799">
        <ele>50.6066</ele>
        <time>2013-04-12T19:02:19Z</time>
      </trkpt>
      <trkpt lat="59.9857878" lon="17.7386791">
        <ele>51.0872</ele>
        <time>2013-04-12T19:02:20Z</time>
      </trkpt>
      <trkpt lat="59.985756" lon="17.7386725">
        <ele>51.0872</ele>
        <time>2013-04-12T19:02:21Z</time>
      </trkpt>
      <trkpt lat="59.9857249" lon="17.7386612">
        <ele>50.6066</ele>
        <time>2013-04-12T19:02:22Z</time>
      </trkpt>
      <trkpt lat="59.9856935" lon="17.7386528">
        <ele>51.0872</ele>
        <time>2013-04-12T19:02:23Z</time>
      </trkpt>
      <trkpt lat="59.9856646" lon="17.7386358">
        <ele>51.0872</ele>
        <time>2013-04-12T19:02:24Z</time>
      </trkpt>
      <trkpt lat="59.9856359" lon="17.7386216">
        <ele>51.0872</ele>
        <time>2013-04-12T19:02:25Z</time>
      </trkpt>
      <trkpt lat="59.9856125" lon="17.7386018">
        <ele>50.6066</ele>
        <time>2013-04-12T19:02:26Z</time>
      </trkpt>
      <trkpt lat="59.985585" lon="17.7385797">
        <ele>50.126</ele>
        <time>2013-04-12T19:02:27Z</time>
      </trkpt>
      <trkpt lat="59.9855577" lon="17.7385665">
        <ele>50.126</ele>
        <time>2013-04-12T19:02:28Z</time>
      </trkpt>
      <trkpt lat="59.9855272" lon="17.7385632">
        <ele>50.126</ele>
        <time>2013-04-12T19:02:29Z</time>
      </trkpt>
      <trkpt lat="59.9855044" lon="17.7385473">
        <ele>49.6453</ele>
        <time>2013-04-12T19:02:30Z</time>
      </trkpt>
      <trkpt lat="59.9854802" lon="17.7385307">
        <ele>49.6453</ele>
        <time>2013-04-12T19:02:31Z</time>
      </trkpt>
      <trkpt lat="59.9854535" lon="17.7385218">
        <ele>49.6453</ele>
        <time>2013-04-12T19:02:32Z</time>
      </trkpt>
      <trkpt lat="59.9854205" lon="17.7385146">
        <ele>49.6453</ele>
        <time>2013-04-12T19:02:33Z</time>
      </trkpt>
      <trkpt lat="59.9853898" lon="17.7385175">
        <ele>49.1646</ele>
        <time>2013-04-12T19:02:34Z</time>
      </trkpt>
      <trkpt lat="59.9853592" lon="17.7385131">
        <ele>49.1646</ele>
        <time>2013-04-12T19:02:35Z</time>
      </trkpt>
      <trkpt lat="59.9853338" lon="17.7385006">
        <ele>49.1646</ele>
        <time>2013-04-12T19:02:36Z</time>
      </trkpt>
      <trkpt lat="59.9853044" lon="17.7384923">
        <ele>49.6453</ele>
        <time>2013-04-12T19:02:37Z</time>
      </trkpt>
      <trkpt lat="59.9852794" lon="17.7384846">
        <ele>49.6453</ele>
        <time>2013-04-12T19:02:38Z</time>
      </trkpt>
      <trkpt lat="59.9852598" lon="17.7384789">
        <ele>49.1646</ele>
        <time>2013-04-12T19:02:39Z</time>
      </trkpt>
      <trkpt lat="59.9852362" lon="17.7384699">
        <ele>49.1646</ele>
        <time>2013-04-12T19:02:40Z</time>
      </trkpt>
      <trkpt lat="59.985218" lon="17.7384623">
        <ele>48.684</ele>
        <time>2013-04-12T19:02:41Z</time>
      </trkpt>
      <trkpt lat="59.9851932" lon="17.7384622">
        <ele>48.684</ele>
        <time>2013-04-12T19:02:42Z</time>
      </trkpt>
      <trkpt lat="59.9851691" lon="17.7384654">
        <ele>48.2034</ele>
        <time>2013-04-12T19:02:43Z</time>
      </trkpt>
      <trkpt lat="59.9851439" lon="17.7384652">
        <ele>48.2034</ele>
        <time>2013-04-12T19:02:44Z</time>
      </trkpt>
      <trkpt lat="59.9851235" lon="17.7384644">
        <ele>48.2034</ele>
        <time>2013-04-12T19:02:45Z</time>
      </trkpt>
      <trkpt lat="59.9851017" lon="17.7384647">
        <ele>48.2034</ele>
        <time>2013-04-12T19:02:46Z</time>
      </trkpt>
      <trkpt lat="59.9850807" lon="17.7384571">
        <ele>47.7225</ele>
        <time>2013-04-12T19:02:47Z</time>
      </trkpt>
      <trkpt lat="59.9850598" lon="17.7384411">
        <ele>47.2418</ele>
        <time>2013-04-12T19:02:48Z</time>
      </trkpt>
      <trkpt lat="59.9850377" lon="17.7384302">
        <ele>47.2418</ele>
        <time>2013-04-12T19:02:49Z</time>
      </trkpt>
      <trkpt lat="59.9850108" lon="17.7384383">
        <ele>47.2418</ele>
        <time>2013-04-12T19:02:50Z</time>
      </trkpt>
      <trkpt lat="59.9849843" lon="17.7384411">
        <ele>47.2418</ele>
        <time>2013-04-12T19:02:51Z</time>
      </trkpt>
      <trkpt lat="59.9849585" lon="17.738438">
        <ele>47.2418</ele>
        <time>2013-04-12T19:02:52Z</time>
      </trkpt>
      <trkpt lat="59.9849336" lon="17.7384339">
        <ele>46.7612</ele>
        <time>2013-04-12T19:02:53Z</time>
      </trkpt>
      <trkpt lat="59.9849088" lon="17.738428">
        <ele>46.2806</ele>
        <time>2013-04-12T19:02:54Z</time>
      </trkpt>
      <trkpt lat="59.9848844" lon="17.7384187">
        <ele>46.2806</ele>
        <time>2013-04-12T19:02:55Z</time>
      </trkpt>
      <trkpt lat="59.9848598" lon="17.7384189">
        <ele>45.7999</ele>
        <time>2013-04-12T19:02:56Z</time>
      </trkpt>
      <trkpt lat="59.9848361" lon="17.7384151">
        <ele>45.3192</ele>
        <time>2013-04-12T19:02:57Z</time>
      </trkpt>
      <trkpt lat="59.9848138" lon="17.7384095">
        <ele>45.3192</ele>
        <time>2013-04-12T19:02:58Z</time>
      </trkpt>
      <trkpt lat="59.984787" lon="17.7383997">
        <ele>44.8386</ele>
        <time>2013-04-12T19:02:59Z</time>
      </trkpt>
      <trkpt lat="59.9847557" lon="17.7383992">
        <ele>44.8386</ele>
        <time>2013-04-12T19:03:00Z</time>
      </trkpt>
      <trkpt lat="59.9847294" lon="17.7383907">
        <ele>44.8386</ele>
        <time>2013-04-12T19:03:01Z</time>
      </trkpt>
      <trkpt lat="59.9846985" lon="17.7383933">
        <ele>44.8386</ele>
        <time>2013-04-12T19:03:02Z</time>
      </trkpt>
      <trkpt lat="59.984668" lon="17.7383908">
        <ele>44.8386</ele>
        <time>2013-04-12T19:03:03Z</time>
      </trkpt>
      <trkpt lat="59.9846399" lon="17.7383861">
        <ele>45.3192</ele>
        <time>2013-04-12T19:03:04Z</time>
      </trkpt>
      <trkpt lat="59.9846088" lon="17.7383777">
        <ele>45.3192</ele>
        <time>2013-04-12T19:03:05Z</time>
      </trkpt>
      <trkpt lat="59.9845786" lon="17.7383653">
        <ele>45.3192</ele>
        <time>2013-04-12T19:03:06Z</time>
      </trkpt>
      <trkpt lat="59.9845524" lon="17.7383649">
        <ele>45.3192</ele>
        <time>2013-04-12T19:03:07Z</time>
      </trkpt>
      <trkpt lat="59.9845213" lon="17.7383673">
        <ele>45.7999</ele>
        <time>2013-04-12T19:03:08Z</time>
      </trkpt>
      <trkpt lat="59.9844907" lon="17.7383705">
        <ele>45.7999</ele>
        <time>2013-04-12T19:03:09Z</time>
      </trkpt>
      <trkpt lat="59.9844696" lon="17.7383649">
        <ele>45.3192</ele>
        <time>2013-04-12T19:03:10Z</time>
      </trkpt>
      <trkpt lat="59.9844481" lon="17.7383608">
        <ele>45.3192</ele>
        <time>2013-04-12T19:03:11Z</time>
      </trkpt>
      <trkpt lat="59.984431" lon="17.7383538">
        <ele>45.3192</ele>
        <time>2013-04-12T19:03:12Z</time>
      </trkpt>
      <trkpt lat="59.984409" lon="17.7383441">
        <ele>45.3192</ele>
        <time>2013-04-12T19:03:13Z</time>
      </trkpt>
      <trkpt lat="59.9843845" lon="17.738325">
        <ele>45.7999</ele>
        <time>2013-04-12T19:03:14Z</time>
      </trkpt>
      <trkpt lat="59.9843606" lon="17.7383112">
        <ele>45.3192</ele>
        <time>2013-04-12T19:03:15Z</time>
      </trkpt>
      <trkpt lat="59.9843286" lon="17.7383047">
        <ele>45.3192</ele>
        <time>2013-04-12T19:03:16Z</time>
      </trkpt>
      <trkpt lat="59.9842986" lon="17.7382998">
        <ele>45.3192</ele>
        <time>2013-04-12T19:03:17Z</time>
      </trkpt>
      <trkpt lat="59.9842791" lon="17.7382801">
        <ele>45.3192</ele>
        <time>2013-04-12T19:03:18Z</time>
      </trkpt>
      <trkpt lat="59.9842556" lon="17.7382627">
        <ele>44.8386</ele>
        <time>2013-04-12T19:03:19Z</time>
      </trkpt>
      <trkpt lat="59.9842247" lon="17.7382585">
        <ele>45.3192</ele>
        <time>2013-04-12T19:03:20Z</time>
      </trkpt>
      <trkpt lat="59.9841913" lon="17.738259">
        <ele>45.3192</ele>
        <time>2013-04-12T19:03:21Z</time>
      </trkpt>
      <trkpt lat="59.9841596" lon="17.7382639">
        <ele>45.3192</ele>
        <time>2013-04-12T19:03:22Z</time>
      </trkpt>
      <trkpt lat="59.9841275" lon="17.7382611">
        <ele>45.3192</ele>
        <time>2013-04-12T19:03:23Z</time>
      </trkpt>
      <trkpt lat="59.9840975" lon="17.7382625">
        <ele>45.7999</ele>
        <time>2013-04-12T19:03:24Z</time>
      </trkpt>
      <trkpt lat="59.9840688" lon="17.7382733">
        <ele>46.7612</ele>
        <time>2013-04-12T19:03:25Z</time>
      </trkpt>
      <trkpt lat="59.9840442" lon="17.7382761">
        <ele>47.2418</ele>
        <time>2013-04-12T19:03:26Z</time>
      </trkpt>
      <trkpt lat="59.9840181" lon="17.738272">
        <ele>47.2418</ele>
        <time>2013-04-12T19:03:27Z</time>
      </trkpt>
      <trkpt lat="59.9839927" lon="17.7382655">
        <ele>47.7225</ele>
        <time>2013-04-12T19:03:28Z</time>
      </trkpt>
      <trkpt lat="59.9839648" lon="17.7382634">
        <ele>47.2418</ele>
        <time>2013-04-12T19:03:29Z</time>
      </trkpt>
      <trkpt lat="59.9839419" lon="17.7382591">
        <ele>46.7612</ele>
        <time>2013-04-12T19:03:30Z</time>
      </trkpt>
      <trkpt lat="59.9839208" lon="17.7382587">
        <ele>46.7612</ele>
        <time>2013-04-12T19:03:31Z</time>
      </trkpt>
      <trkpt lat="59.9839069" lon="17.7382396">
        <ele>46.7612</ele>
        <time>2013-04-12T19:03:32Z</time>
      </trkpt>
      <trkpt lat="59.9838856" lon="17.738237">
        <ele>47.2418</ele>
        <time>2013-04-12T19:03:33Z</time>
      </trkpt>
      <trkpt lat="59.9838694" lon="17.7382318">
        <ele>48.2034</ele>
        <time>2013-04-12T19:03:34Z</time>
      </trkpt>
      <trkpt lat="59.9838525" lon="17.7382181">
        <ele>48.684</ele>
        <time>2013-04-12T19:03:35Z</time>
      </trkpt>
      <trkpt lat="59.9838388" lon="17.7382096">
        <ele>49.1646</ele>
        <time>2013-04-12T19:03:36Z</time>
      </trkpt>
      <trkpt lat="59.9838251" lon="17.7382046">
        <ele>50.126</ele>
        <time>2013-04-12T19:03:37Z</time>
      </trkpt>
      <trkpt lat="59.9838062" lon="17.7381903">
        <ele>50.6066</ele>
        <time>2013-04-12T19:03:38Z</time>
      </trkpt>
      <trkpt lat="59.983787" lon="17.738182">
        <ele>51.5679</ele>
        <time>2013-04-12T19:03:39Z</time>
      </trkpt>
      <trkpt lat="59.9837721" lon="17.7381788">
        <ele>52.5292</ele>
        <time>2013-04-12T19:03:40Z</time>
      </trkpt>
      <trkpt lat="59.9837469" lon="17.7381889">
        <ele>53.4905</ele>
        <time>2013-04-12T19:03:41Z</time>
      </trkpt>
      <trkpt lat="59.9837231" lon="17.7381954">
        <ele>54.4518</ele>
        <time>2013-04-12T19:03:42Z</time>
      </trkpt>
      <trkpt lat="59.9836903" lon="17.738209">
        <ele>53.9712</ele>
        <time>2013-04-12T19:03:43Z</time>
      </trkpt>
      <trkpt lat="59.9836558" lon="17.7382251">
        <ele>53.4905</ele>
        <time>2013-04-12T19:03:44Z</time>
      </trkpt>
      <trkpt lat="59.9836294" lon="17.7382402">
        <ele>53.4905</ele>
        <time>2013-04-12T19:03:45Z</time>
      </trkpt>
      <trkpt lat="59.9836038" lon="17.7382542">
        <ele>53.4905</ele>
        <time>2013-04-12T19:03:46Z</time>
      </trkpt>
      <trkpt lat="59.9835852" lon="17.7382621">
        <ele>54.4518</ele>
        <time>2013-04-12T19:03:47Z</time>
      </trkpt>
      <trkpt lat="59.983564" lon="17.7382707">
        <ele>54.9324</ele>
        <time>2013-04-12T19:03:48Z</time>
      </trkpt>
      <trkpt lat="59.9835387" lon="17.7382727">
        <ele>53.9712</ele>
        <time>2013-04-12T19:03:49Z</time>
      </trkpt>
      <trkpt lat="59.9835223" lon="17.7382649">
        <ele>53.9712</ele>
        <time>2013-04-12T19:03:50Z</time>
      </trkpt>
      <trkpt lat="59.983508" lon="17.7382582">
        <ele>53.9712</ele>
        <time>2013-04-12T19:03:51Z</time>
      </trkpt>
      <trkpt lat="59.9834805" lon="17.7382637">
        <ele>53.4905</ele>
        <time>2013-04-12T19:03:52Z</time>
      </trkpt>
      <trkpt lat="59.9834524" lon="17.7382749">
        <ele>54.4518</ele>
        <time>2013-04-12T19:03:53Z</time>
      </trkpt>
      <trkpt lat="59.9834133" lon="17.7383016">
        <ele>53.9712</ele>
        <time>2013-04-12T19:03:54Z</time>
      </trkpt>
      <trkpt lat="59.9833735" lon="17.7383209">
        <ele>53.4905</ele>
        <time>2013-04-12T19:03:55Z</time>
      </trkpt>
      <trkpt lat="59.9833462" lon="17.738325">
        <ele>53.4905</ele>
        <time>2013-04-12T19:03:56Z</time>
      </trkpt>
      <trkpt lat="59.9833208" lon="17.7383245">
        <ele>53.0098</ele>
        <time>2013-04-12T19:03:57Z</time>
      </trkpt>
      <trkpt lat="59.9832944" lon="17.7383219">
        <ele>53.4905</ele>
        <time>2013-04-12T19:03:58Z</time>
      </trkpt>
      <trkpt lat="59.9832661" lon="17.7383219">
        <ele>53.0098</ele>
        <time>2013-04-12T19:03:59Z</time>
      </trkpt>
      <trkpt lat="59.9832385" lon="17.7383177">
        <ele>52.0486</ele>
        <time>2013-04-12T19:04:00Z</time>
      </trkpt>
      <trkpt lat="59.9832123" lon="17.7383199">
        <ele>51.5679</ele>
        <time>2013-04-12T19:04:01Z</time>
      </trkpt>
      <trkpt lat="59.9831899" lon="17.7383166">
        <ele>52.0486</ele>
        <time>2013-04-12T19:04:02Z</time>
      </trkpt>
      <trkpt lat="59.9831672" lon="17.7383119">
        <ele>52.0486</ele>
        <time>2013-04-12T19:04:03Z</time>
      </trkpt>
      <trkpt lat="59.9831443" lon="17.7383184">
        <ele>52.0486</ele>
        <time>2013-04-12T19:04:04Z</time>
      </trkpt>
      <trkpt lat="59.9831252" lon="17.7383251">
        <ele>51.0872</ele>
        <time>2013-04-12T19:04:05Z</time>
      </trkpt>
      <trkpt lat="59.983103" lon="17.7383378">
        <ele>50.6066</ele>
        <time>2013-04-12T19:04:06Z</time>
      </trkpt>
      <trkpt lat="59.9830812" lon="17.7383337">
        <ele>50.6066</ele>
        <time>2013-04-12T19:04:07Z</time>
      </trkpt>
      <trkpt lat="59.9830618" lon="17.7383298">
        <ele>50.6066</ele>
        <time>2013-04-12T19:04:08Z</time>
      </trkpt>
      <trkpt lat="59.9830449" lon="17.7383197">
        <ele>50.6066</ele>
        <time>2013-04-12T19:04:09Z</time>
      </trkpt>
      <trkpt lat="59.983025" lon="17.7383126">
        <ele>51.0872</ele>
        <time>2013-04-12T19:04:10Z</time>
      </trkpt>
      <trkpt lat="59.9830031" lon="17.7383139">
        <ele>51.0872</ele>
        <time>2013-04-12T19:04:11Z</time>
      </trkpt>
      <trkpt lat="59.9829828" lon="17.7383119">
        <ele>51.0872</ele>
        <time>2013-04-12T19:04:12Z</time>
      </trkpt>
      <trkpt lat="59.9829626" lon="17.7383147">
        <ele>51.0872</ele>
        <time>2013-04-12T19:04:13Z</time>
      </trkpt>
      <trkpt lat="59.982943" lon="17.7383054">
        <ele>51.5679</ele>
        <time>2013-04-12T19:04:14Z</time>
      </trkpt>
      <trkpt lat="59.9829226" lon="17.7382963">
        <ele>51.0872</ele>
        <time>2013-04-12T19:04:15Z</time>
      </trkpt>
      <trkpt lat="59.9829018" lon="17.7382928">
        <ele>50.126</ele>
        <time>2013-04-12T19:04:16Z</time>
      </trkpt>
      <trkpt lat="59.9828779" lon="17.7382908">
        <ele>50.126</ele>
        <time>2013-04-12T19:04:17Z</time>
      </trkpt>
      <trkpt lat="59.9828556" lon="17.7382898">
        <ele>50.126</ele>
        <time>2013-04-12T19:04:18Z</time>
      </trkpt>
      <trkpt lat="59.9828332" lon="17.7382803">
        <ele>50.126</ele>
        <time>2013-04-12T19:04:19Z</time>
      </trkpt>
      <trkpt lat="59.9828102" lon="17.7382655">
        <ele>49.6453</ele>
        <time>2013-04-12T19:04:20Z</time>
      </trkpt>
      <trkpt lat="59.9827855" lon="17.7382576">
        <ele>49.6453</ele>
        <time>2013-04-12T19:04:21Z</time>
      </trkpt>
      <trkpt lat="59.9827593" lon="17.738253">
        <ele>49.6453</ele>
        <time>2013-04-12T19:04:22Z</time>
      </trkpt>
      <trkpt lat="59.9827291" lon="17.7382546">
        <ele>48.684</ele>
        <time>2013-04-12T19:04:23Z</time>
      </trkpt>
      <trkpt lat="59.982701" lon="17.7382523">
        <ele>48.684</ele>
        <time>2013-04-12T19:04:24Z</time>
      </trkpt>
      <trkpt lat="59.9826759" lon="17.7382454">
        <ele>48.2034</ele>
        <time>2013-04-12T19:04:25Z</time>
      </trkpt>
      <trkpt lat="59.9826523" lon="17.738245">
        <ele>48.684</ele>
        <time>2013-04-12T19:04:26Z</time>
      </trkpt>
      <trkpt lat="59.9826306" lon="17.738241">
        <ele>48.684</ele>
        <time>2013-04-12T19:04:27Z</time>
      </trkpt>
      <trkpt lat="59.9826067" lon="17.7382374">
        <ele>48.2034</ele>
        <time>2013-04-12T19:04:28Z</time>
      </trkpt>
      <trkpt lat="59.9825847" lon="17.7382339">
        <ele>48.2034</ele>
        <time>2013-04-12T19:04:29Z</time>
      </trkpt>
      <trkpt lat="59.98256" lon="17.738237">
        <ele>48.2034</ele>
        <time>2013-04-12T19:04:30Z</time>
      </trkpt>
      <trkpt lat="59.9825374" lon="17.7382368">
        <ele>48.2034</ele>
        <time>2013-04-12T19:04:31Z</time>
      </trkpt>
      <trkpt lat="59.9825149" lon="17.7382365">
        <ele>48.2034</ele>
        <time>2013-04-12T19:04:32Z</time>
      </trkpt>
      <trkpt lat="59.9824915" lon="17.7382332">
        <ele>48.2034</ele>
        <time>2013-04-12T19:04:33Z</time>
      </trkpt>
      <trkpt lat="59.9824513" lon="17.7382488">
        <ele>48.2034</ele>
        <time>2013-04-12T19:04:34Z</time>
      </trkpt>
      <trkpt lat="59.9824174" lon="17.7382634">
        <ele>47.2418</ele>
        <time>2013-04-12T19:04:35Z</time>
      </trkpt>
      <trkpt lat="59.9823787" lon="17.7382897">
        <ele>47.2418</ele>
        <time>2013-04-12T19:04:36Z</time>
      </trkpt>
      <trkpt lat="59.9823513" lon="17.7383011">
        <ele>47.2418</ele>
        <time>2013-04-12T19:04:37Z</time>
      </trkpt>
      <trkpt lat="59.9823285" lon="17.7383044">
        <ele>47.2418</ele>
        <time>2013-04-12T19:04:38Z</time>
      </trkpt>
      <trkpt lat="59.9823066" lon="17.7383104">
        <ele>47.7225</ele>
        <time>2013-04-12T19:04:39Z</time>
      </trkpt>
      <trkpt lat="59.9822805" lon="17.738322">
        <ele>48.2034</ele>
        <time>2013-04-12T19:04:40Z</time>
      </trkpt>
      <trkpt lat="59.98226" lon="17.738328">
        <ele>48.684</ele>
        <time>2013-04-12T19:04:41Z</time>
      </trkpt>
      <trkpt lat="59.9822337" lon="17.7383316">
        <ele>49.6453</ele>
        <time>2013-04-12T19:04:42Z</time>
      </trkpt>
      <trkpt lat="59.9822092" lon="17.7383349">
        <ele>49.6453</ele>
        <time>2013-04-12T19:04:43Z</time>
      </trkpt>
      <trkpt lat="59.982191" lon="17.7383348">
        <ele>51.0872</ele>
        <time>2013-04-12T19:04:44Z</time>
      </trkpt>
      <trkpt lat="59.982171" lon="17.7383344">
        <ele>52.0486</ele>
        <time>2013-04-12T19:04:45Z</time>
      </trkpt>
      <trkpt lat="59.9821478" lon="17.7383499">
        <ele>53.0098</ele>
        <time>2013-04-12T19:04:46Z</time>
      </trkpt>
      <trkpt lat="59.9821225" lon="17.7383618">
        <ele>53.0098</ele>
        <time>2013-04-12T19:04:47Z</time>
      </trkpt>
      <trkpt lat="59.9821068" lon="17.7383582">
        <ele>53.0098</ele>
        <time>2013-04-12T19:04:48Z</time>
      </trkpt>
      <trkpt lat="59.9820896" lon="17.7383587">
        <ele>52.0486</ele>
        <time>2013-04-12T19:04:49Z</time>
      </trkpt>
      <trkpt lat="59.982067" lon="17.7383607">
        <ele>52.5292</ele>
        <time>2013-04-12T19:04:50Z</time>
      </trkpt>
      <trkpt lat="59.9820395" lon="17.7383711">
        <ele>53.9712</ele>
        <time>2013-04-12T19:04:51Z</time>
      </trkpt>
      <trkpt lat="59.982015" lon="17.7383924">
        <ele>55.4131</ele>
        <time>2013-04-12T19:04:52Z</time>
      </trkpt>
      <trkpt lat="59.9819898" lon="17.7384046">
        <ele>55.8938</ele>
        <time>2013-04-12T19:04:53Z</time>
      </trkpt>
      <trkpt lat="59.9819649" lon="17.7384162">
        <ele>57.3358</ele>
        <time>2013-04-12T19:04:54Z</time>
      </trkpt>
      <trkpt lat="59.9819391" lon="17.7384152">
        <ele>57.3358</ele>
        <time>2013-04-12T19:04:55Z</time>
      </trkpt>
      <trkpt lat="59.9819141" lon="17.7384183">
        <ele>56.8551</ele>
        <time>2013-04-12T19:04:56Z</time>
      </trkpt>
      <trkpt lat="59.9818947" lon="17.7384178">
        <ele>56.8551</ele>
        <time>2013-04-12T19:04:57Z</time>
      </trkpt>
      <trkpt lat="59.9818784" lon="17.7384177">
        <ele>56.8551</ele>
        <time>2013-04-12T19:04:58Z</time>
      </trkpt>
      <trkpt lat="59.981854" lon="17.7384188">
        <ele>55.8938</ele>
        <time>2013-04-12T19:04:59Z</time>
      </trkpt>
      <trkpt lat="59.9818331" lon="17.7384201">
        <ele>55.8938</ele>
        <time>2013-04-12T19:05:00Z</time>
      </trkpt>
      <trkpt lat="59.9818111" lon="17.7384302">
        <ele>54.9324</ele>
        <time>2013-04-12T19:05:01Z</time>
      </trkpt>
      <trkpt lat="59.9817888" lon="17.7384437">
        <ele>55.8938</ele>
        <time>2013-04-12T19:05:02Z</time>
      </trkpt>
      <trkpt lat="59.981765" lon="17.738458">
        <ele>55.8938</ele>
        <time>2013-04-12T19:05:03Z</time>
      </trkpt>
      <trkpt lat="59.9817406" lon="17.738468">
        <ele>55.4131</ele>
        <time>2013-04-12T19:05:04Z</time>
      </trkpt>
      <trkpt lat="59.9817162" lon="17.7384815">
        <ele>55.4131</ele>
        <time>2013-04-12T19:05:05Z</time>
      </trkpt>
      <trkpt lat="59.9816888" lon="17.7384973">
        <ele>55.4131</ele>
        <time>2013-04-12T19:05:06Z</time>
      </trkpt>
      <trkpt lat="59.9816656" lon="17.7385011">
        <ele>54.9324</ele>
        <time>2013-04-12T19:05:07Z</time>
      </trkpt>
      <trkpt lat="59.9816467" lon="17.7385022">
        <ele>54.4518</ele>
        <time>2013-04-12T19:05:08Z</time>
      </trkpt>
      <trkpt lat="59.9816245" lon="17.7384991">
        <ele>54.4518</ele>
        <time>2013-04-12T19:05:09Z</time>
      </trkpt>
      <trkpt lat="59.9816023" lon="17.7385035">
        <ele>54.4518</ele>
        <time>2013-04-12T19:05:10Z</time>
      </trkpt>
      <trkpt lat="59.9815785" lon="17.7385193">
        <ele>54.4518</ele>
        <time>2013-04-12T19:05:11Z</time>
      </trkpt>
      <trkpt lat="59.9815514" lon="17.7385279">
        <ele>53.9712</ele>
        <time>2013-04-12T19:05:12Z</time>
      </trkpt>
      <trkpt lat="59.981522" lon="17.7385447">
        <ele>53.9712</ele>
        <time>2013-04-12T19:05:13Z</time>
      </trkpt>
      <trkpt lat="59.9814954" lon="17.7385508">
        <ele>53.0098</ele>
        <time>2013-04-12T19:05:14Z</time>
      </trkpt>
      <trkpt lat="59.9814733" lon="17.7385587">
        <ele>52.5292</ele>
        <time>2013-04-12T19:05:15Z</time>
      </trkpt>
      <trkpt lat="59.9814462" lon="17.7385569">
        <ele>51.5679</ele>
        <time>2013-04-12T19:05:16Z</time>
      </trkpt>
      <trkpt lat="59.9814209" lon="17.7385587">
        <ele>50.6066</ele>
        <time>2013-04-12T19:05:17Z</time>
      </trkpt>
      <trkpt lat="59.9813951" lon="17.7385675">
        <ele>50.6066</ele>
        <time>2013-04-12T19:05:18Z</time>
      </trkpt>
      <trkpt lat="59.9813679" lon="17.7385823">
        <ele>50.126</ele>
        <time>2013-04-12T19:05:19Z</time>
      </trkpt>
      <trkpt lat="59.9813293" lon="17.7386005">
        <ele>49.6453</ele>
        <time>2013-04-12T19:05:20Z</time>
      </trkpt>
      <trkpt lat="59.9813049" lon="17.7386046">
        <ele>49.6453</ele>
        <time>2013-04-12T19:05:21Z</time>
      </trkpt>
      <trkpt lat="59.9812764" lon="17.7386102">
        <ele>49.6453</ele>
        <time>2013-04-12T19:05:22Z</time>
      </trkpt>
      <trkpt lat="59.9812474" lon="17.7386198">
        <ele>49.6453</ele>
        <time>2013-04-12T19:05:23Z</time>
      </trkpt>
      <trkpt lat="59.9812164" lon="17.738626">
        <ele>49.6453</ele>
        <time>2013-04-12T19:05:24Z</time>
      </trkpt>
      <trkpt lat="59.9811823" lon="17.7386287">
        <ele>49.6453</ele>
        <time>2013-04-12T19:05:25Z</time>
      </trkpt>
      <trkpt lat="59.9811533" lon="17.7386436">
        <ele>49.6453</ele>
        <time>2013-04-12T19:05:26Z</time>
      </trkpt>
      <trkpt lat="59.981127" lon="17.7386577">
        <ele>50.126</ele>
        <time>2013-04-12T19:05:27Z</time>
      </trkpt>
      <trkpt lat="59.981104" lon="17.7386694">
        <ele>50.6066</ele>
        <time>2013-04-12T19:05:28Z</time>
      </trkpt>
      <trkpt lat="59.9810745" lon="17.7386762">
        <ele>50.6066</ele>
        <time>2013-04-12T19:05:29Z</time>
      </trkpt>
      <trkpt lat="59.9810462" lon="17.7386848">
        <ele>50.6066</ele>
        <time>2013-04-12T19:05:30Z</time>
      </trkpt>
      <trkpt lat="59.9810193" lon="17.738694">
        <ele>50.6066</ele>
        <time>2013-04-12T19:05:31Z</time>
      </trkpt>
      <trkpt lat="59.9809939" lon="17.7386943">
        <ele>50.6066</ele>
        <time>2013-04-12T19:05:32Z</time>
      </trkpt>
      <trkpt lat="59.9809672" lon="17.7387073">
        <ele>50.126</ele>
        <time>2013-04-12T19:05:33Z</time>
      </trkpt>
      <trkpt lat="59.98094" lon="17.7387152">
        <ele>49.6453</ele>
        <time>2013-04-12T19:05:34Z</time>
      </trkpt>
      <trkpt lat="59.9809107" lon="17.7387259">
        <ele>49.1646</ele>
        <time>2013-04-12T19:05:35Z</time>
      </trkpt>
      <trkpt lat="59.9808764" lon="17.7387436">
        <ele>48.684</ele>
        <time>2013-04-12T19:05:36Z</time>
      </trkpt>
      <trkpt lat="59.9808429" lon="17.7387632">
        <ele>48.2034</ele>
        <time>2013-04-12T19:05:37Z</time>
      </trkpt>
      <trkpt lat="59.9808114" lon="17.7387802">
        <ele>48.2034</ele>
        <time>2013-04-12T19:05:38Z</time>
      </trkpt>
      <trkpt lat="59.9807641" lon="17.7388182">
        <ele>47.7225</ele>
        <time>2013-04-12T19:05:39Z</time>
      </trkpt>
      <trkpt lat="59.980735" lon="17.7388309">
        <ele>48.2034</ele>
        <time>2013-04-12T19:05:40Z</time>
      </trkpt>
      <trkpt lat="59.9807035" lon="17.7388419">
        <ele>48.2034</ele>
        <time>2013-04-12T19:05:41Z</time>
      </trkpt>
      <trkpt lat="59.9806739" lon="17.7388527">
        <ele>47.7225</ele>
        <time>2013-04-12T19:05:42Z</time>
      </trkpt>
      <trkpt lat="59.9806485" lon="17.7388575">
        <ele>47.7225</ele>
        <time>2013-04-12T19:05:43Z</time>
      </trkpt>
      <trkpt lat="59.9806242" lon="17.738862">
        <ele>47.2418</ele>
        <time>2013-04-12T19:05:44Z</time>
      </trkpt>
      <trkpt lat="59.9805994" lon="17.738873">
        <ele>47.7225</ele>
        <time>2013-04-12T19:05:45Z</time>
      </trkpt>
      <trkpt lat="59.9805725" lon="17.7388829">
        <ele>48.2034</ele>
        <time>2013-04-12T19:05:46Z</time>
      </trkpt>
      <trkpt lat="59.9805461" lon="17.7388824">
        <ele>48.2034</ele>
        <time>2013-04-12T19:05:47Z</time>
      </trkpt>
      <trkpt lat="59.9805207" lon="17.7388932">
        <ele>47.7225</ele>
        <time>2013-04-12T19:05:48Z</time>
      </trkpt>
      <trkpt lat="59.9804968" lon="17.738898">
        <ele>48.2034</ele>
        <time>2013-04-12T19:05:49Z</time>
      </trkpt>
      <trkpt lat="59.980473" lon="17.7389113">
        <ele>48.2034</ele>
        <time>2013-04-12T19:05:50Z</time>
      </trkpt>
      <trkpt lat="59.9804497" lon="17.7389227">
        <ele>48.2034</ele>
        <time>2013-04-12T19:05:51Z</time>
      </trkpt>
      <trkpt lat="59.9804252" lon="17.7389294">
        <ele>48.2034</ele>
        <time>2013-04-12T19:05:52Z</time>
      </trkpt>
      <trkpt lat="59.9803985" lon="17.7389394">
        <ele>48.2034</ele>
        <time>2013-04-12T19:05:53Z</time>
      </trkpt>
      <trkpt lat="59.9803744" lon="17.7389442">
        <ele>48.2034</ele>
        <time>2013-04-12T19:05:54Z</time>
      </trkpt>
      <trkpt lat="59.9803532" lon="17.7389361">
        <ele>47.7225</ele>
        <time>2013-04-12T19:05:55Z</time>
      </trkpt>
      <trkpt lat="59.9803284" lon="17.7389358">
        <ele>47.2418</ele>
        <time>2013-04-12T19:05:56Z</time>
      </trkpt>
      <trkpt lat="59.9803031" lon="17.7389352">
        <ele>46.7612</ele>
        <time>2013-04-12T19:05:57Z</time>
      </trkpt>
      <trkpt lat="59.9802813" lon="17.7389341">
        <ele>45.7999</ele>
        <time>2013-04-12T19:05:58Z</time>
      </trkpt>
      <trkpt lat="59.9802605" lon="17.7389312">
        <ele>45.3192</ele>
        <time>2013-04-12T19:05:59Z</time>
      </trkpt>
      <trkpt lat="59.9802345" lon="17.7389311">
        <ele>44.8386</ele>
        <time>2013-04-12T19:06:00Z</time>
      </trkpt>
      <trkpt lat="59.980211" lon="17.7389196">
        <ele>44.358</ele>
        <time>2013-04-12T19:06:01Z</time>
      </trkpt>
      <trkpt lat="59.9801929" lon="17.738913">
        <ele>44.358</ele>
        <time>2013-04-12T19:06:02Z</time>
      </trkpt>
      <trkpt lat="59.9801719" lon="17.7389045">
        <ele>43.8773</ele>
        <time>2013-04-12T19:06:03Z</time>
      </trkpt>
      <trkpt lat="59.9801451" lon="17.738902">
        <ele>43.3966</ele>
        <time>2013-04-12T19:06:04Z</time>
      </trkpt>
      <trkpt lat="59.9801147" lon="17.7389">
        <ele>43.3966</ele>
        <time>2013-04-12T19:06:05Z</time>
      </trkpt>
      <trkpt lat="59.9800824" lon="17.7388855">
        <ele>43.3966</ele>
        <time>2013-04-12T19:06:06Z</time>
      </trkpt>
      <trkpt lat="59.980056" lon="17.7388768">
        <ele>43.3966</ele>
        <time>2013-04-12T19:06:07Z</time>
      </trkpt>
      <trkpt lat="59.9800311" lon="17.7388761">
        <ele>43.3966</ele>
        <time>2013-04-12T19:06:08Z</time>
      </trkpt>
      <trkpt lat="59.98001" lon="17.738869">
        <ele>42.916</ele>
        <time>2013-04-12T19:06:09Z</time>
      </trkpt>
      <trkpt lat="59.9799869" lon="17.7388622">
        <ele>42.4354</ele>
        <time>2013-04-12T19:06:10Z</time>
      </trkpt>
      <trkpt lat="59.979961" lon="17.738858">
        <ele>42.916</ele>
        <time>2013-04-12T19:06:11Z</time>
      </trkpt>
      <trkpt lat="59.9799377" lon="17.738856">
        <ele>42.916</ele>
        <time>2013-04-12T19:06:12Z</time>
      </trkpt>
      <trkpt lat="59.9799129" lon="17.7388498">
        <ele>42.916</ele>
        <time>2013-04-12T19:06:13Z</time>
      </trkpt>
      <trkpt lat="59.9798893" lon="17.7388509">
        <ele>42.4354</ele>
        <time>2013-04-12T19:06:14Z</time>
      </trkpt>
      <trkpt lat="59.979868" lon="17.7388627">
        <ele>41.474</ele>
        <time>2013-04-12T19:06:15Z</time>
      </trkpt>
      <trkpt lat="59.9798443" lon="17.7388699">
        <ele>41.9547</ele>
        <time>2013-04-12T19:06:16Z</time>
      </trkpt>
      <trkpt lat="59.9798191" lon="17.7388667">
        <ele>41.9547</ele>
        <time>2013-04-12T19:06:17Z</time>
      </trkpt>
      <trkpt lat="59.9797968" lon="17.7388669">
        <ele>41.9547</ele>
        <time>2013-04-12T19:06:18Z</time>
      </trkpt>
      <trkpt lat="59.9797721" lon="17.7388726">
        <ele>41.9547</ele>
        <time>2013-04-12T19:06:19Z</time>
      </trkpt>
      <trkpt lat="59.9797476" lon="17.7388794">
        <ele>41.9547</ele>
        <time>2013-04-12T19:06:20Z</time>
      </trkpt>
      <trkpt lat="59.9797254" lon="17.7388897">
        <ele>40.9934</ele>
        <time>2013-04-12T19:06:21Z</time>
      </trkpt>
      <trkpt lat="59.9797012" lon="17.7389024">
        <ele>40.9934</ele>
        <time>2013-04-12T19:06:22Z</time>
      </trkpt>
      <trkpt lat="59.9796782" lon="17.7389094">
        <ele>40.5128</ele>
        <time>2013-04-12T19:06:23Z</time>
      </trkpt>
      <trkpt lat="59.9796544" lon="17.7389245">
        <ele>40.5128</ele>
        <time>2013-04-12T19:06:24Z</time>
      </trkpt>
      <trkpt lat="59.9796305" lon="17.7389385">
        <ele>40.5128</ele>
        <time>2013-04-12T19:06:25Z</time>
      </trkpt>
      <trkpt lat="59.9796057" lon="17.7389522">
        <ele>40.5128</ele>
        <time>2013-04-12T19:06:26Z</time>
      </trkpt>
      <trkpt lat="59.979582" lon="17.7389653">
        <ele>40.9934</ele>
        <time>2013-04-12T19:06:27Z</time>
      </trkpt>
      <trkpt lat="59.9795546" lon="17.7389796">
        <ele>40.9934</ele>
        <time>2013-04-12T19:06:28Z</time>
      </trkpt>
      <trkpt lat="59.9795281" lon="17.7389874">
        <ele>40.5128</ele>
        <time>2013-04-12T19:06:29Z</time>
      </trkpt>
      <trkpt lat="59.9795016" lon="17.7390011">
        <ele>40.9934</ele>
        <time>2013-04-12T19:06:30Z</time>
      </trkpt>
      <trkpt lat="59.9794779" lon="17.7390114">
        <ele>40.5128</ele>
        <time>2013-04-12T19:06:31Z</time>
      </trkpt>
      <trkpt lat="59.9794531" lon="17.7390238">
        <ele>40.5128</ele>
        <time>2013-04-12T19:06:32Z</time>
      </trkpt>
      <trkpt lat="59.9794234" lon="17.7390449">
        <ele>40.0321</ele>
        <time>2013-04-12T19:06:33Z</time>
      </trkpt>
      <trkpt lat="59.9793935" lon="17.7390564">
        <ele>39.5513</ele>
        <time>2013-04-12T19:06:34Z</time>
      </trkpt>
      <trkpt lat="59.9793634" lon="17.7390766">
        <ele>39.5513</ele>
        <time>2013-04-12T19:06:35Z</time>
      </trkpt>
      <trkpt lat="59.9793394" lon="17.7390935">
        <ele>39.0707</ele>
        <time>2013-04-12T19:06:36Z</time>
      </trkpt>
      <trkpt lat="59.9793163" lon="17.7391104">
        <ele>38.5901</ele>
        <time>2013-04-12T19:06:37Z</time>
      </trkpt>
      <trkpt lat="59.9792903" lon="17.7391303">
        <ele>38.5901</ele>
        <time>2013-04-12T19:06:38Z</time>
      </trkpt>
      <trkpt lat="59.9792644" lon="17.7391461">
        <ele>38.1094</ele>
        <time>2013-04-12T19:06:39Z</time>
      </trkpt>
      <trkpt lat="59.9792396" lon="17.7391643">
        <ele>38.1094</ele>
        <time>2013-04-12T19:06:40Z</time>
      </trkpt>
      <trkpt lat="59.9792141" lon="17.7391812">
        <ele>38.1094</ele>
        <time>2013-04-12T19:06:41Z</time>
      </trkpt>
      <trkpt lat="59.9791892" lon="17.7391932">
        <ele>37.6287</ele>
        <time>2013-04-12T19:06:42Z</time>
      </trkpt>
      <trkpt lat="59.9791641" lon="17.739212">
        <ele>37.6287</ele>
        <time>2013-04-12T19:06:43Z</time>
      </trkpt>
      <trkpt lat="59.9791448" lon="17.7392254">
        <ele>37.6287</ele>
        <time>2013-04-12T19:06:44Z</time>
      </trkpt>
      <trkpt lat="59.9791203" lon="17.7392378">
        <ele>37.1481</ele>
        <time>2013-04-12T19:06:45Z</time>
      </trkpt>
      <trkpt lat="59.9790842" lon="17.7392656">
        <ele>36.1868</ele>
        <time>2013-04-12T19:06:46Z</time>
      </trkpt>
      <trkpt lat="59.9790501" lon="17.7392911">
        <ele>36.1868</ele>
        <time>2013-04-12T19:06:47Z</time>
      </trkpt>
      <trkpt lat="59.9790217" lon="17.7393062">
        <ele>36.1868</ele>
        <time>2013-04-12T19:06:48Z</time>
      </trkpt>
      <trkpt lat="59.9789978" lon="17.7393149">
        <ele>36.1868</ele>
        <time>2013-04-12T19:06:49Z</time>
      </trkpt>
      <trkpt lat="59.9789739" lon="17.739321">
        <ele>36.1868</ele>
        <time>2013-04-12T19:06:50Z</time>
      </trkpt>
      <trkpt lat="59.9789536" lon="17.7393228">
        <ele>35.7061</ele>
        <time>2013-04-12T19:06:51Z</time>
      </trkpt>
      <trkpt lat="59.9789331" lon="17.7393296">
        <ele>35.7061</ele>
        <time>2013-04-12T19:06:52Z</time>
      </trkpt>
      <trkpt lat="59.9789132" lon="17.7393382">
        <ele>35.7061</ele>
        <time>2013-04-12T19:06:53Z</time>
      </trkpt>
      <trkpt lat="59.9788915" lon="17.7393433">
        <ele>35.7061</ele>
        <time>2013-04-12T19:06:54Z</time>
      </trkpt>
      <trkpt lat="59.9788686" lon="17.7393517">
        <ele>36.1868</ele>
        <time>2013-04-12T19:06:55Z</time>
      </trkpt>
      <trkpt lat="59.9788442" lon="17.739363">
        <ele>36.6675</ele>
        <time>2013-04-12T19:06:56Z</time>
      </trkpt>
      <trkpt lat="59.978818" lon="17.7393744">
        <ele>36.6675</ele>
        <time>2013-04-12T19:06:57Z</time>
      </trkpt>
      <trkpt lat="59.978791" lon="17.7393855">
        <ele>36.6675</ele>
        <time>2013-04-12T19:06:58Z</time>
      </trkpt>
      <trkpt lat="59.9787652" lon="17.7393931">
        <ele>36.6675</ele>
        <time>2013-04-12T19:06:59Z</time>
      </trkpt>
      <trkpt lat="59.9787414" lon="17.7393971">
        <ele>36.6675</ele>
        <time>2013-04-12T19:07:00Z</time>
      </trkpt>
      <trkpt lat="59.9787171" lon="17.7394056">
        <ele>36.6675</ele>
        <time>2013-04-12T19:07:01Z</time>
      </trkpt>
      <trkpt lat="59.9786936" lon="17.7394082">
        <ele>36.6675</ele>
        <time>2013-04-12T19:07:02Z</time>
      </trkpt>
      <trkpt lat="59.9786697" lon="17.739404">
        <ele>36.6675</ele>
        <time>2013-04-12T19:07:03Z</time>
      </trkpt>
      <trkpt lat="59.9786432" lon="17.7394052">
        <ele>37.1481</ele>
        <time>2013-04-12T19:07:04Z</time>
      </trkpt>
      <trkpt lat="59.9786201" lon="17.7394071">
        <ele>37.1481</ele>
        <time>2013-04-12T19:07:05Z</time>
      </trkpt>
      <trkpt lat="59.9785938" lon="17.7394013">
        <ele>36.6675</ele>
        <time>2013-04-12T19:07:06Z</time>
      </trkpt>
      <trkpt lat="59.9785712" lon="17.7393911">
        <ele>36.6675</ele>
        <time>2013-04-12T19:07:07Z</time>
      </trkpt>
      <trkpt lat="59.9785485" lon="17.739387">
        <ele>36.1868</ele>
        <time>2013-04-12T19:07:08Z</time>
      </trkpt>
      <trkpt lat="59.9785225" lon="17.7393909">
        <ele>36.1868</ele>
        <time>2013-04-12T19:07:09Z</time>
      </trkpt>
      <trkpt lat="59.9784972" lon="17.7393963">
        <ele>35.2255</ele>
        <time>2013-04-12T19:07:10Z</time>
      </trkpt>
      <trkpt lat="59.97847" lon="17.7393921">
        <ele>35.2255</ele>
        <time>2013-04-12T19:07:11Z</time>
      </trkpt>
      <trkpt lat="59.9784412" lon="17.7393894">
        <ele>35.7061</ele>
        <time>2013-04-12T19:07:12Z</time>
      </trkpt>
      <trkpt lat="59.9784208" lon="17.7393823">
        <ele>35.2255</ele>
        <time>2013-04-12T19:07:13Z</time>
      </trkpt>
      <trkpt lat="59.9783994" lon="17.7393715">
        <ele>35.2255</ele>
        <time>2013-04-12T19:07:14Z</time>
      </trkpt>
      <trkpt lat="59.97838" lon="17.7393739">
        <ele>35.2255</ele>
        <time>2013-04-12T19:07:15Z</time>
      </trkpt>
      <trkpt lat="59.9783602" lon="17.7393682">
        <ele>35.2255</ele>
        <time>2013-04-12T19:07:16Z</time>
      </trkpt>
      <trkpt lat="59.9783392" lon="17.7393636">
        <ele>35.2255</ele>
        <time>2013-04-12T19:07:17Z</time>
      </trkpt>
      <trkpt lat="59.9783134" lon="17.7393694">
        <ele>35.2255</ele>
        <time>2013-04-12T19:07:18Z</time>
      </trkpt>
      <trkpt lat="59.9782897" lon="17.7393743">
        <ele>35.2255</ele>
        <time>2013-04-12T19:07:19Z</time>
      </trkpt>
      <trkpt lat="59.9782672" lon="17.7393719">
        <ele>35.7061</ele>
        <time>2013-04-12T19:07:20Z</time>
      </trkpt>
      <trkpt lat="59.9782434" lon="17.7393694">
        <ele>35.7061</ele>
        <time>2013-04-12T19:07:21Z</time>
      </trkpt>
      <trkpt lat="59.9782169" lon="17.7393643">
        <ele>35.7061</ele>
        <time>2013-04-12T19:07:22Z</time>
      </trkpt>
      <trkpt lat="59.9781894" lon="17.7393539">
        <ele>35.7061</ele>
        <time>2013-04-12T19:07:23Z</time>
      </trkpt>
      <trkpt lat="59.9781611" lon="17.7393455">
        <ele>35.7061</ele>
        <time>2013-04-12T19:07:24Z</time>
      </trkpt>
      <trkpt lat="59.9781314" lon="17.7393498">
        <ele>36.1868</ele>
        <time>2013-04-12T19:07:25Z</time>
      </trkpt>
      <trkpt lat="59.9780983" lon="17.7393441">
        <ele>36.1868</ele>
        <time>2013-04-12T19:07:26Z</time>
      </trkpt>
      <trkpt lat="59.9780731" lon="17.7393351">
        <ele>36.1868</ele>
        <time>2013-04-12T19:07:27Z</time>
      </trkpt>
      <trkpt lat="59.978049" lon="17.7393308">
        <ele>36.6675</ele>
        <time>2013-04-12T19:07:28Z</time>
      </trkpt>
      <trkpt lat="59.9780208" lon="17.7393196">
        <ele>36.6675</ele>
        <time>2013-04-12T19:07:29Z</time>
      </trkpt>
      <trkpt lat="59.9779892" lon="17.7393036">
        <ele>37.1481</ele>
        <time>2013-04-12T19:07:30Z</time>
      </trkpt>
      <trkpt lat="59.9779637" lon="17.7392912">
        <ele>37.6287</ele>
        <time>2013-04-12T19:07:31Z</time>
      </trkpt>
      <trkpt lat="59.9779348" lon="17.7392622">
        <ele>37.6287</ele>
        <time>2013-04-12T19:07:32Z</time>
      </trkpt>
      <trkpt lat="59.9779092" lon="17.7392454">
        <ele>37.6287</ele>
        <time>2013-04-12T19:07:33Z</time>
      </trkpt>
      <trkpt lat="59.9778857" lon="17.7392389">
        <ele>37.6287</ele>
        <time>2013-04-12T19:07:34Z</time>
      </trkpt>
      <trkpt lat="59.9778631" lon="17.7392282">
        <ele>37.6287</ele>
        <time>2013-04-12T19:07:35Z</time>
      </trkpt>
      <trkpt lat="59.9778358" lon="17.7392125">
        <ele>37.1481</ele>
        <time>2013-04-12T19:07:36Z</time>
      </trkpt>
      <trkpt lat="59.9778123" lon="17.7392004">
        <ele>36.6675</ele>
        <time>2013-04-12T19:07:37Z</time>
      </trkpt>
      <trkpt lat="59.9777944" lon="17.7391895">
        <ele>36.1868</ele>
        <time>2013-04-12T19:07:38Z</time>
      </trkpt>
      <trkpt lat="59.9777751" lon="17.7391814">
        <ele>35.7061</ele>
        <time>2013-04-12T19:07:39Z</time>
      </trkpt>
      <trkpt lat="59.9777549" lon="17.7391733">
        <ele>35.7061</ele>
        <time>2013-04-12T19:07:40Z</time>
      </trkpt>
      <trkpt lat="59.9777341" lon="17.7391658">
        <ele>35.7061</ele>
        <time>2013-04-12T19:07:41Z</time>
      </trkpt>
      <trkpt lat="59.9777155" lon="17.7391607">
        <ele>35.2255</ele>
        <time>2013-04-12T19:07:42Z</time>
      </trkpt>
      <trkpt lat="59.9776958" lon="17.7391563">
        <ele>35.7061</ele>
        <time>2013-04-12T19:07:43Z</time>
      </trkpt>
      <trkpt lat="59.9776736" lon="17.7391471">
        <ele>35.7061</ele>
        <time>2013-04-12T19:07:44Z</time>
      </trkpt>
      <trkpt lat="59.9776497" lon="17.7391294">
        <ele>35.2255</ele>
        <time>2013-04-12T19:07:45Z</time>
      </trkpt>
      <trkpt lat="59.9776241" lon="17.7391031">
        <ele>35.2255</ele>
        <time>2013-04-12T19:07:46Z</time>
      </trkpt>
      <trkpt lat="59.9776008" lon="17.7390782">
        <ele>35.2255</ele>
        <time>2013-04-12T19:07:47Z</time>
      </trkpt>
      <trkpt lat="59.9775825" lon="17.7390747">
        <ele>34.7449</ele>
        <time>2013-04-12T19:07:48Z</time>
      </trkpt>
      <trkpt lat="59.9775605" lon="17.739077">
        <ele>34.2642</ele>
        <time>2013-04-12T19:07:49Z</time>
      </trkpt>
      <trkpt lat="59.9775405" lon="17.7390816">
        <ele>34.2642</ele>
        <time>2013-04-12T19:07:50Z</time>
      </trkpt>
      <trkpt lat="59.9775158" lon="17.7390731">
        <ele>33.7834</ele>
        <time>2013-04-12T19:07:51Z</time>
      </trkpt>
      <trkpt lat="59.9774865" lon="17.73906">
        <ele>33.7834</ele>
        <time>2013-04-12T19:07:52Z</time>
      </trkpt>
      <trkpt lat="59.9774642" lon="17.7390615">
        <ele>33.3029</ele>
        <time>2013-04-12T19:07:53Z</time>
      </trkpt>
      <trkpt lat="59.9774446" lon="17.7390803">
        <ele>32.8223</ele>
        <time>2013-04-12T19:07:54Z</time>
      </trkpt>
      <trkpt lat="59.9774239" lon="17.7391003">
        <ele>32.8223</ele>
        <time>2013-04-12T19:07:55Z</time>
      </trkpt>
      <trkpt lat="59.9774003" lon="17.7391133">
        <ele>32.8223</ele>
        <time>2013-04-12T19:07:56Z</time>
      </trkpt>
      <trkpt lat="59.9773774" lon="17.7391319">
        <ele>32.3416</ele>
        <time>2013-04-12T19:07:57Z</time>
      </trkpt>
      <trkpt lat="59.9773535" lon="17.7391481">
        <ele>32.3416</ele>
        <time>2013-04-12T19:07:58Z</time>
      </trkpt>
      <trkpt lat="59.9773276" lon="17.739162">
        <ele>32.3416</ele>
        <time>2013-04-12T19:07:59Z</time>
      </trkpt>
      <trkpt lat="59.9773043" lon="17.7391725">
        <ele>32.3416</ele>
        <time>2013-04-12T19:08:00Z</time>
      </trkpt>
      <trkpt lat="59.9772742" lon="17.7391972">
        <ele>32.3416</ele>
        <time>2013-04-12T19:08:01Z</time>
      </trkpt>
      <trkpt lat="59.9772494" lon="17.7392125">
        <ele>32.3416</ele>
        <time>2013-04-12T19:08:02Z</time>
      </trkpt>
      <trkpt lat="59.9772249" lon="17.739229">
        <ele>31.8607</ele>
        <time>2013-04-12T19:08:03Z</time>
      </trkpt>
      <trkpt lat="59.9772022" lon="17.7392451">
        <ele>31.8607</ele>
        <time>2013-04-12T19:08:04Z</time>
      </trkpt>
      <trkpt lat="59.9771824" lon="17.7392588">
        <ele>31.8607</ele>
        <time>2013-04-12T19:08:05Z</time>
      </trkpt>
      <trkpt lat="59.977164" lon="17.7392745">
        <ele>31.8607</ele>
        <time>2013-04-12T19:08:06Z</time>
      </trkpt>
      <trkpt lat="59.9771443" lon="17.739293">
        <ele>31.3801</ele>
        <time>2013-04-12T19:08:07Z</time>
      </trkpt>
      <trkpt lat="59.9771215" lon="17.7393101">
        <ele>31.8607</ele>
        <time>2013-04-12T19:08:08Z</time>
      </trkpt>
      <trkpt lat="59.9770982" lon="17.7393239">
        <ele>31.8607</ele>
        <time>2013-04-12T19:08:09Z</time>
      </trkpt>
      <trkpt lat="59.9770738" lon="17.7393346">
        <ele>31.8607</ele>
        <time>2013-04-12T19:08:10Z</time>
      </trkpt>
      <trkpt lat="59.9770525" lon="17.7393518">
        <ele>32.3416</ele>
        <time>2013-04-12T19:08:11Z</time>
      </trkpt>
      <trkpt lat="59.9770339" lon="17.7393705">
        <ele>32.8223</ele>
        <time>2013-04-12T19:08:12Z</time>
      </trkpt>
      <trkpt lat="59.9770172" lon="17.739378">
        <ele>32.3416</ele>
        <time>2013-04-12T19:08:13Z</time>
      </trkpt>
      <trkpt lat="59.9769988" lon="17.7393844">
        <ele>32.3416</ele>
        <time>2013-04-12T19:08:14Z</time>
      </trkpt>
      <trkpt lat="59.9769788" lon="17.7393978">
        <ele>32.3416</ele>
        <time>2013-04-12T19:08:15Z</time>
      </trkpt>
      <trkpt lat="59.9769569" lon="17.7394071">
        <ele>32.3416</ele>
        <time>2013-04-12T19:08:16Z</time>
      </trkpt>
      <trkpt lat="59.9769355" lon="17.7394137">
        <ele>31.8607</ele>
        <time>2013-04-12T19:08:17Z</time>
      </trkpt>
      <trkpt lat="59.9769173" lon="17.7394225">
        <ele>31.3801</ele>
        <time>2013-04-12T19:08:18Z</time>
      </trkpt>
      <trkpt lat="59.9768936" lon="17.7394277">
        <ele>31.3801</ele>
        <time>2013-04-12T19:08:19Z</time>
      </trkpt>
      <trkpt lat="59.9768704" lon="17.7394383">
        <ele>31.3801</ele>
        <time>2013-04-12T19:08:20Z</time>
      </trkpt>
      <trkpt lat="59.9768465" lon="17.739447">
        <ele>31.3801</ele>
        <time>2013-04-12T19:08:21Z</time>
      </trkpt>
      <trkpt lat="59.9768211" lon="17.7394515">
        <ele>31.3801</ele>
        <time>2013-04-12T19:08:22Z</time>
      </trkpt>
      <trkpt lat="59.9767973" lon="17.739467">
        <ele>31.3801</ele>
        <time>2013-04-12T19:08:23Z</time>
      </trkpt>
      <trkpt lat="59.9767703" lon="17.7394818">
        <ele>31.8607</ele>
        <time>2013-04-12T19:08:24Z</time>
      </trkpt>
      <trkpt lat="59.976744" lon="17.7394948">
        <ele>31.8607</ele>
        <time>2013-04-12T19:08:25Z</time>
      </trkpt>
      <trkpt lat="59.9767175" lon="17.7395034">
        <ele>31.3801</ele>
        <time>2013-04-12T19:08:26Z</time>
      </trkpt>
      <trkpt lat="59.9766884" lon="17.7395098">
        <ele>31.3801</ele>
        <time>2013-04-12T19:08:27Z</time>
      </trkpt>
      <trkpt lat="59.976663" lon="17.7395242">
        <ele>31.3801</ele>
        <time>2013-04-12T19:08:28Z</time>
      </trkpt>
      <trkpt lat="59.9766382" lon="17.7395455">
        <ele>31.3801</ele>
        <time>2013-04-12T19:08:29Z</time>
      </trkpt>
      <trkpt lat="59.9766144" lon="17.7395601">
        <ele>31.3801</ele>
        <time>2013-04-12T19:08:30Z</time>
      </trkpt>
      <trkpt lat="59.976592" lon="17.7395739">
        <ele>31.3801</ele>
        <time>2013-04-12T19:08:31Z</time>
      </trkpt>
      <trkpt lat="59.9765671" lon="17.7395859">
        <ele>31.8607</ele>
        <time>2013-04-12T19:08:32Z</time>
      </trkpt>
      <trkpt lat="59.9765413" lon="17.7395957">
        <ele>32.3416</ele>
        <time>2013-04-12T19:08:33Z</time>
      </trkpt>
      <trkpt lat="59.9765201" lon="17.7396144">
        <ele>32.8223</ele>
        <time>2013-04-12T19:08:34Z</time>
      </trkpt>
      <trkpt lat="59.976501" lon="17.7396381">
        <ele>32.8223</ele>
        <time>2013-04-12T19:08:35Z</time>
      </trkpt>
      <trkpt lat="59.9764827" lon="17.7396561">
        <ele>33.3029</ele>
        <time>2013-04-12T19:08:36Z</time>
      </trkpt>
      <trkpt lat="59.9764611" lon="17.7396746">
        <ele>33.7834</ele>
        <time>2013-04-12T19:08:37Z</time>
      </trkpt>
      <trkpt lat="59.9764386" lon="17.739706">
        <ele>34.2642</ele>
        <time>2013-04-12T19:08:38Z</time>
      </trkpt>
      <trkpt lat="59.976418" lon="17.7397366">
        <ele>34.7449</ele>
        <time>2013-04-12T19:08:39Z</time>
      </trkpt>
      <trkpt lat="59.9763994" lon="17.7397647">
        <ele>35.2255</ele>
        <time>2013-04-12T19:08:40Z</time>
      </trkpt>
      <trkpt lat="59.976381" lon="17.7397976">
        <ele>35.2255</ele>
        <time>2013-04-12T19:08:41Z</time>
      </trkpt>
      <trkpt lat="59.9763608" lon="17.7398336">
        <ele>35.7061</ele>
        <time>2013-04-12T19:08:42Z</time>
      </trkpt>
      <trkpt lat="59.9763424" lon="17.7398687">
        <ele>36.1868</ele>
        <time>2013-04-12T19:08:43Z</time>
      </trkpt>
      <trkpt lat="59.9763247" lon="17.7399096">
        <ele>36.1868</ele>
        <time>2013-04-12T19:08:44Z</time>
      </trkpt>
      <trkpt lat="59.9763076" lon="17.7399386">
        <ele>36.6675</ele>
        <time>2013-04-12T19:08:45Z</time>
      </trkpt>
      <trkpt lat="59.9762802" lon="17.7399454">
        <ele>36.6675</ele>
        <time>2013-04-12T19:08:46Z</time>
      </trkpt>
      <trkpt lat="59.9762493" lon="17.7399252">
        <ele>36.6675</ele>
        <time>2013-04-12T19:08:47Z</time>
      </trkpt>
      <trkpt lat="59.9762194" lon="17.7398902">
        <ele>36.6675</ele>
        <time>2013-04-12T19:08:48Z</time>
      </trkpt>
      <trkpt lat="59.9761915" lon="17.7398535">
        <ele>36.6675</ele>
        <time>2013-04-12T19:08:49Z</time>
      </trkpt>
      <trkpt lat="59.9761652" lon="17.739826">
        <ele>36.1868</ele>
        <time>2013-04-12T19:08:50Z</time>
      </trkpt>
      <trkpt lat="59.9761424" lon="17.7397998">
        <ele>35.7061</ele>
        <time>2013-04-12T19:08:51Z</time>
      </trkpt>
      <trkpt lat="59.9761163" lon="17.7397714">
        <ele>34.7449</ele>
        <time>2013-04-12T19:08:52Z</time>
      </trkpt>
      <trkpt lat="59.9760933" lon="17.7397479">
        <ele>34.7449</ele>
        <time>2013-04-12T19:08:53Z</time>
      </trkpt>
      <trkpt lat="59.9760721" lon="17.7397201">
        <ele>33.7834</ele>
        <time>2013-04-12T19:08:54Z</time>
      </trkpt>
      <trkpt lat="59.9760529" lon="17.739682">
        <ele>33.3029</ele>
        <time>2013-04-12T19:08:55Z</time>
      </trkpt>
      <trkpt lat="59.9760364" lon="17.739648">
        <ele>32.8223</ele>
        <time>2013-04-12T19:08:56Z</time>
      </trkpt>
      <trkpt lat="59.9760233" lon="17.7396199">
        <ele>31.8607</ele>
        <time>2013-04-12T19:08:57Z</time>
      </trkpt>
      <trkpt lat="59.9760094" lon="17.7395879">
        <ele>30.8995</ele>
        <time>2013-04-12T19:08:58Z</time>
      </trkpt>
      <trkpt lat="59.9759917" lon="17.73955">
        <ele>30.8995</ele>
        <time>2013-04-12T19:08:59Z</time>
      </trkpt>
      <trkpt lat="59.9759754" lon="17.739522">
        <ele>30.4188</ele>
        <time>2013-04-12T19:09:00Z</time>
      </trkpt>
      <trkpt lat="59.9759584" lon="17.7394938">
        <ele>30.4188</ele>
        <time>2013-04-12T19:09:01Z</time>
      </trkpt>
      <trkpt lat="59.9759403" lon="17.7394595">
        <ele>29.9381</ele>
        <time>2013-04-12T19:09:02Z</time>
      </trkpt>
      <trkpt lat="59.9759218" lon="17.7394267">
        <ele>29.9381</ele>
        <time>2013-04-12T19:09:03Z</time>
      </trkpt>
      <trkpt lat="59.9759021" lon="17.7393905">
        <ele>29.4575</ele>
        <time>2013-04-12T19:09:04Z</time>
      </trkpt>
      <trkpt lat="59.9758806" lon="17.7393503">
        <ele>29.4575</ele>
        <time>2013-04-12T19:09:05Z</time>
      </trkpt>
      <trkpt lat="59.9758605" lon="17.7393156">
        <ele>28.9769</ele>
        <time>2013-04-12T19:09:06Z</time>
      </trkpt>
      <trkpt lat="59.9758379" lon="17.739272">
        <ele>28.9769</ele>
        <time>2013-04-12T19:09:07Z</time>
      </trkpt>
      <trkpt lat="59.9758167" lon="17.7392248">
        <ele>28.9769</ele>
        <time>2013-04-12T19:09:08Z</time>
      </trkpt>
      <trkpt lat="59.975799" lon="17.7391853">
        <ele>28.4962</ele>
        <time>2013-04-12T19:09:09Z</time>
      </trkpt>
      <trkpt lat="59.9757804" lon="17.7391516">
        <ele>28.4962</ele>
        <time>2013-04-12T19:09:10Z</time>
      </trkpt>
      <trkpt lat="59.9757617" lon="17.7391107">
        <ele>28.4962</ele>
        <time>2013-04-12T19:09:11Z</time>
      </trkpt>
      <trkpt lat="59.975743" lon="17.7390744">
        <ele>28.4962</ele>
        <time>2013-04-12T19:09:12Z</time>
      </trkpt>
      <trkpt lat="59.9757252" lon="17.7390457">
        <ele>28.4962</ele>
        <time>2013-04-12T19:09:13Z</time>
      </trkpt>
      <trkpt lat="59.9757068" lon="17.7390181">
        <ele>28.0155</ele>
        <time>2013-04-12T19:09:14Z</time>
      </trkpt>
      <trkpt lat="59.9756866" lon="17.7389845">
        <ele>28.4962</ele>
        <time>2013-04-12T19:09:15Z</time>
      </trkpt>
      <trkpt lat="59.9756695" lon="17.7389506">
        <ele>28.0155</ele>
        <time>2013-04-12T19:09:16Z</time>
      </trkpt>
      <trkpt lat="59.9756503" lon="17.7389172">
        <ele>28.0155</ele>
        <time>2013-04-12T19:09:17Z</time>
      </trkpt>
      <trkpt lat="59.9756281" lon="17.7388822">
        <ele>28.0155</ele>
        <time>2013-04-12T19:09:18Z</time>
      </trkpt>
      <trkpt lat="59.9756061" lon="17.7388493">
        <ele>28.0155</ele>
        <time>2013-04-12T19:09:19Z</time>
      </trkpt>
      <trkpt lat="59.9755886" lon="17.7388216">
        <ele>28.0155</ele>
        <time>2013-04-12T19:09:20Z</time>
      </trkpt>
      <trkpt lat="59.9755729" lon="17.7387936">
        <ele>27.5349</ele>
        <time>2013-04-12T19:09:21Z</time>
      </trkpt>
      <trkpt lat="59.975556" lon="17.7387626">
        <ele>27.0543</ele>
        <time>2013-04-12T19:09:22Z</time>
      </trkpt>
      <trkpt lat="59.975539" lon="17.7387356">
        <ele>27.0543</ele>
        <time>2013-04-12T19:09:23Z</time>
      </trkpt>
      <trkpt lat="59.9755191" lon="17.7387002">
        <ele>27.0543</ele>
        <time>2013-04-12T19:09:24Z</time>
      </trkpt>
      <trkpt lat="59.9755027" lon="17.7386674">
        <ele>27.0543</ele>
        <time>2013-04-12T19:09:25Z</time>
      </trkpt>
      <trkpt lat="59.9754838" lon="17.7386331">
        <ele>27.0543</ele>
        <time>2013-04-12T19:09:26Z</time>
      </trkpt>
      <trkpt lat="59.9754645" lon="17.7385971">
        <ele>27.0543</ele>
        <time>2013-04-12T19:09:27Z</time>
      </trkpt>
      <trkpt lat="59.9754488" lon="17.7385675">
        <ele>27.0543</ele>
        <time>2013-04-12T19:09:28Z</time>
      </trkpt>
      <trkpt lat="59.9754277" lon="17.7385317">
        <ele>27.0543</ele>
        <time>2013-04-12T19:09:29Z</time>
      </trkpt>
      <trkpt lat="59.9754091" lon="17.7384953">
        <ele>26.5736</ele>
        <time>2013-04-12T19:09:30Z</time>
      </trkpt>
      <trkpt lat="59.9753903" lon="17.7384664">
        <ele>27.0543</ele>
        <time>2013-04-12T19:09:31Z</time>
      </trkpt>
      <trkpt lat="59.9753716" lon="17.7384386">
        <ele>27.0543</ele>
        <time>2013-04-12T19:09:32Z</time>
      </trkpt>
      <trkpt lat="59.9753536" lon="17.73841">
        <ele>27.0543</ele>
        <time>2013-04-12T19:09:33Z</time>
      </trkpt>
      <trkpt lat="59.9753368" lon="17.7383824">
        <ele>27.0543</ele>
        <time>2013-04-12T19:09:34Z</time>
      </trkpt>
      <trkpt lat="59.9753183" lon="17.7383525">
        <ele>26.5736</ele>
        <time>2013-04-12T19:09:35Z</time>
      </trkpt>
      <trkpt lat="59.9753025" lon="17.7383231">
        <ele>26.5736</ele>
        <time>2013-04-12T19:09:36Z</time>
      </trkpt>
      <trkpt lat="59.9752871" lon="17.7382965">
        <ele>26.5736</ele>
        <time>2013-04-12T19:09:37Z</time>
      </trkpt>
      <trkpt lat="59.975268" lon="17.7382637">
        <ele>26.5736</ele>
        <time>2013-04-12T19:09:38Z</time>
      </trkpt>
      <trkpt lat="59.975249" lon="17.7382311">
        <ele>26.5736</ele>
        <time>2013-04-12T19:09:39Z</time>
      </trkpt>
      <trkpt lat="59.9752319" lon="17.7382038">
        <ele>26.5736</ele>
        <time>2013-04-12T19:09:40Z</time>
      </trkpt>
      <trkpt lat="59.9752121" lon="17.7381715">
        <ele>26.5736</ele>
        <time>2013-04-12T19:09:41Z</time>
      </trkpt>
      <trkpt lat="59.9751898" lon="17.7381378">
        <ele>26.0929</ele>
        <time>2013-04-12T19:09:42Z</time>
      </trkpt>
      <trkpt lat="59.9751668" lon="17.7381028">
        <ele>26.0929</ele>
        <time>2013-04-12T19:09:43Z</time>
      </trkpt>
      <trkpt lat="59.975144" lon="17.7380682">
        <ele>26.0929</ele>
        <time>2013-04-12T19:09:44Z</time>
      </trkpt>
      <trkpt lat="59.9751225" lon="17.7380375">
        <ele>25.6123</ele>
        <time>2013-04-12T19:09:45Z</time>
      </trkpt>
      <trkpt lat="59.975107" lon="17.7380122">
        <ele>25.6123</ele>
        <time>2013-04-12T19:09:46Z</time>
      </trkpt>
      <trkpt lat="59.9750896" lon="17.7379821">
        <ele>25.1317</ele>
        <time>2013-04-12T19:09:47Z</time>
      </trkpt>
      <trkpt lat="59.9750676" lon="17.7379498">
        <ele>24.651</ele>
        <time>2013-04-12T19:09:48Z</time>
      </trkpt>
      <trkpt lat="59.9750487" lon="17.7379201">
        <ele>24.651</ele>
        <time>2013-04-12T19:09:49Z</time>
      </trkpt>
      <trkpt lat="59.9750319" lon="17.7378925">
        <ele>24.1703</ele>
        <time>2013-04-12T19:09:50Z</time>
      </trkpt>
      <trkpt lat="59.9750112" lon="17.7378619">
        <ele>24.1703</ele>
        <time>2013-04-12T19:09:51Z</time>
      </trkpt>
      <trkpt lat="59.9749919" lon="17.7378292">
        <ele>24.1703</ele>
        <time>2013-04-12T19:09:52Z</time>
      </trkpt>
      <trkpt lat="59.9749754" lon="17.7377999">
        <ele>23.6896</ele>
        <time>2013-04-12T19:09:53Z</time>
      </trkpt>
      <trkpt lat="59.9749571" lon="17.7377676">
        <ele>23.6896</ele>
        <time>2013-04-12T19:09:54Z</time>
      </trkpt>
      <trkpt lat="59.9749401" lon="17.7377343">
        <ele>23.6896</ele>
        <time>2013-04-12T19:09:55Z</time>
      </trkpt>
      <trkpt lat="59.9749231" lon="17.7377025">
        <ele>23.6896</ele>
        <time>2013-04-12T19:09:56Z</time>
      </trkpt>
      <trkpt lat="59.9749035" lon="17.7376712">
        <ele>23.6896</ele>
        <time>2013-04-12T19:09:57Z</time>
      </trkpt>
      <trkpt lat="59.9748851" lon="17.737635">
        <ele>23.6896</ele>
        <time>2013-04-12T19:09:58Z</time>
      </trkpt>
      <trkpt lat="59.9748683" lon="17.7376055">
        <ele>23.6896</ele>
        <time>2013-04-12T19:09:59Z</time>
      </trkpt>
      <trkpt lat="59.9748515" lon="17.7375734">
        <ele>23.209</ele>
        <time>2013-04-12T19:10:00Z</time>
      </trkpt>
      <trkpt lat="59.9748341" lon="17.7375371">
        <ele>22.7283</ele>
        <time>2013-04-12T19:10:01Z</time>
      </trkpt>
      <trkpt lat="59.9748182" lon="17.737506">
        <ele>22.7283</ele>
        <time>2013-04-12T19:10:02Z</time>
      </trkpt>
      <trkpt lat="59.9748013" lon="17.7374728">
        <ele>22.2476</ele>
        <time>2013-04-12T19:10:03Z</time>
      </trkpt>
      <trkpt lat="59.9747856" lon="17.7374373">
        <ele>22.2476</ele>
        <time>2013-04-12T19:10:04Z</time>
      </trkpt>
      <trkpt lat="59.9747696" lon="17.7374081">
        <ele>21.767</ele>
        <time>2013-04-12T19:10:05Z</time>
      </trkpt>
      <trkpt lat="59.9747529" lon="17.7373688">
        <ele>21.767</ele>
        <time>2013-04-12T19:10:06Z</time>
      </trkpt>
      <trkpt lat="59.9747374" lon="17.7373277">
        <ele>21.767</ele>
        <time>2013-04-12T19:10:07Z</time>
      </trkpt>
      <trkpt lat="59.9747221" lon="17.7372893">
        <ele>21.767</ele>
        <time>2013-04-12T19:10:08Z</time>
      </trkpt>
      <trkpt lat="59.9747064" lon="17.7372455">
        <ele>22.2476</ele>
        <time>2013-04-12T19:10:09Z</time>
      </trkpt>
      <trkpt lat="59.9746963" lon="17.7372019">
        <ele>22.7283</ele>
        <time>2013-04-12T19:10:10Z</time>
      </trkpt>
      <trkpt lat="59.9746863" lon="17.7371626">
        <ele>23.209</ele>
        <time>2013-04-12T19:10:11Z</time>
      </trkpt>
      <trkpt lat="59.9746734" lon="17.7371213">
        <ele>23.209</ele>
        <time>2013-04-12T19:10:12Z</time>
      </trkpt>
      <trkpt lat="59.9746614" lon="17.7370796">
        <ele>23.6896</ele>
        <time>2013-04-12T19:10:13Z</time>
      </trkpt>
      <trkpt lat="59.9746521" lon="17.7370371">
        <ele>24.1703</ele>
        <time>2013-04-12T19:10:14Z</time>
      </trkpt>
      <trkpt lat="59.9746489" lon="17.736999">
        <ele>24.651</ele>
        <time>2013-04-12T19:10:15Z</time>
      </trkpt>
      <trkpt lat="59.9746353" lon="17.7369662">
        <ele>24.1703</ele>
        <time>2013-04-12T19:10:16Z</time>
      </trkpt>
      <trkpt lat="59.9746204" lon="17.7369262">
        <ele>24.651</ele>
        <time>2013-04-12T19:10:17Z</time>
      </trkpt>
      <trkpt lat="59.9746063" lon="17.7368783">
        <ele>25.1317</ele>
        <time>2013-04-12T19:10:18Z</time>
      </trkpt>
      <trkpt lat="59.9745941" lon="17.7368383">
        <ele>25.6123</ele>
        <time>2013-04-12T19:10:19Z</time>
      </trkpt>
      <trkpt lat="59.9745749" lon="17.7368003">
        <ele>25.1317</ele>
        <time>2013-04-12T19:10:20Z</time>
      </trkpt>
      <trkpt lat="59.9745603" lon="17.7367564">
        <ele>25.6123</ele>
        <time>2013-04-12T19:10:21Z</time>
      </trkpt>
      <trkpt lat="59.9745512" lon="17.7367083">
        <ele>26.5736</ele>
        <time>2013-04-12T19:10:22Z</time>
      </trkpt>
      <trkpt lat="59.9745411" lon="17.7366714">
        <ele>26.0929</ele>
        <time>2013-04-12T19:10:23Z</time>
      </trkpt>
      <trkpt lat="59.9745314" lon="17.7366283">
        <ele>26.5736</ele>
        <time>2013-04-12T19:10:24Z</time>
      </trkpt>
      <trkpt lat="59.9745231" lon="17.7365907">
        <ele>27.0543</ele>
        <time>2013-04-12T19:10:25Z</time>
      </trkpt>
      <trkpt lat="59.9745138" lon="17.7365535">
        <ele>26.5736</ele>
        <time>2013-04-12T19:10:26Z</time>
      </trkpt>
      <trkpt lat="59.9745044" lon="17.7365085">
        <ele>27.0543</ele>
        <time>2013-04-12T19:10:27Z</time>
      </trkpt>
      <trkpt lat="59.9744941" lon="17.7364676">
        <ele>27.5349</ele>
        <time>2013-04-12T19:10:28Z</time>
      </trkpt>
      <trkpt lat="59.9744833" lon="17.736428">
        <ele>27.5349</ele>
        <time>2013-04-12T19:10:29Z</time>
      </trkpt>
      <trkpt lat="59.9744803" lon="17.7363856">
        <ele>27.5349</ele>
        <time>2013-04-12T19:10:30Z</time>
      </trkpt>
      <trkpt lat="59.9744632" lon="17.7363378">
        <ele>27.5349</ele>
        <time>2013-04-12T19:10:31Z</time>
      </trkpt>
      <trkpt lat="59.9744444" lon="17.7362814">
        <ele>27.5349</ele>
        <time>2013-04-12T19:10:32Z</time>
      </trkpt>
      <trkpt lat="59.9744328" lon="17.7362261">
        <ele>27.5349</ele>
        <time>2013-04-12T19:10:33Z</time>
      </trkpt>
      <trkpt lat="59.9744222" lon="17.7361779">
        <ele>27.5349</ele>
        <time>2013-04-12T19:10:34Z</time>
      </trkpt>
      <trkpt lat="59.9744118" lon="17.7361307">
        <ele>27.5349</ele>
        <time>2013-04-12T19:10:35Z</time>
      </trkpt>
      <trkpt lat="59.9744066" lon="17.7360866">
        <ele>28.0155</ele>
        <time>2013-04-12T19:10:36Z</time>
      </trkpt>
      <trkpt lat="59.974403" lon="17.7360437">
        <ele>28.0155</ele>
        <time>2013-04-12T19:10:37Z</time>
      </trkpt>
      <trkpt lat="59.9744081" lon="17.7359997">
        <ele>28.0155</ele>
        <time>2013-04-12T19:10:38Z</time>
      </trkpt>
      <trkpt lat="59.9744174" lon="17.7359602">
        <ele>28.4962</ele>
        <time>2013-04-12T19:10:39Z</time>
      </trkpt>
      <trkpt lat="59.9744091" lon="17.7359132">
        <ele>28.4962</ele>
        <time>2013-04-12T19:10:40Z</time>
      </trkpt>
      <trkpt lat="59.9743969" lon="17.7358622">
        <ele>28.9769</ele>
        <time>2013-04-12T19:10:41Z</time>
      </trkpt>
      <trkpt lat="59.9743815" lon="17.7358149">
        <ele>28.9769</ele>
        <time>2013-04-12T19:10:42Z</time>
      </trkpt>
      <trkpt lat="59.9743702" lon="17.7357697">
        <ele>28.4962</ele>
        <time>2013-04-12T19:10:43Z</time>
      </trkpt>
      <trkpt lat="59.9743622" lon="17.7357223">
        <ele>28.9769</ele>
        <time>2013-04-12T19:10:44Z</time>
      </trkpt>
      <trkpt lat="59.9743556" lon="17.7356793">
        <ele>28.9769</ele>
        <time>2013-04-12T19:10:45Z</time>
      </trkpt>
      <trkpt lat="59.9743451" lon="17.7356348">
        <ele>28.4962</ele>
        <time>2013-04-12T19:10:46Z</time>
      </trkpt>
      <trkpt lat="59.9743345" lon="17.7355811">
        <ele>28.4962</ele>
        <time>2013-04-12T19:10:47Z</time>
      </trkpt>
      <trkpt lat="59.9743223" lon="17.7355247">
        <ele>28.4962</ele>
        <time>2013-04-12T19:10:48Z</time>
      </trkpt>
      <trkpt lat="59.9743101" lon="17.7354713">
        <ele>28.0155</ele>
        <time>2013-04-12T19:10:49Z</time>
      </trkpt>
      <trkpt lat="59.9742978" lon="17.7354207">
        <ele>27.5349</ele>
        <time>2013-04-12T19:10:50Z</time>
      </trkpt>
      <trkpt lat="59.974288" lon="17.7353723">
        <ele>27.5349</ele>
        <time>2013-04-12T19:10:51Z</time>
      </trkpt>
      <trkpt lat="59.9742815" lon="17.735321">
        <ele>27.0543</ele>
        <time>2013-04-12T19:10:52Z</time>
      </trkpt>
      <trkpt lat="59.9742774" lon="17.7352655">
        <ele>27.0543</ele>
        <time>2013-04-12T19:10:53Z</time>
      </trkpt>
      <trkpt lat="59.9742775" lon="17.7352159">
        <ele>26.5736</ele>
        <time>2013-04-12T19:10:54Z</time>
      </trkpt>
      <trkpt lat="59.9742729" lon="17.7351665">
        <ele>26.0929</ele>
        <time>2013-04-12T19:10:55Z</time>
      </trkpt>
      <trkpt lat="59.9742688" lon="17.7351175">
        <ele>26.0929</ele>
        <time>2013-04-12T19:10:56Z</time>
      </trkpt>
      <trkpt lat="59.9742718" lon="17.7350755">
        <ele>26.0929</ele>
        <time>2013-04-12T19:10:57Z</time>
      </trkpt>
      <trkpt lat="59.9742722" lon="17.7350274">
        <ele>25.6123</ele>
        <time>2013-04-12T19:10:58Z</time>
      </trkpt>
      <trkpt lat="59.9742673" lon="17.7349769">
        <ele>25.6123</ele>
        <time>2013-04-12T19:10:59Z</time>
      </trkpt>
      <trkpt lat="59.9742559" lon="17.7349243">
        <ele>25.1317</ele>
        <time>2013-04-12T19:11:00Z</time>
      </trkpt>
      <trkpt lat="59.9742525" lon="17.7348751">
        <ele>24.651</ele>
        <time>2013-04-12T19:11:01Z</time>
      </trkpt>
      <trkpt lat="59.974247" lon="17.7348281">
        <ele>24.1703</ele>
        <time>2013-04-12T19:11:02Z</time>
      </trkpt>
      <trkpt lat="59.9742388" lon="17.734774">
        <ele>24.651</ele>
        <time>2013-04-12T19:11:03Z</time>
      </trkpt>
      <trkpt lat="59.9742358" lon="17.7347196">
        <ele>24.1703</ele>
        <time>2013-04-12T19:11:04Z</time>
      </trkpt>
      <trkpt lat="59.9742295" lon="17.7346698">
        <ele>24.1703</ele>
        <time>2013-04-12T19:11:05Z</time>
      </trkpt>
      <trkpt lat="59.9742196" lon="17.7346213">
        <ele>24.1703</ele>
        <time>2013-04-12T19:11:06Z</time>
      </trkpt>
      <trkpt lat="59.974217" lon="17.7345696">
        <ele>24.1703</ele>
        <time>2013-04-12T19:11:07Z</time>
      </trkpt>
      <trkpt lat="59.9742149" lon="17.7345245">
        <ele>23.6896</ele>
        <time>2013-04-12T19:11:08Z</time>
      </trkpt>
      <trkpt lat="59.9742144" lon="17.7344781">
        <ele>23.209</ele>
        <time>2013-04-12T19:11:09Z</time>
      </trkpt>
      <trkpt lat="59.9742123" lon="17.7344256">
        <ele>22.7283</ele>
        <time>2013-04-12T19:11:10Z</time>
      </trkpt>
      <trkpt lat="59.9742086" lon="17.7343726">
        <ele>22.7283</ele>
        <time>2013-04-12T19:11:11Z</time>
      </trkpt>
      <trkpt lat="59.974208" lon="17.7343255">
        <ele>22.2476</ele>
        <time>2013-04-12T19:11:12Z</time>
      </trkpt>
      <trkpt lat="59.9742076" lon="17.7342799">
        <ele>22.2476</ele>
        <time>2013-04-12T19:11:13Z</time>
      </trkpt>
      <trkpt lat="59.9742075" lon="17.7342316">
        <ele>21.767</ele>
        <time>2013-04-12T19:11:14Z</time>
      </trkpt>
      <trkpt lat="59.9742082" lon="17.7341803">
        <ele>21.767</ele>
        <time>2013-04-12T19:11:15Z</time>
      </trkpt>
      <trkpt lat="59.9742078" lon="17.7341311">
        <ele>21.767</ele>
        <time>2013-04-12T19:11:16Z</time>
      </trkpt>
      <trkpt lat="59.9742065" lon="17.7340784">
        <ele>21.767</ele>
        <time>2013-04-12T19:11:17Z</time>
      </trkpt>
      <trkpt lat="59.974207" lon="17.7340261">
        <ele>21.767</ele>
        <time>2013-04-12T19:11:18Z</time>
      </trkpt>
      <trkpt lat="59.9742102" lon="17.7339811">
        <ele>21.2864</ele>
        <time>2013-04-12T19:11:19Z</time>
      </trkpt>
      <trkpt lat="59.9742134" lon="17.7339332">
        <ele>21.2864</ele>
        <time>2013-04-12T19:11:20Z</time>
      </trkpt>
      <trkpt lat="59.9742144" lon="17.7338848">
        <ele>20.8057</ele>
        <time>2013-04-12T19:11:21Z</time>
      </trkpt>
      <trkpt lat="59.9742166" lon="17.7338376">
        <ele>21.2864</ele>
        <time>2013-04-12T19:11:22Z</time>
      </trkpt>
      <trkpt lat="59.9742216" lon="17.7337888">
        <ele>21.2864</ele>
        <time>2013-04-12T19:11:23Z</time>
      </trkpt>
      <trkpt lat="59.9742235" lon="17.7337406">
        <ele>21.767</ele>
        <time>2013-04-12T19:11:24Z</time>
      </trkpt>
      <trkpt lat="59.9742252" lon="17.7336925">
        <ele>21.767</ele>
        <time>2013-04-12T19:11:25Z</time>
      </trkpt>
      <trkpt lat="59.974231" lon="17.7336442">
        <ele>22.2476</ele>
        <time>2013-04-12T19:11:26Z</time>
      </trkpt>
      <trkpt lat="59.9742354" lon="17.7335992">
        <ele>22.2476</ele>
        <time>2013-04-12T19:11:27Z</time>
      </trkpt>
      <trkpt lat="59.9742396" lon="17.7335524">
        <ele>22.7283</ele>
        <time>2013-04-12T19:11:28Z</time>
      </trkpt>
      <trkpt lat="59.9742445" lon="17.7335054">
        <ele>23.209</ele>
        <time>2013-04-12T19:11:29Z</time>
      </trkpt>
      <trkpt lat="59.9742481" lon="17.7334652">
        <ele>23.209</ele>
        <time>2013-04-12T19:11:30Z</time>
      </trkpt>
      <trkpt lat="59.9742518" lon="17.7334217">
        <ele>23.209</ele>
        <time>2013-04-12T19:11:31Z</time>
      </trkpt>
      <trkpt lat="59.9742557" lon="17.7333747">
        <ele>23.209</ele>
        <time>2013-04-12T19:11:32Z</time>
      </trkpt>
      <trkpt lat="59.9742583" lon="17.7333298">
        <ele>23.6896</ele>
        <time>2013-04-12T19:11:33Z</time>
      </trkpt>
      <trkpt lat="59.9742616" lon="17.7332833">
        <ele>23.6896</ele>
        <time>2013-04-12T19:11:34Z</time>
      </trkpt>
      <trkpt lat="59.9742647" lon="17.7332365">
        <ele>23.6896</ele>
        <time>2013-04-12T19:11:35Z</time>
      </trkpt>
      <trkpt lat="59.9742674" lon="17.7331916">
        <ele>23.6896</ele>
        <time>2013-04-12T19:11:36Z</time>
      </trkpt>
      <trkpt lat="59.9742714" lon="17.7331397">
        <ele>24.1703</ele>
        <time>2013-04-12T19:11:37Z</time>
      </trkpt>
      <trkpt lat="59.9742735" lon="17.7330904">
        <ele>24.1703</ele>
        <time>2013-04-12T19:11:38Z</time>
      </trkpt>
      <trkpt lat="59.9742718" lon="17.7330349">
        <ele>24.1703</ele>
        <time>2013-04-12T19:11:39Z</time>
      </trkpt>
      <trkpt lat="59.9742723" lon="17.7329787">
        <ele>24.1703</ele>
        <time>2013-04-12T19:11:40Z</time>
      </trkpt>
      <trkpt lat="59.9742744" lon="17.7329325">
        <ele>24.651</ele>
        <time>2013-04-12T19:11:41Z</time>
      </trkpt>
      <trkpt lat="59.974276" lon="17.7328833">
        <ele>24.651</ele>
        <time>2013-04-12T19:11:42Z</time>
      </trkpt>
      <trkpt lat="59.9742781" lon="17.7328316">
        <ele>25.1317</ele>
        <time>2013-04-12T19:11:43Z</time>
      </trkpt>
      <trkpt lat="59.974278" lon="17.7327834">
        <ele>25.1317</ele>
        <time>2013-04-12T19:11:44Z</time>
      </trkpt>
      <trkpt lat="59.9742791" lon="17.7327351">
        <ele>25.1317</ele>
        <time>2013-04-12T19:11:45Z</time>
      </trkpt>
      <trkpt lat="59.9742803" lon="17.7326855">
        <ele>25.1317</ele>
        <time>2013-04-12T19:11:46Z</time>
      </trkpt>
      <trkpt lat="59.9742795" lon="17.7326361">
        <ele>25.6123</ele>
        <time>2013-04-12T19:11:47Z</time>
      </trkpt>
      <trkpt lat="59.97428" lon="17.7325832">
        <ele>26.0929</ele>
        <time>2013-04-12T19:11:48Z</time>
      </trkpt>
      <trkpt lat="59.9742801" lon="17.732535">
        <ele>26.0929</ele>
        <time>2013-04-12T19:11:49Z</time>
      </trkpt>
      <trkpt lat="59.9742801" lon="17.7324865">
        <ele>26.5736</ele>
        <time>2013-04-12T19:11:50Z</time>
      </trkpt>
      <trkpt lat="59.9742796" lon="17.7324373">
        <ele>27.0543</ele>
        <time>2013-04-12T19:11:51Z</time>
      </trkpt>
      <trkpt lat="59.9742786" lon="17.7323917">
        <ele>27.5349</ele>
        <time>2013-04-12T19:11:52Z</time>
      </trkpt>
      <trkpt lat="59.974279" lon="17.7323403">
        <ele>27.5349</ele>
        <time>2013-04-12T19:11:53Z</time>
      </trkpt>
      <trkpt lat="59.9742781" lon="17.7322924">
        <ele>28.0155</ele>
        <time>2013-04-12T19:11:54Z</time>
      </trkpt>
      <trkpt lat="59.9742766" lon="17.732247">
        <ele>28.0155</ele>
        <time>2013-04-12T19:11:55Z</time>
      </trkpt>
      <trkpt lat="59.9742766" lon="17.7321955">
        <ele>28.4962</ele>
        <time>2013-04-12T19:11:56Z</time>
      </trkpt>
      <trkpt lat="59.9742761" lon="17.7321461">
        <ele>28.9769</ele>
        <time>2013-04-12T19:11:57Z</time>
      </trkpt>
      <trkpt lat="59.9742756" lon="17.7320953">
        <ele>28.9769</ele>
        <time>2013-04-12T19:11:58Z</time>
      </trkpt>
      <trkpt lat="59.9742749" lon="17.7320461">
        <ele>28.9769</ele>
        <time>2013-04-12T19:11:59Z</time>
      </trkpt>
      <trkpt lat="59.974273" lon="17.7320041">
        <ele>28.9769</ele>
        <time>2013-04-12T19:12:00Z</time>
      </trkpt>
      <trkpt lat="59.9742729" lon="17.731957">
        <ele>29.4575</ele>
        <time>2013-04-12T19:12:01Z</time>
      </trkpt>
      <trkpt lat="59.974274" lon="17.7319017">
        <ele>28.9769</ele>
        <time>2013-04-12T19:12:02Z</time>
      </trkpt>
      <trkpt lat="59.9742745" lon="17.7318484">
        <ele>28.9769</ele>
        <time>2013-04-12T19:12:03Z</time>
      </trkpt>
      <trkpt lat="59.974274" lon="17.7318001">
        <ele>28.9769</ele>
        <time>2013-04-12T19:12:04Z</time>
      </trkpt>
      <trkpt lat="59.9742729" lon="17.7317563">
        <ele>28.9769</ele>
        <time>2013-04-12T19:12:05Z</time>
      </trkpt>
      <trkpt lat="59.9742705" lon="17.7317105">
        <ele>28.4962</ele>
        <time>2013-04-12T19:12:06Z</time>
      </trkpt>
      <trkpt lat="59.9742698" lon="17.7316593">
        <ele>28.4962</ele>
        <time>2013-04-12T19:12:07Z</time>
      </trkpt>
      <trkpt lat="59.9742704" lon="17.7316126">
        <ele>28.4962</ele>
        <time>2013-04-12T19:12:08Z</time>
      </trkpt>
      <trkpt lat="59.9742714" lon="17.7315623">
        <ele>28.9769</ele>
        <time>2013-04-12T19:12:09Z</time>
      </trkpt>
      <trkpt lat="59.9742727" lon="17.7315136">
        <ele>28.4962</ele>
        <time>2013-04-12T19:12:10Z</time>
      </trkpt>
      <trkpt lat="59.9742731" lon="17.7314684">
        <ele>28.4962</ele>
        <time>2013-04-12T19:12:11Z</time>
      </trkpt>
      <trkpt lat="59.9742761" lon="17.7314148">
        <ele>28.4962</ele>
        <time>2013-04-12T19:12:12Z</time>
      </trkpt>
      <trkpt lat="59.9742781" lon="17.7313641">
        <ele>28.4962</ele>
        <time>2013-04-12T19:12:13Z</time>
      </trkpt>
      <trkpt lat="59.9742796" lon="17.7313151">
        <ele>28.4962</ele>
        <time>2013-04-12T19:12:14Z</time>
      </trkpt>
      <trkpt lat="59.9742805" lon="17.7312657">
        <ele>28.4962</ele>
        <time>2013-04-12T19:12:15Z</time>
      </trkpt>
      <trkpt lat="59.9742823" lon="17.7312186">
        <ele>28.4962</ele>
        <time>2013-04-12T19:12:16Z</time>
      </trkpt>
      <trkpt lat="59.9742863" lon="17.7311667">
        <ele>28.4962</ele>
        <time>2013-04-12T19:12:17Z</time>
      </trkpt>
      <trkpt lat="59.97429" lon="17.7311152">
        <ele>28.4962</ele>
        <time>2013-04-12T19:12:18Z</time>
      </trkpt>
      <trkpt lat="59.9742927" lon="17.7310691">
        <ele>28.4962</ele>
        <time>2013-04-12T19:12:19Z</time>
      </trkpt>
      <trkpt lat="59.9742973" lon="17.7310185">
        <ele>28.0155</ele>
        <time>2013-04-12T19:12:20Z</time>
      </trkpt>
      <trkpt lat="59.9743003" lon="17.7309771">
        <ele>28.0155</ele>
        <time>2013-04-12T19:12:21Z</time>
      </trkpt>
      <trkpt lat="59.9743015" lon="17.7309365">
        <ele>28.0155</ele>
        <time>2013-04-12T19:12:22Z</time>
      </trkpt>
      <trkpt lat="59.9743052" lon="17.7308875">
        <ele>28.0155</ele>
        <time>2013-04-12T19:12:23Z</time>
      </trkpt>
      <trkpt lat="59.9743092" lon="17.7308396">
        <ele>28.0155</ele>
        <time>2013-04-12T19:12:24Z</time>
      </trkpt>
      <trkpt lat="59.9743133" lon="17.7307912">
        <ele>27.5349</ele>
        <time>2013-04-12T19:12:25Z</time>
      </trkpt>
      <trkpt lat="59.9743181" lon="17.7307424">
        <ele>27.5349</ele>
        <time>2013-04-12T19:12:26Z</time>
      </trkpt>
      <trkpt lat="59.9743219" lon="17.7306978">
        <ele>27.5349</ele>
        <time>2013-04-12T19:12:27Z</time>
      </trkpt>
      <trkpt lat="59.9743266" lon="17.7306466">
        <ele>27.5349</ele>
        <time>2013-04-12T19:12:28Z</time>
      </trkpt>
      <trkpt lat="59.9743315" lon="17.730594">
        <ele>27.5349</ele>
        <time>2013-04-12T19:12:29Z</time>
      </trkpt>
      <trkpt lat="59.9743393" lon="17.7305502">
        <ele>27.5349</ele>
        <time>2013-04-12T19:12:30Z</time>
      </trkpt>
      <trkpt lat="59.9743502" lon="17.7305115">
        <ele>28.0155</ele>
        <time>2013-04-12T19:12:31Z</time>
      </trkpt>
      <trkpt lat="59.9743578" lon="17.7304698">
        <ele>28.0155</ele>
        <time>2013-04-12T19:12:32Z</time>
      </trkpt>
      <trkpt lat="59.9743619" lon="17.7304217">
        <ele>28.0155</ele>
        <time>2013-04-12T19:12:33Z</time>
      </trkpt>
      <trkpt lat="59.9743662" lon="17.7303731">
        <ele>28.4962</ele>
        <time>2013-04-12T19:12:34Z</time>
      </trkpt>
      <trkpt lat="59.9743745" lon="17.7303262">
        <ele>28.4962</ele>
        <time>2013-04-12T19:12:35Z</time>
      </trkpt>
      <trkpt lat="59.974382" lon="17.7302732">
        <ele>28.0155</ele>
        <time>2013-04-12T19:12:36Z</time>
      </trkpt>
      <trkpt lat="59.974388" lon="17.7302156">
        <ele>28.0155</ele>
        <time>2013-04-12T19:12:37Z</time>
      </trkpt>
      <trkpt lat="59.9743945" lon="17.7301662">
        <ele>28.4962</ele>
        <time>2013-04-12T19:12:38Z</time>
      </trkpt>
      <trkpt lat="59.9744004" lon="17.7301168">
        <ele>28.9769</ele>
        <time>2013-04-12T19:12:39Z</time>
      </trkpt>
      <trkpt lat="59.9744059" lon="17.7300684">
        <ele>28.9769</ele>
        <time>2013-04-12T19:12:40Z</time>
      </trkpt>
      <trkpt lat="59.9744118" lon="17.730016">
        <ele>28.9769</ele>
        <time>2013-04-12T19:12:41Z</time>
      </trkpt>
      <trkpt lat="59.974417" lon="17.7299603">
        <ele>28.9769</ele>
        <time>2013-04-12T19:12:42Z</time>
      </trkpt>
      <trkpt lat="59.9744204" lon="17.7299094">
        <ele>28.9769</ele>
        <time>2013-04-12T19:12:43Z</time>
      </trkpt>
      <trkpt lat="59.9744231" lon="17.729857">
        <ele>28.9769</ele>
        <time>2013-04-12T19:12:44Z</time>
      </trkpt>
      <trkpt lat="59.9744225" lon="17.7297945">
        <ele>28.9769</ele>
        <time>2013-04-12T19:12:45Z</time>
      </trkpt>
      <trkpt lat="59.9744232" lon="17.7297367">
        <ele>28.9769</ele>
        <time>2013-04-12T19:12:46Z</time>
      </trkpt>
      <trkpt lat="59.9744284" lon="17.7296867">
        <ele>28.9769</ele>
        <time>2013-04-12T19:12:47Z</time>
      </trkpt>
      <trkpt lat="59.9744355" lon="17.729637">
        <ele>28.9769</ele>
        <time>2013-04-12T19:12:48Z</time>
      </trkpt>
      <trkpt lat="59.9744418" lon="17.7295876">
        <ele>29.4575</ele>
        <time>2013-04-12T19:12:49Z</time>
      </trkpt>
      <trkpt lat="59.9744481" lon="17.7295409">
        <ele>29.4575</ele>
        <time>2013-04-12T19:12:50Z</time>
      </trkpt>
      <trkpt lat="59.9744531" lon="17.7294976">
        <ele>29.4575</ele>
        <time>2013-04-12T19:12:51Z</time>
      </trkpt>
      <trkpt lat="59.9744541" lon="17.7294526">
        <ele>29.4575</ele>
        <time>2013-04-12T19:12:52Z</time>
      </trkpt>
      <trkpt lat="59.9744547" lon="17.7294053">
        <ele>28.9769</ele>
        <time>2013-04-12T19:12:53Z</time>
      </trkpt>
      <trkpt lat="59.9744552" lon="17.7293578">
        <ele>28.9769</ele>
        <time>2013-04-12T19:12:54Z</time>
      </trkpt>
      <trkpt lat="59.9744515" lon="17.7293078">
        <ele>28.9769</ele>
        <time>2013-04-12T19:12:55Z</time>
      </trkpt>
      <trkpt lat="59.9744491" lon="17.7292635">
        <ele>28.9769</ele>
        <time>2013-04-12T19:12:56Z</time>
      </trkpt>
      <trkpt lat="59.9744501" lon="17.7292201">
        <ele>28.4962</ele>
        <time>2013-04-12T19:12:57Z</time>
      </trkpt>
      <trkpt lat="59.9744475" lon="17.7291724">
        <ele>28.0155</ele>
        <time>2013-04-12T19:12:58Z</time>
      </trkpt>
      <trkpt lat="59.9744456" lon="17.7291219">
        <ele>28.4962</ele>
        <time>2013-04-12T19:12:59Z</time>
      </trkpt>
      <trkpt lat="59.9744433" lon="17.7290744">
        <ele>28.4962</ele>
        <time>2013-04-12T19:13:00Z</time>
      </trkpt>
      <trkpt lat="59.9744403" lon="17.7290236">
        <ele>28.4962</ele>
        <time>2013-04-12T19:13:01Z</time>
      </trkpt>
      <trkpt lat="59.9744395" lon="17.7289725">
        <ele>28.9769</ele>
        <time>2013-04-12T19:13:02Z</time>
      </trkpt>
      <trkpt lat="59.9744381" lon="17.7289231">
        <ele>28.9769</ele>
        <time>2013-04-12T19:13:03Z</time>
      </trkpt>
      <trkpt lat="59.9744346" lon="17.7288714">
        <ele>29.4575</ele>
        <time>2013-04-12T19:13:04Z</time>
      </trkpt>
      <trkpt lat="59.9744324" lon="17.7288227">
        <ele>29.4575</ele>
        <time>2013-04-12T19:13:05Z</time>
      </trkpt>
      <trkpt lat="59.9744308" lon="17.7287755">
        <ele>29.4575</ele>
        <time>2013-04-12T19:13:06Z</time>
      </trkpt>
      <trkpt lat="59.9744273" lon="17.728724">
        <ele>29.9381</ele>
        <time>2013-04-12T19:13:07Z</time>
      </trkpt>
      <trkpt lat="59.9744242" lon="17.728673">
        <ele>30.4188</ele>
        <time>2013-04-12T19:13:08Z</time>
      </trkpt>
      <trkpt lat="59.974423" lon="17.7286274">
        <ele>30.4188</ele>
        <time>2013-04-12T19:13:09Z</time>
      </trkpt>
      <trkpt lat="59.9744214" lon="17.7285779">
        <ele>30.8995</ele>
        <time>2013-04-12T19:13:10Z</time>
      </trkpt>
      <trkpt lat="59.9744197" lon="17.7285284">
        <ele>31.3801</ele>
        <time>2013-04-12T19:13:11Z</time>
      </trkpt>
      <trkpt lat="59.9744175" lon="17.7284778">
        <ele>31.3801</ele>
        <time>2013-04-12T19:13:12Z</time>
      </trkpt>
      <trkpt lat="59.9744147" lon="17.7284253">
        <ele>31.3801</ele>
        <time>2013-04-12T19:13:13Z</time>
      </trkpt>
      <trkpt lat="59.9744137" lon="17.728378">
        <ele>31.3801</ele>
        <time>2013-04-12T19:13:14Z</time>
      </trkpt>
      <trkpt lat="59.9744155" lon="17.7283316">
        <ele>31.3801</ele>
        <time>2013-04-12T19:13:15Z</time>
      </trkpt>
      <trkpt lat="59.9744147" lon="17.7282829">
        <ele>31.3801</ele>
        <time>2013-04-12T19:13:16Z</time>
      </trkpt>
      <trkpt lat="59.9744132" lon="17.7282337">
        <ele>31.3801</ele>
        <time>2013-04-12T19:13:17Z</time>
      </trkpt>
      <trkpt lat="59.9744112" lon="17.7281818">
        <ele>31.8607</ele>
        <time>2013-04-12T19:13:18Z</time>
      </trkpt>
      <trkpt lat="59.9744092" lon="17.7281304">
        <ele>32.3416</ele>
        <time>2013-04-12T19:13:19Z</time>
      </trkpt>
      <trkpt lat="59.9744071" lon="17.7280814">
        <ele>32.8223</ele>
        <time>2013-04-12T19:13:20Z</time>
      </trkpt>
      <trkpt lat="59.9744059" lon="17.7280332">
        <ele>32.3416</ele>
        <time>2013-04-12T19:13:21Z</time>
      </trkpt>
      <trkpt lat="59.9744086" lon="17.7279845">
        <ele>32.8223</ele>
        <time>2013-04-12T19:13:22Z</time>
      </trkpt>
      <trkpt lat="59.9744108" lon="17.7279348">
        <ele>32.8223</ele>
        <time>2013-04-12T19:13:23Z</time>
      </trkpt>
      <trkpt lat="59.9744112" lon="17.7278833">
        <ele>33.3029</ele>
        <time>2013-04-12T19:13:24Z</time>
      </trkpt>
      <trkpt lat="59.9744123" lon="17.727836">
        <ele>33.3029</ele>
        <time>2013-04-12T19:13:25Z</time>
      </trkpt>
      <trkpt lat="59.9744107" lon="17.7277887">
        <ele>33.3029</ele>
        <time>2013-04-12T19:13:26Z</time>
      </trkpt>
      <trkpt lat="59.9744074" lon="17.7277382">
        <ele>33.7834</ele>
        <time>2013-04-12T19:13:27Z</time>
      </trkpt>
      <trkpt lat="59.9744041" lon="17.7276924">
        <ele>33.3029</ele>
        <time>2013-04-12T19:13:28Z</time>
      </trkpt>
      <trkpt lat="59.9744019" lon="17.7276425">
        <ele>33.3029</ele>
        <time>2013-04-12T19:13:29Z</time>
      </trkpt>
      <trkpt lat="59.9744015" lon="17.7275923">
        <ele>33.7834</ele>
        <time>2013-04-12T19:13:30Z</time>
      </trkpt>
      <trkpt lat="59.9744022" lon="17.7275414">
        <ele>33.7834</ele>
        <time>2013-04-12T19:13:31Z</time>
      </trkpt>
      <trkpt lat="59.9744045" lon="17.7274862">
        <ele>34.2642</ele>
        <time>2013-04-12T19:13:32Z</time>
      </trkpt>
      <trkpt lat="59.9744026" lon="17.7274364">
        <ele>34.2642</ele>
        <time>2013-04-12T19:13:33Z</time>
      </trkpt>
      <trkpt lat="59.9743982" lon="17.7273855">
        <ele>34.2642</ele>
        <time>2013-04-12T19:13:34Z</time>
      </trkpt>
      <trkpt lat="59.9743977" lon="17.7273365">
        <ele>34.7449</ele>
        <time>2013-04-12T19:13:35Z</time>
      </trkpt>
      <trkpt lat="59.9743969" lon="17.7272908">
        <ele>34.7449</ele>
        <time>2013-04-12T19:13:36Z</time>
      </trkpt>
      <trkpt lat="59.9743973" lon="17.7272436">
        <ele>34.7449</ele>
        <time>2013-04-12T19:13:37Z</time>
      </trkpt>
      <trkpt lat="59.9743973" lon="17.7271971">
        <ele>34.7449</ele>
        <time>2013-04-12T19:13:38Z</time>
      </trkpt>
      <trkpt lat="59.9743976" lon="17.7271505">
        <ele>34.7449</ele>
        <time>2013-04-12T19:13:39Z</time>
      </trkpt>
      <trkpt lat="59.9744066" lon="17.7271052">
        <ele>34.7449</ele>
        <time>2013-04-12T19:13:40Z</time>
      </trkpt>
      <trkpt lat="59.9744117" lon="17.7270634">
        <ele>34.2642</ele>
        <time>2013-04-12T19:13:41Z</time>
      </trkpt>
      <trkpt lat="59.9744144" lon="17.7270167">
        <ele>34.7449</ele>
        <time>2013-04-12T19:13:42Z</time>
      </trkpt>
      <trkpt lat="59.9744133" lon="17.7269693">
        <ele>34.7449</ele>
        <time>2013-04-12T19:13:43Z</time>
      </trkpt>
      <trkpt lat="59.9744091" lon="17.7269256">
        <ele>34.7449</ele>
        <time>2013-04-12T19:13:44Z</time>
      </trkpt>
      <trkpt lat="59.9744031" lon="17.7268786">
        <ele>34.7449</ele>
        <time>2013-04-12T19:13:45Z</time>
      </trkpt>
      <trkpt lat="59.9744019" lon="17.7268309">
        <ele>35.2255</ele>
        <time>2013-04-12T19:13:46Z</time>
      </trkpt>
      <trkpt lat="59.9744005" lon="17.7267843">
        <ele>35.7061</ele>
        <time>2013-04-12T19:13:47Z</time>
      </trkpt>
      <trkpt lat="59.9743988" lon="17.7267372">
        <ele>35.2255</ele>
        <time>2013-04-12T19:13:48Z</time>
      </trkpt>
      <trkpt lat="59.9743984" lon="17.7266895">
        <ele>35.7061</ele>
        <time>2013-04-12T19:13:49Z</time>
      </trkpt>
      <trkpt lat="59.9743973" lon="17.7266429">
        <ele>35.7061</ele>
        <time>2013-04-12T19:13:50Z</time>
      </trkpt>
      <trkpt lat="59.9743945" lon="17.7265916">
        <ele>35.7061</ele>
        <time>2013-04-12T19:13:51Z</time>
      </trkpt>
      <trkpt lat="59.9743929" lon="17.7265434">
        <ele>36.6675</ele>
        <time>2013-04-12T19:13:52Z</time>
      </trkpt>
      <trkpt lat="59.9743929" lon="17.7264999">
        <ele>36.1868</ele>
        <time>2013-04-12T19:13:53Z</time>
      </trkpt>
      <trkpt lat="59.9743945" lon="17.7264496">
        <ele>36.6675</ele>
        <time>2013-04-12T19:13:54Z</time>
      </trkpt>
      <trkpt lat="59.9743947" lon="17.7264015">
        <ele>36.6675</ele>
        <time>2013-04-12T19:13:55Z</time>
      </trkpt>
      <trkpt lat="59.9743929" lon="17.7263559">
        <ele>37.1481</ele>
        <time>2013-04-12T19:13:56Z</time>
      </trkpt>
      <trkpt lat="59.9743929" lon="17.726307">
        <ele>37.6287</ele>
        <time>2013-04-12T19:13:57Z</time>
      </trkpt>
      <trkpt lat="59.9743946" lon="17.7262642">
        <ele>37.6287</ele>
        <time>2013-04-12T19:13:58Z</time>
      </trkpt>
      <trkpt lat="59.9743941" lon="17.7262216">
        <ele>37.1481</ele>
        <time>2013-04-12T19:13:59Z</time>
      </trkpt>
      <trkpt lat="59.9743921" lon="17.7261756">
        <ele>37.1481</ele>
        <time>2013-04-12T19:14:00Z</time>
      </trkpt>
      <trkpt lat="59.9743891" lon="17.7261316">
        <ele>37.1481</ele>
        <time>2013-04-12T19:14:01Z</time>
      </trkpt>
      <trkpt lat="59.9743841" lon="17.7260903">
        <ele>37.1481</ele>
        <time>2013-04-12T19:14:02Z</time>
      </trkpt>
      <trkpt lat="59.9743794" lon="17.726046">
        <ele>36.6675</ele>
        <time>2013-04-12T19:14:03Z</time>
      </trkpt>
      <trkpt lat="59.9743782" lon="17.7260026">
        <ele>37.6287</ele>
        <time>2013-04-12T19:14:04Z</time>
      </trkpt>
      <trkpt lat="59.9743774" lon="17.725962">
        <ele>37.6287</ele>
        <time>2013-04-12T19:14:05Z</time>
      </trkpt>
      <trkpt lat="59.9743751" lon="17.7259135">
        <ele>37.6287</ele>
        <time>2013-04-12T19:14:06Z</time>
      </trkpt>
      <trkpt lat="59.9743703" lon="17.7258638">
        <ele>37.6287</ele>
        <time>2013-04-12T19:14:07Z</time>
      </trkpt>
      <trkpt lat="59.9743646" lon="17.7258151">
        <ele>37.6287</ele>
        <time>2013-04-12T19:14:08Z</time>
      </trkpt>
      <trkpt lat="59.9743603" lon="17.7257648">
        <ele>37.6287</ele>
        <time>2013-04-12T19:14:09Z</time>
      </trkpt>
      <trkpt lat="59.9743574" lon="17.7257225">
        <ele>37.6287</ele>
        <time>2013-04-12T19:14:10Z</time>
      </trkpt>
      <trkpt lat="59.9743532" lon="17.7256795">
        <ele>37.6287</ele>
        <time>2013-04-12T19:14:11Z</time>
      </trkpt>
      <trkpt lat="59.9743465" lon="17.7256303">
        <ele>37.1481</ele>
        <time>2013-04-12T19:14:12Z</time>
      </trkpt>
      <trkpt lat="59.9743373" lon="17.7255825">
        <ele>37.1481</ele>
        <time>2013-04-12T19:14:13Z</time>
      </trkpt>
      <trkpt lat="59.9743304" lon="17.7255394">
        <ele>37.1481</ele>
        <time>2013-04-12T19:14:14Z</time>
      </trkpt>
      <trkpt lat="59.9743253" lon="17.7254938">
        <ele>36.6675</ele>
        <time>2013-04-12T19:14:15Z</time>
      </trkpt>
      <trkpt lat="59.9743183" lon="17.7254478">
        <ele>36.6675</ele>
        <time>2013-04-12T19:14:16Z</time>
      </trkpt>
      <trkpt lat="59.9743137" lon="17.7254051">
        <ele>36.6675</ele>
        <time>2013-04-12T19:14:17Z</time>
      </trkpt>
      <trkpt lat="59.97431" lon="17.7253575">
        <ele>36.6675</ele>
        <time>2013-04-12T19:14:18Z</time>
      </trkpt>
      <trkpt lat="59.9743034" lon="17.7253109">
        <ele>36.6675</ele>
        <time>2013-04-12T19:14:19Z</time>
      </trkpt>
      <trkpt lat="59.9742982" lon="17.7252666">
        <ele>36.6675</ele>
        <time>2013-04-12T19:14:20Z</time>
      </trkpt>
      <trkpt lat="59.974291" lon="17.7252184">
        <ele>36.1868</ele>
        <time>2013-04-12T19:14:21Z</time>
      </trkpt>
      <trkpt lat="59.974281" lon="17.7251677">
        <ele>35.7061</ele>
        <time>2013-04-12T19:14:22Z</time>
      </trkpt>
      <trkpt lat="59.9742735" lon="17.7251194">
        <ele>35.2255</ele>
        <time>2013-04-12T19:14:23Z</time>
      </trkpt>
      <trkpt lat="59.9742635" lon="17.7250686">
        <ele>34.7449</ele>
        <time>2013-04-12T19:14:24Z</time>
      </trkpt>
      <trkpt lat="59.9742523" lon="17.7250194">
        <ele>34.7449</ele>
        <time>2013-04-12T19:14:25Z</time>
      </trkpt>
      <trkpt lat="59.9742415" lon="17.72497">
        <ele>34.7449</ele>
        <time>2013-04-12T19:14:26Z</time>
      </trkpt>
      <trkpt lat="59.9742326" lon="17.7249234">
        <ele>34.7449</ele>
        <time>2013-04-12T19:14:27Z</time>
      </trkpt>
      <trkpt lat="59.974227" lon="17.724879">
        <ele>34.7449</ele>
        <time>2013-04-12T19:14:28Z</time>
      </trkpt>
      <trkpt lat="59.9742201" lon="17.7248262">
        <ele>34.7449</ele>
        <time>2013-04-12T19:14:29Z</time>
      </trkpt>
      <trkpt lat="59.9742118" lon="17.7247817">
        <ele>34.2642</ele>
        <time>2013-04-12T19:14:30Z</time>
      </trkpt>
      <trkpt lat="59.974203" lon="17.7247419">
        <ele>34.2642</ele>
        <time>2013-04-12T19:14:31Z</time>
      </trkpt>
      <trkpt lat="59.9741945" lon="17.7246975">
        <ele>34.2642</ele>
        <time>2013-04-12T19:14:32Z</time>
      </trkpt>
      <trkpt lat="59.9741879" lon="17.7246553">
        <ele>34.2642</ele>
        <time>2013-04-12T19:14:33Z</time>
      </trkpt>
      <trkpt lat="59.9741796" lon="17.7246097">
        <ele>34.2642</ele>
        <time>2013-04-12T19:14:34Z</time>
      </trkpt>
      <trkpt lat="59.9741693" lon="17.7245603">
        <ele>33.7834</ele>
        <time>2013-04-12T19:14:35Z</time>
      </trkpt>
      <trkpt lat="59.974159" lon="17.7245149">
        <ele>33.7834</ele>
        <time>2013-04-12T19:14:36Z</time>
      </trkpt>
      <trkpt lat="59.9741521" lon="17.7244698">
        <ele>34.2642</ele>
        <time>2013-04-12T19:14:37Z</time>
      </trkpt>
      <trkpt lat="59.9741474" lon="17.7244227">
        <ele>33.7834</ele>
        <time>2013-04-12T19:14:38Z</time>
      </trkpt>
      <trkpt lat="59.9741376" lon="17.7243753">
        <ele>33.7834</ele>
        <time>2013-04-12T19:14:39Z</time>
      </trkpt>
      <trkpt lat="59.9741289" lon="17.7243257">
        <ele>33.3029</ele>
        <time>2013-04-12T19:14:40Z</time>
      </trkpt>
      <trkpt lat="59.974122" lon="17.7242765">
        <ele>33.3029</ele>
        <time>2013-04-12T19:14:41Z</time>
      </trkpt>
      <trkpt lat="59.9741139" lon="17.7242322">
        <ele>33.3029</ele>
        <time>2013-04-12T19:14:42Z</time>
      </trkpt>
      <trkpt lat="59.9741077" lon="17.7241911">
        <ele>33.3029</ele>
        <time>2013-04-12T19:14:43Z</time>
      </trkpt>
      <trkpt lat="59.9740962" lon="17.7241435">
        <ele>32.8223</ele>
        <time>2013-04-12T19:14:44Z</time>
      </trkpt>
      <trkpt lat="59.9740806" lon="17.7240932">
        <ele>32.8223</ele>
        <time>2013-04-12T19:14:45Z</time>
      </trkpt>
      <trkpt lat="59.9740704" lon="17.7240471">
        <ele>32.8223</ele>
        <time>2013-04-12T19:14:46Z</time>
      </trkpt>
      <trkpt lat="59.9740626" lon="17.724001">
        <ele>33.3029</ele>
        <time>2013-04-12T19:14:47Z</time>
      </trkpt>
      <trkpt lat="59.9740513" lon="17.7239518">
        <ele>32.8223</ele>
        <time>2013-04-12T19:14:48Z</time>
      </trkpt>
      <trkpt lat="59.9740436" lon="17.7239016">
        <ele>32.8223</ele>
        <time>2013-04-12T19:14:49Z</time>
      </trkpt>
      <trkpt lat="59.9740397" lon="17.7238555">
        <ele>32.8223</ele>
        <time>2013-04-12T19:14:50Z</time>
      </trkpt>
      <trkpt lat="59.974035" lon="17.7238123">
        <ele>33.3029</ele>
        <time>2013-04-12T19:14:51Z</time>
      </trkpt>
      <trkpt lat="59.9740285" lon="17.7237684">
        <ele>33.3029</ele>
        <time>2013-04-12T19:14:52Z</time>
      </trkpt>
      <trkpt lat="59.9740211" lon="17.7237232">
        <ele>33.3029</ele>
        <time>2013-04-12T19:14:53Z</time>
      </trkpt>
      <trkpt lat="59.9740097" lon="17.7236753">
        <ele>33.7834</ele>
        <time>2013-04-12T19:14:54Z</time>
      </trkpt>
      <trkpt lat="59.9739968" lon="17.7236234">
        <ele>33.7834</ele>
        <time>2013-04-12T19:14:55Z</time>
      </trkpt>
      <trkpt lat="59.9739861" lon="17.7235748">
        <ele>33.7834</ele>
        <time>2013-04-12T19:14:56Z</time>
      </trkpt>
      <trkpt lat="59.9739752" lon="17.723528">
        <ele>33.7834</ele>
        <time>2013-04-12T19:14:57Z</time>
      </trkpt>
      <trkpt lat="59.9739641" lon="17.7234792">
        <ele>34.2642</ele>
        <time>2013-04-12T19:14:58Z</time>
      </trkpt>
      <trkpt lat="59.9739565" lon="17.7234338">
        <ele>35.2255</ele>
        <time>2013-04-12T19:14:59Z</time>
      </trkpt>
      <trkpt lat="59.9739505" lon="17.7233934">
        <ele>35.2255</ele>
        <time>2013-04-12T19:15:00Z</time>
      </trkpt>
      <trkpt lat="59.9739428" lon="17.7233525">
        <ele>35.7061</ele>
        <time>2013-04-12T19:15:01Z</time>
      </trkpt>
      <trkpt lat="59.9739317" lon="17.7233039">
        <ele>36.1868</ele>
        <time>2013-04-12T19:15:02Z</time>
      </trkpt>
      <trkpt lat="59.9739205" lon="17.7232534">
        <ele>36.6675</ele>
        <time>2013-04-12T19:15:03Z</time>
      </trkpt>
      <trkpt lat="59.9739093" lon="17.7232037">
        <ele>36.6675</ele>
        <time>2013-04-12T19:15:04Z</time>
      </trkpt>
      <trkpt lat="59.9738972" lon="17.7231572">
        <ele>36.1868</ele>
        <time>2013-04-12T19:15:05Z</time>
      </trkpt>
      <trkpt lat="59.973887" lon="17.7231095">
        <ele>36.1868</ele>
        <time>2013-04-12T19:15:06Z</time>
      </trkpt>
      <trkpt lat="59.9738763" lon="17.7230599">
        <ele>36.1868</ele>
        <time>2013-04-12T19:15:07Z</time>
      </trkpt>
      <trkpt lat="59.9738667" lon="17.7230153">
        <ele>35.7061</ele>
        <time>2013-04-12T19:15:08Z</time>
      </trkpt>
      <trkpt lat="59.9738596" lon="17.7229712">
        <ele>35.7061</ele>
        <time>2013-04-12T19:15:09Z</time>
      </trkpt>
      <trkpt lat="59.9738506" lon="17.7229252">
        <ele>35.7061</ele>
        <time>2013-04-12T19:15:10Z</time>
      </trkpt>
      <trkpt lat="59.9738402" lon="17.7228799">
        <ele>35.2255</ele>
        <time>2013-04-12T19:15:11Z</time>
      </trkpt>
      <trkpt lat="59.9738291" lon="17.7228349">
        <ele>34.7449</ele>
        <time>2013-04-12T19:15:12Z</time>
      </trkpt>
      <trkpt lat="59.9738193" lon="17.7227919">
        <ele>34.7449</ele>
        <time>2013-04-12T19:15:13Z</time>
      </trkpt>
      <trkpt lat="59.9738098" lon="17.7227486">
        <ele>34.2642</ele>
        <time>2013-04-12T19:15:14Z</time>
      </trkpt>
      <trkpt lat="59.9738026" lon="17.722706">
        <ele>34.2642</ele>
        <time>2013-04-12T19:15:15Z</time>
      </trkpt>
      <trkpt lat="59.9737947" lon="17.7226677">
        <ele>33.7834</ele>
        <time>2013-04-12T19:15:16Z</time>
      </trkpt>
      <trkpt lat="59.9737819" lon="17.7226288">
        <ele>33.7834</ele>
        <time>2013-04-12T19:15:17Z</time>
      </trkpt>
      <trkpt lat="59.9737762" lon="17.72259">
        <ele>33.7834</ele>
        <time>2013-04-12T19:15:18Z</time>
      </trkpt>
      <trkpt lat="59.9737669" lon="17.7225506">
        <ele>33.7834</ele>
        <time>2013-04-12T19:15:19Z</time>
      </trkpt>
      <trkpt lat="59.9737568" lon="17.7225087">
        <ele>33.3029</ele>
        <time>2013-04-12T19:15:20Z</time>
      </trkpt>
      <trkpt lat="59.9737514" lon="17.7224725">
        <ele>33.3029</ele>
        <time>2013-04-12T19:15:21Z</time>
      </trkpt>
      <trkpt lat="59.9737466" lon="17.7224402">
        <ele>33.3029</ele>
        <time>2013-04-12T19:15:22Z</time>
      </trkpt>
      <trkpt lat="59.9737383" lon="17.7224028">
        <ele>33.3029</ele>
        <time>2013-04-12T19:15:23Z</time>
      </trkpt>
      <trkpt lat="59.9737233" lon="17.7223557">
        <ele>32.8223</ele>
        <time>2013-04-12T19:15:24Z</time>
      </trkpt>
      <trkpt lat="59.9737087" lon="17.7223103">
        <ele>32.8223</ele>
        <time>2013-04-12T19:15:25Z</time>
      </trkpt>
      <trkpt lat="59.9737052" lon="17.7222797">
        <ele>32.3416</ele>
        <time>2013-04-12T19:15:26Z</time>
      </trkpt>
      <trkpt lat="59.9736981" lon="17.7222507">
        <ele>31.8607</ele>
        <time>2013-04-12T19:15:27Z</time>
      </trkpt>
      <trkpt lat="59.9736705" lon="17.7222065">
        <ele>31.3801</ele>
        <time>2013-04-12T19:15:28Z</time>
      </trkpt>
      <trkpt lat="59.9736532" lon="17.722159">
        <ele>30.8995</ele>
        <time>2013-04-12T19:15:29Z</time>
      </trkpt>
      <trkpt lat="59.9736399" lon="17.7221191">
        <ele>30.8995</ele>
        <time>2013-04-12T19:15:30Z</time>
      </trkpt>
      <trkpt lat="59.9736226" lon="17.7220776">
        <ele>30.4188</ele>
        <time>2013-04-12T19:15:31Z</time>
      </trkpt>
      <trkpt lat="59.9736076" lon="17.7220378">
        <ele>29.9381</ele>
        <time>2013-04-12T19:15:32Z</time>
      </trkpt>
      <trkpt lat="59.9735954" lon="17.7220078">
        <ele>29.9381</ele>
        <time>2013-04-12T19:15:33Z</time>
      </trkpt>
      <trkpt lat="59.9735834" lon="17.7219745">
        <ele>29.9381</ele>
        <time>2013-04-12T19:15:34Z</time>
      </trkpt>
      <trkpt lat="59.9735729" lon="17.7219347">
        <ele>29.9381</ele>
        <time>2013-04-12T19:15:35Z</time>
      </trkpt>
      <trkpt lat="59.9735569" lon="17.7218957">
        <ele>29.9381</ele>
        <time>2013-04-12T19:15:36Z</time>
      </trkpt>
      <trkpt lat="59.9735457" lon="17.7218641">
        <ele>30.4188</ele>
        <time>2013-04-12T19:15:37Z</time>
      </trkpt>
      <trkpt lat="59.9735358" lon="17.7218326">
        <ele>29.9381</ele>
        <time>2013-04-12T19:15:38Z</time>
      </trkpt>
      <trkpt lat="59.9735201" lon="17.7217943">
        <ele>29.9381</ele>
        <time>2013-04-12T19:15:39Z</time>
      </trkpt>
      <trkpt lat="59.9735058" lon="17.7217576">
        <ele>29.9381</ele>
        <time>2013-04-12T19:15:40Z</time>
      </trkpt>
      <trkpt lat="59.9734928" lon="17.7217247">
        <ele>30.4188</ele>
        <time>2013-04-12T19:15:41Z</time>
      </trkpt>
      <trkpt lat="59.9734773" lon="17.7216896">
        <ele>30.4188</ele>
        <time>2013-04-12T19:15:42Z</time>
      </trkpt>
      <trkpt lat="59.973469" lon="17.7216587">
        <ele>30.4188</ele>
        <time>2013-04-12T19:15:43Z</time>
      </trkpt>
      <trkpt lat="59.9734602" lon="17.7216262">
        <ele>30.8995</ele>
        <time>2013-04-12T19:15:44Z</time>
      </trkpt>
      <trkpt lat="59.9734437" lon="17.7215871">
        <ele>30.8995</ele>
        <time>2013-04-12T19:15:45Z</time>
      </trkpt>
      <trkpt lat="59.9734273" lon="17.7215483">
        <ele>30.4188</ele>
        <time>2013-04-12T19:15:46Z</time>
      </trkpt>
      <trkpt lat="59.9734058" lon="17.7215129">
        <ele>30.8995</ele>
        <time>2013-04-12T19:15:47Z</time>
      </trkpt>
      <trkpt lat="59.9733871" lon="17.7214788">
        <ele>30.8995</ele>
        <time>2013-04-12T19:15:48Z</time>
      </trkpt>
      <trkpt lat="59.9733711" lon="17.7214429">
        <ele>30.8995</ele>
        <time>2013-04-12T19:15:49Z</time>
      </trkpt>
      <trkpt lat="59.9733535" lon="17.7214066">
        <ele>30.8995</ele>
        <time>2013-04-12T19:15:50Z</time>
      </trkpt>
      <trkpt lat="59.9733372" lon="17.7213722">
        <ele>30.8995</ele>
        <time>2013-04-12T19:15:51Z</time>
      </trkpt>
      <trkpt lat="59.973326" lon="17.7213398">
        <ele>31.3801</ele>
        <time>2013-04-12T19:15:52Z</time>
      </trkpt>
      <trkpt lat="59.973321" lon="17.7213094">
        <ele>31.3801</ele>
        <time>2013-04-12T19:15:53Z</time>
      </trkpt>
      <trkpt lat="59.9733074" lon="17.7212742">
        <ele>31.3801</ele>
        <time>2013-04-12T19:15:54Z</time>
      </trkpt>
      <trkpt lat="59.9732924" lon="17.7212412">
        <ele>31.3801</ele>
        <time>2013-04-12T19:15:55Z</time>
      </trkpt>
      <trkpt lat="59.9732798" lon="17.7212099">
        <ele>31.8607</ele>
        <time>2013-04-12T19:15:56Z</time>
      </trkpt>
      <trkpt lat="59.9732634" lon="17.7211757">
        <ele>31.3801</ele>
        <time>2013-04-12T19:15:57Z</time>
      </trkpt>
      <trkpt lat="59.9732415" lon="17.7211411">
        <ele>31.8607</ele>
        <time>2013-04-12T19:15:58Z</time>
      </trkpt>
      <trkpt lat="59.9732183" lon="17.7211089">
        <ele>31.8607</ele>
        <time>2013-04-12T19:15:59Z</time>
      </trkpt>
      <trkpt lat="59.973198" lon="17.7210767">
        <ele>32.3416</ele>
        <time>2013-04-12T19:16:00Z</time>
      </trkpt>
      <trkpt lat="59.9731779" lon="17.7210463">
        <ele>32.3416</ele>
        <time>2013-04-12T19:16:01Z</time>
      </trkpt>
      <trkpt lat="59.9731566" lon="17.7210163">
        <ele>31.8607</ele>
        <time>2013-04-12T19:16:02Z</time>
      </trkpt>
      <trkpt lat="59.9731323" lon="17.720984">
        <ele>31.8607</ele>
        <time>2013-04-12T19:16:03Z</time>
      </trkpt>
      <trkpt lat="59.9731136" lon="17.7209581">
        <ele>31.3801</ele>
        <time>2013-04-12T19:16:04Z</time>
      </trkpt>
      <trkpt lat="59.9730919" lon="17.7209291">
        <ele>31.3801</ele>
        <time>2013-04-12T19:16:05Z</time>
      </trkpt>
      <trkpt lat="59.9730774" lon="17.7208996">
        <ele>31.3801</ele>
        <time>2013-04-12T19:16:06Z</time>
      </trkpt>
      <trkpt lat="59.9730741" lon="17.720879">
        <ele>31.3801</ele>
        <time>2013-04-12T19:16:07Z</time>
      </trkpt>
      <trkpt lat="59.9730661" lon="17.7208575">
        <ele>31.3801</ele>
        <time>2013-04-12T19:16:08Z</time>
      </trkpt>
      <trkpt lat="59.9730432" lon="17.7208282">
        <ele>30.8995</ele>
        <time>2013-04-12T19:16:09Z</time>
      </trkpt>
      <trkpt lat="59.9730189" lon="17.7208023">
        <ele>31.3801</ele>
        <time>2013-04-12T19:16:10Z</time>
      </trkpt>
      <trkpt lat="59.9730016" lon="17.7207799">
        <ele>31.8607</ele>
        <time>2013-04-12T19:16:11Z</time>
      </trkpt>
      <trkpt lat="59.9729841" lon="17.7207572">
        <ele>31.8607</ele>
        <time>2013-04-12T19:16:12Z</time>
      </trkpt>
      <trkpt lat="59.9729619" lon="17.7207304">
        <ele>31.8607</ele>
        <time>2013-04-12T19:16:13Z</time>
      </trkpt>
      <trkpt lat="59.97294" lon="17.7207">
        <ele>31.8607</ele>
        <time>2013-04-12T19:16:14Z</time>
      </trkpt>
      <trkpt lat="59.9729228" lon="17.7206754">
        <ele>32.3416</ele>
        <time>2013-04-12T19:16:15Z</time>
      </trkpt>
      <trkpt lat="59.9729189" lon="17.7206535">
        <ele>32.8223</ele>
        <time>2013-04-12T19:16:16Z</time>
      </trkpt>
      <trkpt lat="59.9728962" lon="17.720624">
        <ele>32.8223</ele>
        <time>2013-04-12T19:16:17Z</time>
      </trkpt>
      <trkpt lat="59.9728689" lon="17.7205986">
        <ele>33.3029</ele>
        <time>2013-04-12T19:16:18Z</time>
      </trkpt>
      <trkpt lat="59.9728432" lon="17.7205742">
        <ele>33.7834</ele>
        <time>2013-04-12T19:16:19Z</time>
      </trkpt>
      <trkpt lat="59.9728219" lon="17.7205484">
        <ele>33.7834</ele>
        <time>2013-04-12T19:16:20Z</time>
      </trkpt>
      <trkpt lat="59.9727991" lon="17.720524">
        <ele>34.2642</ele>
        <time>2013-04-12T19:16:21Z</time>
      </trkpt>
      <trkpt lat="59.9727769" lon="17.7204994">
        <ele>34.2642</ele>
        <time>2013-04-12T19:16:22Z</time>
      </trkpt>
      <trkpt lat="59.9727553" lon="17.7204739">
        <ele>34.2642</ele>
        <time>2013-04-12T19:16:23Z</time>
      </trkpt>
      <trkpt lat="59.9727333" lon="17.7204511">
        <ele>34.2642</ele>
        <time>2013-04-12T19:16:24Z</time>
      </trkpt>
      <trkpt lat="59.9727109" lon="17.7204287">
        <ele>34.2642</ele>
        <time>2013-04-12T19:16:25Z</time>
      </trkpt>
      <trkpt lat="59.9726897" lon="17.720408">
        <ele>34.2642</ele>
        <time>2013-04-12T19:16:26Z</time>
      </trkpt>
      <trkpt lat="59.9726685" lon="17.7203905">
        <ele>34.7449</ele>
        <time>2013-04-12T19:16:27Z</time>
      </trkpt>
      <trkpt lat="59.9726526" lon="17.7203719">
        <ele>34.7449</ele>
        <time>2013-04-12T19:16:28Z</time>
      </trkpt>
      <trkpt lat="59.9726371" lon="17.7203547">
        <ele>34.7449</ele>
        <time>2013-04-12T19:16:29Z</time>
      </trkpt>
      <trkpt lat="59.9726163" lon="17.7203376">
        <ele>34.7449</ele>
        <time>2013-04-12T19:16:30Z</time>
      </trkpt>
      <trkpt lat="59.9725982" lon="17.7203186">
        <ele>34.7449</ele>
        <time>2013-04-12T19:16:31Z</time>
      </trkpt>
      <trkpt lat="59.9725752" lon="17.7203008">
        <ele>35.2255</ele>
        <time>2013-04-12T19:16:32Z</time>
      </trkpt>
      <trkpt lat="59.9725504" lon="17.7202813">
        <ele>35.7061</ele>
        <time>2013-04-12T19:16:33Z</time>
      </trkpt>
      <trkpt lat="59.9725213" lon="17.7202605">
        <ele>35.7061</ele>
        <time>2013-04-12T19:16:34Z</time>
      </trkpt>
      <trkpt lat="59.9724935" lon="17.7202403">
        <ele>36.1868</ele>
        <time>2013-04-12T19:16:35Z</time>
      </trkpt>
      <trkpt lat="59.9724699" lon="17.7202178">
        <ele>36.1868</ele>
        <time>2013-04-12T19:16:36Z</time>
      </trkpt>
      <trkpt lat="59.9724475" lon="17.7201942">
        <ele>36.1868</ele>
        <time>2013-04-12T19:16:37Z</time>
      </trkpt>
      <trkpt lat="59.9724247" lon="17.7201725">
        <ele>36.1868</ele>
        <time>2013-04-12T19:16:38Z</time>
      </trkpt>
      <trkpt lat="59.9723999" lon="17.7201546">
        <ele>36.6675</ele>
        <time>2013-04-12T19:16:39Z</time>
      </trkpt>
      <trkpt lat="59.9723746" lon="17.720138">
        <ele>36.6675</ele>
        <time>2013-04-12T19:16:40Z</time>
      </trkpt>
      <trkpt lat="59.9723501" lon="17.7201201">
        <ele>36.6675</ele>
        <time>2013-04-12T19:16:41Z</time>
      </trkpt>
      <trkpt lat="59.9723201" lon="17.7200973">
        <ele>36.1868</ele>
        <time>2013-04-12T19:16:42Z</time>
      </trkpt>
      <trkpt lat="59.9722895" lon="17.720074">
        <ele>36.1868</ele>
        <time>2013-04-12T19:16:43Z</time>
      </trkpt>
      <trkpt lat="59.9722668" lon="17.7200517">
        <ele>36.1868</ele>
        <time>2013-04-12T19:16:44Z</time>
      </trkpt>
      <trkpt lat="59.9722482" lon="17.7200345">
        <ele>36.6675</ele>
        <time>2013-04-12T19:16:45Z</time>
      </trkpt>
      <trkpt lat="59.9722277" lon="17.7200149">
        <ele>36.6675</ele>
        <time>2013-04-12T19:16:46Z</time>
      </trkpt>
      <trkpt lat="59.9722071" lon="17.7199906">
        <ele>36.1868</ele>
        <time>2013-04-12T19:16:47Z</time>
      </trkpt>
      <trkpt lat="59.9721877" lon="17.7199731">
        <ele>36.6675</ele>
        <time>2013-04-12T19:16:48Z</time>
      </trkpt>
      <trkpt lat="59.9721662" lon="17.7199577">
        <ele>37.1481</ele>
        <time>2013-04-12T19:16:49Z</time>
      </trkpt>
      <trkpt lat="59.9721449" lon="17.7199403">
        <ele>37.1481</ele>
        <time>2013-04-12T19:16:50Z</time>
      </trkpt>
      <trkpt lat="59.9721221" lon="17.719923">
        <ele>37.1481</ele>
        <time>2013-04-12T19:16:51Z</time>
      </trkpt>
      <trkpt lat="59.9721019" lon="17.719903">
        <ele>37.6287</ele>
        <time>2013-04-12T19:16:52Z</time>
      </trkpt>
      <trkpt lat="59.9720829" lon="17.719884">
        <ele>37.6287</ele>
        <time>2013-04-12T19:16:53Z</time>
      </trkpt>
      <trkpt lat="59.9720612" lon="17.7198661">
        <ele>37.1481</ele>
        <time>2013-04-12T19:16:54Z</time>
      </trkpt>
      <trkpt lat="59.9720366" lon="17.7198471">
        <ele>37.6287</ele>
        <time>2013-04-12T19:16:55Z</time>
      </trkpt>
      <trkpt lat="59.9720098" lon="17.7198265">
        <ele>37.1481</ele>
        <time>2013-04-12T19:16:56Z</time>
      </trkpt>
      <trkpt lat="59.9719811" lon="17.7198021">
        <ele>37.1481</ele>
        <time>2013-04-12T19:16:57Z</time>
      </trkpt>
      <trkpt lat="59.9719515" lon="17.7197783">
        <ele>37.1481</ele>
        <time>2013-04-12T19:16:58Z</time>
      </trkpt>
      <trkpt lat="59.9719233" lon="17.7197616">
        <ele>37.6287</ele>
        <time>2013-04-12T19:16:59Z</time>
      </trkpt>
      <trkpt lat="59.9719004" lon="17.719743">
        <ele>37.1481</ele>
        <time>2013-04-12T19:17:00Z</time>
      </trkpt>
      <trkpt lat="59.9718834" lon="17.7197238">
        <ele>37.1481</ele>
        <time>2013-04-12T19:17:01Z</time>
      </trkpt>
      <trkpt lat="59.9718628" lon="17.7197039">
        <ele>37.1481</ele>
        <time>2013-04-12T19:17:02Z</time>
      </trkpt>
      <trkpt lat="59.9718397" lon="17.7196824">
        <ele>37.1481</ele>
        <time>2013-04-12T19:17:03Z</time>
      </trkpt>
      <trkpt lat="59.971816" lon="17.7196645">
        <ele>37.1481</ele>
        <time>2013-04-12T19:17:04Z</time>
      </trkpt>
      <trkpt lat="59.9717944" lon="17.71965">
        <ele>37.6287</ele>
        <time>2013-04-12T19:17:05Z</time>
      </trkpt>
      <trkpt lat="59.9717762" lon="17.7196353">
        <ele>37.6287</ele>
        <time>2013-04-12T19:17:06Z</time>
      </trkpt>
      <trkpt lat="59.9717558" lon="17.719619">
        <ele>38.1094</ele>
        <time>2013-04-12T19:17:07Z</time>
      </trkpt>
      <trkpt lat="59.9717346" lon="17.7196024">
        <ele>38.5901</ele>
        <time>2013-04-12T19:17:08Z</time>
      </trkpt>
      <trkpt lat="59.9717119" lon="17.7195814">
        <ele>38.5901</ele>
        <time>2013-04-12T19:17:09Z</time>
      </trkpt>
      <trkpt lat="59.9716884" lon="17.7195626">
        <ele>38.5901</ele>
        <time>2013-04-12T19:17:10Z</time>
      </trkpt>
      <trkpt lat="59.9716664" lon="17.7195459">
        <ele>39.0707</ele>
        <time>2013-04-12T19:17:11Z</time>
      </trkpt>
      <trkpt lat="59.9716446" lon="17.7195263">
        <ele>39.5513</ele>
        <time>2013-04-12T19:17:12Z</time>
      </trkpt>
      <trkpt lat="59.9716252" lon="17.7195068">
        <ele>39.5513</ele>
        <time>2013-04-12T19:17:13Z</time>
      </trkpt>
      <trkpt lat="59.9716056" lon="17.7194865">
        <ele>39.5513</ele>
        <time>2013-04-12T19:17:14Z</time>
      </trkpt>
      <trkpt lat="59.9715856" lon="17.7194684">
        <ele>40.0321</ele>
        <time>2013-04-12T19:17:15Z</time>
      </trkpt>
      <trkpt lat="59.9715656" lon="17.7194513">
        <ele>40.0321</ele>
        <time>2013-04-12T19:17:16Z</time>
      </trkpt>
      <trkpt lat="59.9715461" lon="17.7194302">
        <ele>40.5128</ele>
        <time>2013-04-12T19:17:17Z</time>
      </trkpt>
      <trkpt lat="59.9715275" lon="17.7194126">
        <ele>40.5128</ele>
        <time>2013-04-12T19:17:18Z</time>
      </trkpt>
      <trkpt lat="59.9715073" lon="17.7193974">
        <ele>40.5128</ele>
        <time>2013-04-12T19:17:19Z</time>
      </trkpt>
      <trkpt lat="59.9714848" lon="17.7193767">
        <ele>40.9934</ele>
        <time>2013-04-12T19:17:20Z</time>
      </trkpt>
      <trkpt lat="59.9714621" lon="17.7193572">
        <ele>40.9934</ele>
        <time>2013-04-12T19:17:21Z</time>
      </trkpt>
      <trkpt lat="59.9714405" lon="17.7193408">
        <ele>41.474</ele>
        <time>2013-04-12T19:17:22Z</time>
      </trkpt>
      <trkpt lat="59.9714178" lon="17.7193211">
        <ele>41.474</ele>
        <time>2013-04-12T19:17:23Z</time>
      </trkpt>
      <trkpt lat="59.9713968" lon="17.7193005">
        <ele>40.9934</ele>
        <time>2013-04-12T19:17:24Z</time>
      </trkpt>
      <trkpt lat="59.9713743" lon="17.7192829">
        <ele>41.474</ele>
        <time>2013-04-12T19:17:25Z</time>
      </trkpt>
      <trkpt lat="59.9713538" lon="17.7192633">
        <ele>40.9934</ele>
        <time>2013-04-12T19:17:26Z</time>
      </trkpt>
      <trkpt lat="59.9713348" lon="17.7192457">
        <ele>40.9934</ele>
        <time>2013-04-12T19:17:27Z</time>
      </trkpt>
      <trkpt lat="59.9713156" lon="17.7192277">
        <ele>40.9934</ele>
        <time>2013-04-12T19:17:28Z</time>
      </trkpt>
      <trkpt lat="59.9712981" lon="17.7192075">
        <ele>40.5128</ele>
        <time>2013-04-12T19:17:29Z</time>
      </trkpt>
      <trkpt lat="59.9712828" lon="17.7191873">
        <ele>40.0321</ele>
        <time>2013-04-12T19:17:30Z</time>
      </trkpt>
      <trkpt lat="59.9712688" lon="17.7191732">
        <ele>40.5128</ele>
        <time>2013-04-12T19:17:31Z</time>
      </trkpt>
      <trkpt lat="59.9712649" lon="17.7191652">
        <ele>40.0321</ele>
        <time>2013-04-12T19:17:32Z</time>
      </trkpt>
      <trkpt lat="59.971247" lon="17.719146">
        <ele>39.5513</ele>
        <time>2013-04-12T19:17:33Z</time>
      </trkpt>
      <trkpt lat="59.9712264" lon="17.7191281">
        <ele>39.5513</ele>
        <time>2013-04-12T19:17:34Z</time>
      </trkpt>
      <trkpt lat="59.9712062" lon="17.7191173">
        <ele>40.0321</ele>
        <time>2013-04-12T19:17:35Z</time>
      </trkpt>
      <trkpt lat="59.9711859" lon="17.7190992">
        <ele>40.5128</ele>
        <time>2013-04-12T19:17:36Z</time>
      </trkpt>
      <trkpt lat="59.9711636" lon="17.7190776">
        <ele>40.5128</ele>
        <time>2013-04-12T19:17:37Z</time>
      </trkpt>
      <trkpt lat="59.9711421" lon="17.7190608">
        <ele>40.5128</ele>
        <time>2013-04-12T19:17:38Z</time>
      </trkpt>
      <trkpt lat="59.9711172" lon="17.7190424">
        <ele>40.5128</ele>
        <time>2013-04-12T19:17:39Z</time>
      </trkpt>
      <trkpt lat="59.9710986" lon="17.7190203">
        <ele>40.5128</ele>
        <time>2013-04-12T19:17:40Z</time>
      </trkpt>
      <trkpt lat="59.9710767" lon="17.7190016">
        <ele>40.9934</ele>
        <time>2013-04-12T19:17:41Z</time>
      </trkpt>
      <trkpt lat="59.9710551" lon="17.7189799">
        <ele>40.9934</ele>
        <time>2013-04-12T19:17:42Z</time>
      </trkpt>
      <trkpt lat="59.9710349" lon="17.7189556">
        <ele>40.5128</ele>
        <time>2013-04-12T19:17:43Z</time>
      </trkpt>
      <trkpt lat="59.9710127" lon="17.7189364">
        <ele>40.5128</ele>
        <time>2013-04-12T19:17:44Z</time>
      </trkpt>
      <trkpt lat="59.9709914" lon="17.71892">
        <ele>40.5128</ele>
        <time>2013-04-12T19:17:45Z</time>
      </trkpt>
      <trkpt lat="59.9709718" lon="17.7189022">
        <ele>40.0321</ele>
        <time>2013-04-12T19:17:46Z</time>
      </trkpt>
      <trkpt lat="59.970952" lon="17.7188846">
        <ele>40.0321</ele>
        <time>2013-04-12T19:17:47Z</time>
      </trkpt>
      <trkpt lat="59.9709323" lon="17.718867">
        <ele>40.0321</ele>
        <time>2013-04-12T19:17:48Z</time>
      </trkpt>
      <trkpt lat="59.9709127" lon="17.7188484">
        <ele>40.0321</ele>
        <time>2013-04-12T19:17:49Z</time>
      </trkpt>
      <trkpt lat="59.9708915" lon="17.7188302">
        <ele>39.5513</ele>
        <time>2013-04-12T19:17:50Z</time>
      </trkpt>
      <trkpt lat="59.9708716" lon="17.7188116">
        <ele>39.5513</ele>
        <time>2013-04-12T19:17:51Z</time>
      </trkpt>
      <trkpt lat="59.9708519" lon="17.7187924">
        <ele>39.5513</ele>
        <time>2013-04-12T19:17:52Z</time>
      </trkpt>
      <trkpt lat="59.9708313" lon="17.7187747">
        <ele>39.0707</ele>
        <time>2013-04-12T19:17:53Z</time>
      </trkpt>
      <trkpt lat="59.9708079" lon="17.7187554">
        <ele>39.5513</ele>
        <time>2013-04-12T19:17:54Z</time>
      </trkpt>
      <trkpt lat="59.9707868" lon="17.718738">
        <ele>39.5513</ele>
        <time>2013-04-12T19:17:55Z</time>
      </trkpt>
      <trkpt lat="59.9707664" lon="17.7187246">
        <ele>39.5513</ele>
        <time>2013-04-12T19:17:56Z</time>
      </trkpt>
      <trkpt lat="59.9707453" lon="17.7187071">
        <ele>39.5513</ele>
        <time>2013-04-12T19:17:57Z</time>
      </trkpt>
      <trkpt lat="59.9707242" lon="17.7186894">
        <ele>39.5513</ele>
        <time>2013-04-12T19:17:58Z</time>
      </trkpt>
      <trkpt lat="59.9707018" lon="17.7186744">
        <ele>39.5513</ele>
        <time>2013-04-12T19:17:59Z</time>
      </trkpt>
      <trkpt lat="59.9706795" lon="17.7186581">
        <ele>40.0321</ele>
        <time>2013-04-12T19:18:00Z</time>
      </trkpt>
      <trkpt lat="59.970657" lon="17.7186438">
        <ele>40.0321</ele>
        <time>2013-04-12T19:18:01Z</time>
      </trkpt>
      <trkpt lat="59.9706337" lon="17.7186293">
        <ele>40.0321</ele>
        <time>2013-04-12T19:18:02Z</time>
      </trkpt>
      <trkpt lat="59.9706116" lon="17.7186075">
        <ele>40.0321</ele>
        <time>2013-04-12T19:18:03Z</time>
      </trkpt>
      <trkpt lat="59.9705929" lon="17.7185863">
        <ele>39.5513</ele>
        <time>2013-04-12T19:18:04Z</time>
      </trkpt>
      <trkpt lat="59.9705728" lon="17.7185655">
        <ele>39.5513</ele>
        <time>2013-04-12T19:18:05Z</time>
      </trkpt>
      <trkpt lat="59.97055" lon="17.7185382">
        <ele>39.0707</ele>
        <time>2013-04-12T19:18:06Z</time>
      </trkpt>
      <trkpt lat="59.9705258" lon="17.7185113">
        <ele>39.0707</ele>
        <time>2013-04-12T19:18:07Z</time>
      </trkpt>
      <trkpt lat="59.9705027" lon="17.7184879">
        <ele>38.5901</ele>
        <time>2013-04-12T19:18:08Z</time>
      </trkpt>
      <trkpt lat="59.9704811" lon="17.7184671">
        <ele>38.5901</ele>
        <time>2013-04-12T19:18:09Z</time>
      </trkpt>
      <trkpt lat="59.9704583" lon="17.7184531">
        <ele>38.5901</ele>
        <time>2013-04-12T19:18:10Z</time>
      </trkpt>
      <trkpt lat="59.970434" lon="17.7184333">
        <ele>38.5901</ele>
        <time>2013-04-12T19:18:11Z</time>
      </trkpt>
      <trkpt lat="59.9704099" lon="17.7184131">
        <ele>39.0707</ele>
        <time>2013-04-12T19:18:12Z</time>
      </trkpt>
      <trkpt lat="59.9703862" lon="17.7183944">
        <ele>39.0707</ele>
        <time>2013-04-12T19:18:13Z</time>
      </trkpt>
      <trkpt lat="59.9703677" lon="17.7183729">
        <ele>39.0707</ele>
        <time>2013-04-12T19:18:14Z</time>
      </trkpt>
      <trkpt lat="59.9703476" lon="17.7183494">
        <ele>38.5901</ele>
        <time>2013-04-12T19:18:15Z</time>
      </trkpt>
      <trkpt lat="59.970325" lon="17.7183272">
        <ele>38.5901</ele>
        <time>2013-04-12T19:18:16Z</time>
      </trkpt>
      <trkpt lat="59.9703032" lon="17.7183009">
        <ele>38.5901</ele>
        <time>2013-04-12T19:18:17Z</time>
      </trkpt>
      <trkpt lat="59.9702781" lon="17.7182737">
        <ele>38.1094</ele>
        <time>2013-04-12T19:18:18Z</time>
      </trkpt>
      <trkpt lat="59.9702545" lon="17.7182525">
        <ele>37.6287</ele>
        <time>2013-04-12T19:18:19Z</time>
      </trkpt>
      <trkpt lat="59.9702325" lon="17.7182314">
        <ele>37.6287</ele>
        <time>2013-04-12T19:18:20Z</time>
      </trkpt>
      <trkpt lat="59.9702143" lon="17.7182095">
        <ele>37.1481</ele>
        <time>2013-04-12T19:18:21Z</time>
      </trkpt>
      <trkpt lat="59.9701931" lon="17.7181863">
        <ele>37.1481</ele>
        <time>2013-04-12T19:18:22Z</time>
      </trkpt>
      <trkpt lat="59.9701704" lon="17.7181651">
        <ele>36.6675</ele>
        <time>2013-04-12T19:18:23Z</time>
      </trkpt>
      <trkpt lat="59.9701452" lon="17.7181452">
        <ele>36.6675</ele>
        <time>2013-04-12T19:18:24Z</time>
      </trkpt>
      <trkpt lat="59.9701206" lon="17.7181238">
        <ele>36.6675</ele>
        <time>2013-04-12T19:18:25Z</time>
      </trkpt>
      <trkpt lat="59.9700987" lon="17.7181">
        <ele>36.6675</ele>
        <time>2013-04-12T19:18:26Z</time>
      </trkpt>
      <trkpt lat="59.970074" lon="17.7180836">
        <ele>36.6675</ele>
        <time>2013-04-12T19:18:27Z</time>
      </trkpt>
      <trkpt lat="59.9700496" lon="17.718067">
        <ele>37.1481</ele>
        <time>2013-04-12T19:18:28Z</time>
      </trkpt>
      <trkpt lat="59.9700263" lon="17.7180478">
        <ele>37.1481</ele>
        <time>2013-04-12T19:18:29Z</time>
      </trkpt>
      <trkpt lat="59.9700057" lon="17.7180273">
        <ele>37.1481</ele>
        <time>2013-04-12T19:18:30Z</time>
      </trkpt>
      <trkpt lat="59.9699854" lon="17.7180056">
        <ele>37.1481</ele>
        <time>2013-04-12T19:18:31Z</time>
      </trkpt>
      <trkpt lat="59.9699666" lon="17.7179854">
        <ele>37.1481</ele>
        <time>2013-04-12T19:18:32Z</time>
      </trkpt>
      <trkpt lat="59.9699476" lon="17.7179656">
        <ele>36.6675</ele>
        <time>2013-04-12T19:18:33Z</time>
      </trkpt>
      <trkpt lat="59.969929" lon="17.7179481">
        <ele>37.1481</ele>
        <time>2013-04-12T19:18:34Z</time>
      </trkpt>
      <trkpt lat="59.9699103" lon="17.7179325">
        <ele>37.1481</ele>
        <time>2013-04-12T19:18:35Z</time>
      </trkpt>
      <trkpt lat="59.9698896" lon="17.7179166">
        <ele>37.1481</ele>
        <time>2013-04-12T19:18:36Z</time>
      </trkpt>
      <trkpt lat="59.9698461" lon="17.7178776">
        <ele>37.1481</ele>
        <time>2013-04-12T19:18:38Z</time>
      </trkpt>
      <trkpt lat="59.9698222" lon="17.7178584">
        <ele>37.1481</ele>
        <time>2013-04-12T19:18:39Z</time>
      </trkpt>
      <trkpt lat="59.9697998" lon="17.7178377">
        <ele>36.6675</ele>
        <time>2013-04-12T19:18:40Z</time>
      </trkpt>
      <trkpt lat="59.9697806" lon="17.7178213">
        <ele>36.6675</ele>
        <time>2013-04-12T19:18:41Z</time>
      </trkpt>
      <trkpt lat="59.9697593" lon="17.717803">
        <ele>36.6675</ele>
        <time>2013-04-12T19:18:42Z</time>
      </trkpt>
      <trkpt lat="59.9697376" lon="17.7177842">
        <ele>36.6675</ele>
        <time>2013-04-12T19:18:43Z</time>
      </trkpt>
      <trkpt lat="59.9697146" lon="17.7177673">
        <ele>36.6675</ele>
        <time>2013-04-12T19:18:44Z</time>
      </trkpt>
      <trkpt lat="59.9696922" lon="17.7177482">
        <ele>36.6675</ele>
        <time>2013-04-12T19:18:45Z</time>
      </trkpt>
      <trkpt lat="59.9696693" lon="17.7177314">
        <ele>36.1868</ele>
        <time>2013-04-12T19:18:46Z</time>
      </trkpt>
      <trkpt lat="59.9696461" lon="17.7177127">
        <ele>36.1868</ele>
        <time>2013-04-12T19:18:47Z</time>
      </trkpt>
      <trkpt lat="59.9696238" lon="17.7176972">
        <ele>36.1868</ele>
        <time>2013-04-12T19:18:48Z</time>
      </trkpt>
      <trkpt lat="59.9696025" lon="17.717685">
        <ele>36.1868</ele>
        <time>2013-04-12T19:18:49Z</time>
      </trkpt>
      <trkpt lat="59.9695813" lon="17.7176735">
        <ele>35.7061</ele>
        <time>2013-04-12T19:18:50Z</time>
      </trkpt>
      <trkpt lat="59.9695597" lon="17.7176615">
        <ele>36.1868</ele>
        <time>2013-04-12T19:18:51Z</time>
      </trkpt>
      <trkpt lat="59.9695389" lon="17.7176491">
        <ele>36.1868</ele>
        <time>2013-04-12T19:18:52Z</time>
      </trkpt>
      <trkpt lat="59.9695182" lon="17.7176356">
        <ele>36.1868</ele>
        <time>2013-04-12T19:18:53Z</time>
      </trkpt>
      <trkpt lat="59.9694951" lon="17.7176208">
        <ele>36.1868</ele>
        <time>2013-04-12T19:18:54Z</time>
      </trkpt>
      <trkpt lat="59.9694725" lon="17.717608">
        <ele>36.1868</ele>
        <time>2013-04-12T19:18:55Z</time>
      </trkpt>
      <trkpt lat="59.9694514" lon="17.7175922">
        <ele>36.1868</ele>
        <time>2013-04-12T19:18:56Z</time>
      </trkpt>
      <trkpt lat="59.9694286" lon="17.7175772">
        <ele>36.1868</ele>
        <time>2013-04-12T19:18:57Z</time>
      </trkpt>
      <trkpt lat="59.9694064" lon="17.7175647">
        <ele>36.1868</ele>
        <time>2013-04-12T19:18:58Z</time>
      </trkpt>
      <trkpt lat="59.9693841" lon="17.7175501">
        <ele>36.1868</ele>
        <time>2013-04-12T19:18:59Z</time>
      </trkpt>
      <trkpt lat="59.969361" lon="17.7175372">
        <ele>36.1868</ele>
        <time>2013-04-12T19:19:00Z</time>
      </trkpt>
      <trkpt lat="59.9693395" lon="17.7175268">
        <ele>36.1868</ele>
        <time>2013-04-12T19:19:01Z</time>
      </trkpt>
      <trkpt lat="59.9693175" lon="17.7175138">
        <ele>36.1868</ele>
        <time>2013-04-12T19:19:02Z</time>
      </trkpt>
      <trkpt lat="59.9692954" lon="17.7175035">
        <ele>36.1868</ele>
        <time>2013-04-12T19:19:03Z</time>
      </trkpt>
      <trkpt lat="59.9692726" lon="17.7174933">
        <ele>36.1868</ele>
        <time>2013-04-12T19:19:04Z</time>
      </trkpt>
      <trkpt lat="59.9692498" lon="17.7174834">
        <ele>36.1868</ele>
        <time>2013-04-12T19:19:05Z</time>
      </trkpt>
      <trkpt lat="59.9692261" lon="17.7174771">
        <ele>36.6675</ele>
        <time>2013-04-12T19:19:06Z</time>
      </trkpt>
      <trkpt lat="59.9692038" lon="17.7174699">
        <ele>36.6675</ele>
        <time>2013-04-12T19:19:07Z</time>
      </trkpt>
      <trkpt lat="59.9691803" lon="17.7174617">
        <ele>36.6675</ele>
        <time>2013-04-12T19:19:08Z</time>
      </trkpt>
      <trkpt lat="59.9691534" lon="17.7174528">
        <ele>36.6675</ele>
        <time>2013-04-12T19:19:09Z</time>
      </trkpt>
      <trkpt lat="59.9691285" lon="17.7174409">
        <ele>37.1481</ele>
        <time>2013-04-12T19:19:10Z</time>
      </trkpt>
      <trkpt lat="59.9691049" lon="17.7174302">
        <ele>37.1481</ele>
        <time>2013-04-12T19:19:11Z</time>
      </trkpt>
      <trkpt lat="59.9690833" lon="17.7174244">
        <ele>37.1481</ele>
        <time>2013-04-12T19:19:12Z</time>
      </trkpt>
      <trkpt lat="59.9690618" lon="17.7174172">
        <ele>37.1481</ele>
        <time>2013-04-12T19:19:13Z</time>
      </trkpt>
      <trkpt lat="59.9690382" lon="17.7174104">
        <ele>37.1481</ele>
        <time>2013-04-12T19:19:14Z</time>
      </trkpt>
      <trkpt lat="59.9690151" lon="17.7174087">
        <ele>37.1481</ele>
        <time>2013-04-12T19:19:15Z</time>
      </trkpt>
      <trkpt lat="59.9689913" lon="17.7174036">
        <ele>37.1481</ele>
        <time>2013-04-12T19:19:16Z</time>
      </trkpt>
      <trkpt lat="59.9689668" lon="17.7174005">
        <ele>37.6287</ele>
        <time>2013-04-12T19:19:17Z</time>
      </trkpt>
      <trkpt lat="59.9689494" lon="17.7173964">
        <ele>37.6287</ele>
        <time>2013-04-12T19:19:18Z</time>
      </trkpt>
      <trkpt lat="59.9689442" lon="17.7173736">
        <ele>37.1481</ele>
        <time>2013-04-12T19:19:19Z</time>
      </trkpt>
      <trkpt lat="59.9689555" lon="17.7173399">
        <ele>37.1481</ele>
        <time>2013-04-12T19:19:20Z</time>
      </trkpt>
      <trkpt lat="59.9689789" lon="17.7173151">
        <ele>37.1481</ele>
        <time>2013-04-12T19:19:21Z</time>
      </trkpt>
      <trkpt lat="59.9690017" lon="17.7173056">
        <ele>37.1481</ele>
        <time>2013-04-12T19:19:22Z</time>
      </trkpt>
      <trkpt lat="59.9690203" lon="17.7173011">
        <ele>37.1481</ele>
        <time>2013-04-12T19:19:23Z</time>
      </trkpt>
      <trkpt lat="59.9690425" lon="17.717301">
        <ele>37.1481</ele>
        <time>2013-04-12T19:19:24Z</time>
      </trkpt>
      <trkpt lat="59.9690642" lon="17.7173068">
        <ele>37.6287</ele>
        <time>2013-04-12T19:19:25Z</time>
      </trkpt>
      <trkpt lat="59.9690856" lon="17.7173162">
        <ele>37.1481</ele>
        <time>2013-04-12T19:19:26Z</time>
      </trkpt>
      <trkpt lat="59.9691067" lon="17.7173235">
        <ele>37.6287</ele>
        <time>2013-04-12T19:19:27Z</time>
      </trkpt>
      <trkpt lat="59.9691248" lon="17.7173312">
        <ele>37.1481</ele>
        <time>2013-04-12T19:19:28Z</time>
      </trkpt>
      <trkpt lat="59.9691429" lon="17.7173379">
        <ele>36.6675</ele>
        <time>2013-04-12T19:19:29Z</time>
      </trkpt>
      <trkpt lat="59.9691621" lon="17.7173456">
        <ele>36.1868</ele>
        <time>2013-04-12T19:19:30Z</time>
      </trkpt>
      <trkpt lat="59.9691814" lon="17.717355">
        <ele>35.7061</ele>
        <time>2013-04-12T19:19:31Z</time>
      </trkpt>
      <trkpt lat="59.9692021" lon="17.7173644">
        <ele>35.2255</ele>
        <time>2013-04-12T19:19:32Z</time>
      </trkpt>
      <trkpt lat="59.969224" lon="17.7173768">
        <ele>34.7449</ele>
        <time>2013-04-12T19:19:33Z</time>
      </trkpt>
      <trkpt lat="59.9692453" lon="17.7173906">
        <ele>34.2642</ele>
        <time>2013-04-12T19:19:34Z</time>
      </trkpt>
      <trkpt lat="59.9692685" lon="17.7174036">
        <ele>34.2642</ele>
        <time>2013-04-12T19:19:35Z</time>
      </trkpt>
      <trkpt lat="59.9692902" lon="17.7174176">
        <ele>33.7834</ele>
        <time>2013-04-12T19:19:36Z</time>
      </trkpt>
      <trkpt lat="59.969312" lon="17.7174316">
        <ele>33.3029</ele>
        <time>2013-04-12T19:19:37Z</time>
      </trkpt>
      <trkpt lat="59.969334" lon="17.7174408">
        <ele>32.8223</ele>
        <time>2013-04-12T19:19:38Z</time>
      </trkpt>
      <trkpt lat="59.9693548" lon="17.7174508">
        <ele>32.8223</ele>
        <time>2013-04-12T19:19:39Z</time>
      </trkpt>
      <trkpt lat="59.9693752" lon="17.7174632">
        <ele>32.3416</ele>
        <time>2013-04-12T19:19:40Z</time>
      </trkpt>
      <trkpt lat="59.9693974" lon="17.7174735">
        <ele>31.8607</ele>
        <time>2013-04-12T19:19:41Z</time>
      </trkpt>
      <trkpt lat="59.9694175" lon="17.7174838">
        <ele>31.3801</ele>
        <time>2013-04-12T19:19:42Z</time>
      </trkpt>
      <trkpt lat="59.9694361" lon="17.717493">
        <ele>30.8995</ele>
        <time>2013-04-12T19:19:43Z</time>
      </trkpt>
      <trkpt lat="59.9694555" lon="17.7175021">
        <ele>30.4188</ele>
        <time>2013-04-12T19:19:44Z</time>
      </trkpt>
      <trkpt lat="59.9694776" lon="17.717516">
        <ele>29.9381</ele>
        <time>2013-04-12T19:19:45Z</time>
      </trkpt>
      <trkpt lat="59.9695005" lon="17.717533">
        <ele>29.9381</ele>
        <time>2013-04-12T19:19:46Z</time>
      </trkpt>
      <trkpt lat="59.969521" lon="17.7175474">
        <ele>29.4575</ele>
        <time>2013-04-12T19:19:47Z</time>
      </trkpt>
      <trkpt lat="59.9695418" lon="17.7175601">
        <ele>29.4575</ele>
        <time>2013-04-12T19:19:48Z</time>
      </trkpt>
      <trkpt lat="59.9695658" lon="17.7175759">
        <ele>28.9769</ele>
        <time>2013-04-12T19:19:49Z</time>
      </trkpt>
      <trkpt lat="59.9695875" lon="17.7175907">
        <ele>28.9769</ele>
        <time>2013-04-12T19:19:50Z</time>
      </trkpt>
      <trkpt lat="59.9696081" lon="17.7176031">
        <ele>28.4962</ele>
        <time>2013-04-12T19:19:51Z</time>
      </trkpt>
      <trkpt lat="59.9696306" lon="17.7176184">
        <ele>28.4962</ele>
        <time>2013-04-12T19:19:52Z</time>
      </trkpt>
      <trkpt lat="59.9696523" lon="17.7176353">
        <ele>28.0155</ele>
        <time>2013-04-12T19:19:53Z</time>
      </trkpt>
      <trkpt lat="59.9696755" lon="17.7176514">
        <ele>27.5349</ele>
        <time>2013-04-12T19:19:54Z</time>
      </trkpt>
      <trkpt lat="59.9696978" lon="17.7176671">
        <ele>28.0155</ele>
        <time>2013-04-12T19:19:55Z</time>
      </trkpt>
      <trkpt lat="59.9697195" lon="17.7176803">
        <ele>27.5349</ele>
        <time>2013-04-12T19:19:56Z</time>
      </trkpt>
      <trkpt lat="59.9697431" lon="17.7176974">
        <ele>27.5349</ele>
        <time>2013-04-12T19:19:57Z</time>
      </trkpt>
      <trkpt lat="59.9697659" lon="17.717718">
        <ele>27.5349</ele>
        <time>2013-04-12T19:19:58Z</time>
      </trkpt>
      <trkpt lat="59.9697883" lon="17.7177367">
        <ele>27.0543</ele>
        <time>2013-04-12T19:19:59Z</time>
      </trkpt>
      <trkpt lat="59.969812" lon="17.7177533">
        <ele>27.5349</ele>
        <time>2013-04-12T19:20:00Z</time>
      </trkpt>
      <trkpt lat="59.969834" lon="17.7177695">
        <ele>27.0543</ele>
        <time>2013-04-12T19:20:01Z</time>
      </trkpt>
      <trkpt lat="59.9698547" lon="17.717787">
        <ele>27.0543</ele>
        <time>2013-04-12T19:20:02Z</time>
      </trkpt>
      <trkpt lat="59.969875" lon="17.717806">
        <ele>27.0543</ele>
        <time>2013-04-12T19:20:03Z</time>
      </trkpt>
      <trkpt lat="59.9698966" lon="17.7178288">
        <ele>27.5349</ele>
        <time>2013-04-12T19:20:04Z</time>
      </trkpt>
      <trkpt lat="59.9699186" lon="17.7178505">
        <ele>28.0155</ele>
        <time>2013-04-12T19:20:05Z</time>
      </trkpt>
      <trkpt lat="59.9699391" lon="17.7178684">
        <ele>28.0155</ele>
        <time>2013-04-12T19:20:06Z</time>
      </trkpt>
      <trkpt lat="59.9699606" lon="17.7178896">
        <ele>28.0155</ele>
        <time>2013-04-12T19:20:07Z</time>
      </trkpt>
      <trkpt lat="59.9699838" lon="17.7179132">
        <ele>28.0155</ele>
        <time>2013-04-12T19:20:08Z</time>
      </trkpt>
      <trkpt lat="59.9700075" lon="17.7179381">
        <ele>28.4962</ele>
        <time>2013-04-12T19:20:09Z</time>
      </trkpt>
      <trkpt lat="59.9700297" lon="17.7179632">
        <ele>28.4962</ele>
        <time>2013-04-12T19:20:10Z</time>
      </trkpt>
      <trkpt lat="59.9700506" lon="17.7179846">
        <ele>28.0155</ele>
        <time>2013-04-12T19:20:11Z</time>
      </trkpt>
      <trkpt lat="59.9700714" lon="17.7180025">
        <ele>28.0155</ele>
        <time>2013-04-12T19:20:12Z</time>
      </trkpt>
      <trkpt lat="59.9700911" lon="17.7180201">
        <ele>28.0155</ele>
        <time>2013-04-12T19:20:13Z</time>
      </trkpt>
      <trkpt lat="59.9701128" lon="17.7180377">
        <ele>28.0155</ele>
        <time>2013-04-12T19:20:14Z</time>
      </trkpt>
      <trkpt lat="59.9701349" lon="17.7180558">
        <ele>28.0155</ele>
        <time>2013-04-12T19:20:15Z</time>
      </trkpt>
      <trkpt lat="59.9701574" lon="17.7180744">
        <ele>28.0155</ele>
        <time>2013-04-12T19:20:16Z</time>
      </trkpt>
      <trkpt lat="59.9701822" lon="17.718094">
        <ele>28.0155</ele>
        <time>2013-04-12T19:20:17Z</time>
      </trkpt>
      <trkpt lat="59.9702066" lon="17.7181174">
        <ele>28.4962</ele>
        <time>2013-04-12T19:20:18Z</time>
      </trkpt>
      <trkpt lat="59.9702289" lon="17.7181439">
        <ele>28.4962</ele>
        <time>2013-04-12T19:20:19Z</time>
      </trkpt>
      <trkpt lat="59.9702504" lon="17.7181667">
        <ele>28.4962</ele>
        <time>2013-04-12T19:20:20Z</time>
      </trkpt>
      <trkpt lat="59.9702724" lon="17.7181869">
        <ele>28.9769</ele>
        <time>2013-04-12T19:20:21Z</time>
      </trkpt>
      <trkpt lat="59.970294" lon="17.7182048">
        <ele>28.9769</ele>
        <time>2013-04-12T19:20:22Z</time>
      </trkpt>
      <trkpt lat="59.9703158" lon="17.7182242">
        <ele>28.9769</ele>
        <time>2013-04-12T19:20:23Z</time>
      </trkpt>
      <trkpt lat="59.9703376" lon="17.7182454">
        <ele>28.9769</ele>
        <time>2013-04-12T19:20:24Z</time>
      </trkpt>
      <trkpt lat="59.9703593" lon="17.7182693">
        <ele>28.9769</ele>
        <time>2013-04-12T19:20:25Z</time>
      </trkpt>
      <trkpt lat="59.9703818" lon="17.7182915">
        <ele>28.9769</ele>
        <time>2013-04-12T19:20:26Z</time>
      </trkpt>
      <trkpt lat="59.970403" lon="17.7183113">
        <ele>28.9769</ele>
        <time>2013-04-12T19:20:27Z</time>
      </trkpt>
      <trkpt lat="59.9704247" lon="17.7183318">
        <ele>28.9769</ele>
        <time>2013-04-12T19:20:28Z</time>
      </trkpt>
      <trkpt lat="59.9704449" lon="17.718345">
        <ele>28.9769</ele>
        <time>2013-04-12T19:20:29Z</time>
      </trkpt>
      <trkpt lat="59.9704664" lon="17.7183647">
        <ele>28.9769</ele>
        <time>2013-04-12T19:20:30Z</time>
      </trkpt>
      <trkpt lat="59.9704878" lon="17.7183888">
        <ele>28.9769</ele>
        <time>2013-04-12T19:20:31Z</time>
      </trkpt>
      <trkpt lat="59.9705076" lon="17.7184101">
        <ele>28.9769</ele>
        <time>2013-04-12T19:20:32Z</time>
      </trkpt>
      <trkpt lat="59.9705272" lon="17.7184301">
        <ele>28.9769</ele>
        <time>2013-04-12T19:20:33Z</time>
      </trkpt>
      <trkpt lat="59.9705479" lon="17.7184495">
        <ele>28.9769</ele>
        <time>2013-04-12T19:20:34Z</time>
      </trkpt>
      <trkpt lat="59.970567" lon="17.7184665">
        <ele>28.9769</ele>
        <time>2013-04-12T19:20:35Z</time>
      </trkpt>
      <trkpt lat="59.9705862" lon="17.7184833">
        <ele>28.4962</ele>
        <time>2013-04-12T19:20:36Z</time>
      </trkpt>
      <trkpt lat="59.970606" lon="17.7185011">
        <ele>28.4962</ele>
        <time>2013-04-12T19:20:37Z</time>
      </trkpt>
      <trkpt lat="59.9706263" lon="17.7185172">
        <ele>28.4962</ele>
        <time>2013-04-12T19:20:38Z</time>
      </trkpt>
      <trkpt lat="59.970647" lon="17.7185338">
        <ele>28.4962</ele>
        <time>2013-04-12T19:20:39Z</time>
      </trkpt>
      <trkpt lat="59.9706685" lon="17.7185541">
        <ele>28.4962</ele>
        <time>2013-04-12T19:20:40Z</time>
      </trkpt>
      <trkpt lat="59.9706867" lon="17.7185684">
        <ele>28.0155</ele>
        <time>2013-04-12T19:20:41Z</time>
      </trkpt>
      <trkpt lat="59.9707065" lon="17.7185821">
        <ele>28.0155</ele>
        <time>2013-04-12T19:20:42Z</time>
      </trkpt>
      <trkpt lat="59.9707282" lon="17.7186028">
        <ele>28.4962</ele>
        <time>2013-04-12T19:20:43Z</time>
      </trkpt>
      <trkpt lat="59.9707484" lon="17.7186206">
        <ele>28.4962</ele>
        <time>2013-04-12T19:20:44Z</time>
      </trkpt>
      <trkpt lat="59.970768" lon="17.7186349">
        <ele>28.0155</ele>
        <time>2013-04-12T19:20:45Z</time>
      </trkpt>
      <trkpt lat="59.9707878" lon="17.7186513">
        <ele>28.0155</ele>
        <time>2013-04-12T19:20:46Z</time>
      </trkpt>
      <trkpt lat="59.9708059" lon="17.7186674">
        <ele>28.0155</ele>
        <time>2013-04-12T19:20:47Z</time>
      </trkpt>
      <trkpt lat="59.9708259" lon="17.7186852">
        <ele>28.0155</ele>
        <time>2013-04-12T19:20:48Z</time>
      </trkpt>
      <trkpt lat="59.9708443" lon="17.7187027">
        <ele>27.5349</ele>
        <time>2013-04-12T19:20:49Z</time>
      </trkpt>
      <trkpt lat="59.9708628" lon="17.7187225">
        <ele>27.5349</ele>
        <time>2013-04-12T19:20:50Z</time>
      </trkpt>
      <trkpt lat="59.970881" lon="17.7187441">
        <ele>27.0543</ele>
        <time>2013-04-12T19:20:51Z</time>
      </trkpt>
      <trkpt lat="59.9708997" lon="17.7187665">
        <ele>27.0543</ele>
        <time>2013-04-12T19:20:52Z</time>
      </trkpt>
      <trkpt lat="59.9709198" lon="17.7187873">
        <ele>27.0543</ele>
        <time>2013-04-12T19:20:53Z</time>
      </trkpt>
      <trkpt lat="59.970939" lon="17.7188043">
        <ele>26.5736</ele>
        <time>2013-04-12T19:20:54Z</time>
      </trkpt>
      <trkpt lat="59.9709608" lon="17.7188247">
        <ele>26.5736</ele>
        <time>2013-04-12T19:20:55Z</time>
      </trkpt>
      <trkpt lat="59.9709826" lon="17.7188449">
        <ele>26.5736</ele>
        <time>2013-04-12T19:20:56Z</time>
      </trkpt>
      <trkpt lat="59.9710032" lon="17.7188617">
        <ele>26.5736</ele>
        <time>2013-04-12T19:20:57Z</time>
      </trkpt>
      <trkpt lat="59.9710251" lon="17.7188831">
        <ele>26.5736</ele>
        <time>2013-04-12T19:20:58Z</time>
      </trkpt>
      <trkpt lat="59.9710462" lon="17.7189033">
        <ele>26.0929</ele>
        <time>2013-04-12T19:20:59Z</time>
      </trkpt>
      <trkpt lat="59.9710671" lon="17.7189193">
        <ele>26.0929</ele>
        <time>2013-04-12T19:21:00Z</time>
      </trkpt>
      <trkpt lat="59.9710875" lon="17.7189328">
        <ele>26.0929</ele>
        <time>2013-04-12T19:21:01Z</time>
      </trkpt>
      <trkpt lat="59.9711058" lon="17.7189458">
        <ele>25.6123</ele>
        <time>2013-04-12T19:21:02Z</time>
      </trkpt>
      <trkpt lat="59.9711253" lon="17.7189663">
        <ele>25.6123</ele>
        <time>2013-04-12T19:21:03Z</time>
      </trkpt>
      <trkpt lat="59.9711472" lon="17.7189893">
        <ele>25.6123</ele>
        <time>2013-04-12T19:21:04Z</time>
      </trkpt>
      <trkpt lat="59.9711685" lon="17.7190077">
        <ele>25.6123</ele>
        <time>2013-04-12T19:21:05Z</time>
      </trkpt>
      <trkpt lat="59.9711909" lon="17.7190292">
        <ele>25.6123</ele>
        <time>2013-04-12T19:21:06Z</time>
      </trkpt>
      <trkpt lat="59.9712134" lon="17.7190494">
        <ele>25.6123</ele>
        <time>2013-04-12T19:21:07Z</time>
      </trkpt>
      <trkpt lat="59.9712333" lon="17.7190609">
        <ele>25.1317</ele>
        <time>2013-04-12T19:21:08Z</time>
      </trkpt>
      <trkpt lat="59.9712533" lon="17.7190766">
        <ele>25.1317</ele>
        <time>2013-04-12T19:21:09Z</time>
      </trkpt>
      <trkpt lat="59.971272" lon="17.7190913">
        <ele>25.1317</ele>
        <time>2013-04-12T19:21:10Z</time>
      </trkpt>
      <trkpt lat="59.9712902" lon="17.719108">
        <ele>25.6123</ele>
        <time>2013-04-12T19:21:11Z</time>
      </trkpt>
      <trkpt lat="59.9713073" lon="17.7191249">
        <ele>25.1317</ele>
        <time>2013-04-12T19:21:12Z</time>
      </trkpt>
      <trkpt lat="59.9713273" lon="17.7191447">
        <ele>25.1317</ele>
        <time>2013-04-12T19:21:13Z</time>
      </trkpt>
      <trkpt lat="59.9713468" lon="17.7191674">
        <ele>25.1317</ele>
        <time>2013-04-12T19:21:14Z</time>
      </trkpt>
      <trkpt lat="59.9713665" lon="17.7191856">
        <ele>24.651</ele>
        <time>2013-04-12T19:21:15Z</time>
      </trkpt>
      <trkpt lat="59.9713874" lon="17.7192074">
        <ele>24.1703</ele>
        <time>2013-04-12T19:21:16Z</time>
      </trkpt>
      <trkpt lat="59.9714072" lon="17.7192291">
        <ele>23.6896</ele>
        <time>2013-04-12T19:21:17Z</time>
      </trkpt>
      <trkpt lat="59.9714269" lon="17.7192494">
        <ele>23.6896</ele>
        <time>2013-04-12T19:21:18Z</time>
      </trkpt>
      <trkpt lat="59.9714485" lon="17.7192716">
        <ele>23.209</ele>
        <time>2013-04-12T19:21:19Z</time>
      </trkpt>
      <trkpt lat="59.971468" lon="17.7192943">
        <ele>23.209</ele>
        <time>2013-04-12T19:21:20Z</time>
      </trkpt>
      <trkpt lat="59.9714866" lon="17.7193131">
        <ele>23.209</ele>
        <time>2013-04-12T19:21:21Z</time>
      </trkpt>
      <trkpt lat="59.9715073" lon="17.7193299">
        <ele>23.209</ele>
        <time>2013-04-12T19:21:22Z</time>
      </trkpt>
      <trkpt lat="59.9715297" lon="17.7193457">
        <ele>23.209</ele>
        <time>2013-04-12T19:21:23Z</time>
      </trkpt>
      <trkpt lat="59.9715524" lon="17.7193626">
        <ele>23.209</ele>
        <time>2013-04-12T19:21:24Z</time>
      </trkpt>
      <trkpt lat="59.9715729" lon="17.719384">
        <ele>23.209</ele>
        <time>2013-04-12T19:21:25Z</time>
      </trkpt>
      <trkpt lat="59.9715926" lon="17.7194042">
        <ele>23.6896</ele>
        <time>2013-04-12T19:21:26Z</time>
      </trkpt>
      <trkpt lat="59.9716125" lon="17.7194228">
        <ele>23.6896</ele>
        <time>2013-04-12T19:21:27Z</time>
      </trkpt>
      <trkpt lat="59.9716336" lon="17.7194436">
        <ele>23.6896</ele>
        <time>2013-04-12T19:21:28Z</time>
      </trkpt>
      <trkpt lat="59.9716533" lon="17.7194631">
        <ele>24.1703</ele>
        <time>2013-04-12T19:21:29Z</time>
      </trkpt>
      <trkpt lat="59.9716728" lon="17.7194798">
        <ele>23.6896</ele>
        <time>2013-04-12T19:21:30Z</time>
      </trkpt>
      <trkpt lat="59.9716943" lon="17.719498">
        <ele>23.6896</ele>
        <time>2013-04-12T19:21:31Z</time>
      </trkpt>
      <trkpt lat="59.9717165" lon="17.719516">
        <ele>24.1703</ele>
        <time>2013-04-12T19:21:32Z</time>
      </trkpt>
      <trkpt lat="59.9717374" lon="17.7195311">
        <ele>24.1703</ele>
        <time>2013-04-12T19:21:33Z</time>
      </trkpt>
      <trkpt lat="59.9717597" lon="17.719548">
        <ele>24.1703</ele>
        <time>2013-04-12T19:21:34Z</time>
      </trkpt>
      <trkpt lat="59.9717813" lon="17.7195631">
        <ele>24.1703</ele>
        <time>2013-04-12T19:21:35Z</time>
      </trkpt>
      <trkpt lat="59.9718032" lon="17.719584">
        <ele>24.1703</ele>
        <time>2013-04-12T19:21:36Z</time>
      </trkpt>
      <trkpt lat="59.971826" lon="17.719613">
        <ele>24.651</ele>
        <time>2013-04-12T19:21:37Z</time>
      </trkpt>
      <trkpt lat="59.9718495" lon="17.7196388">
        <ele>24.651</ele>
        <time>2013-04-12T19:21:38Z</time>
      </trkpt>
      <trkpt lat="59.9718707" lon="17.7196626">
        <ele>25.1317</ele>
        <time>2013-04-12T19:21:39Z</time>
      </trkpt>
      <trkpt lat="59.9718922" lon="17.7196866">
        <ele>25.1317</ele>
        <time>2013-04-12T19:21:40Z</time>
      </trkpt>
      <trkpt lat="59.971915" lon="17.7197072">
        <ele>25.1317</ele>
        <time>2013-04-12T19:21:41Z</time>
      </trkpt>
      <trkpt lat="59.971937" lon="17.7197283">
        <ele>25.1317</ele>
        <time>2013-04-12T19:21:42Z</time>
      </trkpt>
      <trkpt lat="59.971958" lon="17.7197462">
        <ele>25.1317</ele>
        <time>2013-04-12T19:21:43Z</time>
      </trkpt>
      <trkpt lat="59.971979" lon="17.7197664">
        <ele>25.1317</ele>
        <time>2013-04-12T19:21:44Z</time>
      </trkpt>
      <trkpt lat="59.9719979" lon="17.719789">
        <ele>24.651</ele>
        <time>2013-04-12T19:21:45Z</time>
      </trkpt>
      <trkpt lat="59.9720168" lon="17.719804">
        <ele>24.651</ele>
        <time>2013-04-12T19:21:46Z</time>
      </trkpt>
      <trkpt lat="59.9720392" lon="17.7198196">
        <ele>24.651</ele>
        <time>2013-04-12T19:21:47Z</time>
      </trkpt>
      <trkpt lat="59.9720631" lon="17.7198425">
        <ele>24.1703</ele>
        <time>2013-04-12T19:21:48Z</time>
      </trkpt>
      <trkpt lat="59.9720854" lon="17.7198664">
        <ele>24.651</ele>
        <time>2013-04-12T19:21:49Z</time>
      </trkpt>
      <trkpt lat="59.9721114" lon="17.7198902">
        <ele>25.1317</ele>
        <time>2013-04-12T19:21:50Z</time>
      </trkpt>
      <trkpt lat="59.9721356" lon="17.7199082">
        <ele>24.651</ele>
        <time>2013-04-12T19:21:51Z</time>
      </trkpt>
      <trkpt lat="59.9721596" lon="17.7199248">
        <ele>25.6123</ele>
        <time>2013-04-12T19:21:52Z</time>
      </trkpt>
      <trkpt lat="59.9721844" lon="17.7199445">
        <ele>25.6123</ele>
        <time>2013-04-12T19:21:53Z</time>
      </trkpt>
      <trkpt lat="59.972208" lon="17.7199616">
        <ele>25.6123</ele>
        <time>2013-04-12T19:21:54Z</time>
      </trkpt>
      <trkpt lat="59.9722289" lon="17.7199735">
        <ele>25.6123</ele>
        <time>2013-04-12T19:21:55Z</time>
      </trkpt>
      <trkpt lat="59.9722515" lon="17.7199874">
        <ele>25.6123</ele>
        <time>2013-04-12T19:21:56Z</time>
      </trkpt>
      <trkpt lat="59.972275" lon="17.7200082">
        <ele>25.6123</ele>
        <time>2013-04-12T19:21:57Z</time>
      </trkpt>
      <trkpt lat="59.9722966" lon="17.7200244">
        <ele>25.6123</ele>
        <time>2013-04-12T19:21:58Z</time>
      </trkpt>
      <trkpt lat="59.9723201" lon="17.7200381">
        <ele>25.6123</ele>
        <time>2013-04-12T19:21:59Z</time>
      </trkpt>
      <trkpt lat="59.9723433" lon="17.7200563">
        <ele>25.6123</ele>
        <time>2013-04-12T19:22:00Z</time>
      </trkpt>
      <trkpt lat="59.972363" lon="17.7200725">
        <ele>25.6123</ele>
        <time>2013-04-12T19:22:01Z</time>
      </trkpt>
      <trkpt lat="59.9723822" lon="17.7200894">
        <ele>25.6123</ele>
        <time>2013-04-12T19:22:02Z</time>
      </trkpt>
      <trkpt lat="59.9724056" lon="17.7201077">
        <ele>25.6123</ele>
        <time>2013-04-12T19:22:03Z</time>
      </trkpt>
      <trkpt lat="59.9724328" lon="17.7201242">
        <ele>26.0929</ele>
        <time>2013-04-12T19:22:04Z</time>
      </trkpt>
      <trkpt lat="59.9724578" lon="17.7201424">
        <ele>26.5736</ele>
        <time>2013-04-12T19:22:05Z</time>
      </trkpt>
      <trkpt lat="59.9724785" lon="17.7201595">
        <ele>26.5736</ele>
        <time>2013-04-12T19:22:06Z</time>
      </trkpt>
      <trkpt lat="59.9724989" lon="17.7201776">
        <ele>26.5736</ele>
        <time>2013-04-12T19:22:07Z</time>
      </trkpt>
      <trkpt lat="59.97252" lon="17.720195">
        <ele>26.5736</ele>
        <time>2013-04-12T19:22:08Z</time>
      </trkpt>
      <trkpt lat="59.9725398" lon="17.7202107">
        <ele>26.5736</ele>
        <time>2013-04-12T19:22:09Z</time>
      </trkpt>
      <trkpt lat="59.9725582" lon="17.7202282">
        <ele>26.0929</ele>
        <time>2013-04-12T19:22:10Z</time>
      </trkpt>
      <trkpt lat="59.972578" lon="17.7202521">
        <ele>26.5736</ele>
        <time>2013-04-12T19:22:11Z</time>
      </trkpt>
      <trkpt lat="59.9725988" lon="17.7202758">
        <ele>27.0543</ele>
        <time>2013-04-12T19:22:12Z</time>
      </trkpt>
      <trkpt lat="59.9726211" lon="17.7202932">
        <ele>27.0543</ele>
        <time>2013-04-12T19:22:13Z</time>
      </trkpt>
      <trkpt lat="59.9726433" lon="17.7203062">
        <ele>27.0543</ele>
        <time>2013-04-12T19:22:14Z</time>
      </trkpt>
      <trkpt lat="59.9726625" lon="17.72032">
        <ele>26.5736</ele>
        <time>2013-04-12T19:22:15Z</time>
      </trkpt>
      <trkpt lat="59.9726835" lon="17.7203421">
        <ele>26.5736</ele>
        <time>2013-04-12T19:22:16Z</time>
      </trkpt>
      <trkpt lat="59.972707" lon="17.7203651">
        <ele>27.0543</ele>
        <time>2013-04-12T19:22:17Z</time>
      </trkpt>
      <trkpt lat="59.9727267" lon="17.7203858">
        <ele>27.0543</ele>
        <time>2013-04-12T19:22:18Z</time>
      </trkpt>
      <trkpt lat="59.9727459" lon="17.7204054">
        <ele>26.5736</ele>
        <time>2013-04-12T19:22:19Z</time>
      </trkpt>
      <trkpt lat="59.9727674" lon="17.7204248">
        <ele>27.0543</ele>
        <time>2013-04-12T19:22:20Z</time>
      </trkpt>
      <trkpt lat="59.9727883" lon="17.720448">
        <ele>27.5349</ele>
        <time>2013-04-12T19:22:21Z</time>
      </trkpt>
      <trkpt lat="59.9728102" lon="17.7204737">
        <ele>28.0155</ele>
        <time>2013-04-12T19:22:22Z</time>
      </trkpt>
      <trkpt lat="59.9728325" lon="17.7204988">
        <ele>28.0155</ele>
        <time>2013-04-12T19:22:23Z</time>
      </trkpt>
      <trkpt lat="59.97285" lon="17.7205265">
        <ele>28.0155</ele>
        <time>2013-04-12T19:22:24Z</time>
      </trkpt>
      <trkpt lat="59.9728676" lon="17.7205494">
        <ele>27.5349</ele>
        <time>2013-04-12T19:22:25Z</time>
      </trkpt>
      <trkpt lat="59.9728862" lon="17.7205719">
        <ele>27.0543</ele>
        <time>2013-04-12T19:22:26Z</time>
      </trkpt>
      <trkpt lat="59.9729062" lon="17.7205951">
        <ele>27.0543</ele>
        <time>2013-04-12T19:22:27Z</time>
      </trkpt>
      <trkpt lat="59.9729234" lon="17.7206112">
        <ele>27.0543</ele>
        <time>2013-04-12T19:22:28Z</time>
      </trkpt>
      <trkpt lat="59.972944" lon="17.7206308">
        <ele>27.5349</ele>
        <time>2013-04-12T19:22:29Z</time>
      </trkpt>
      <trkpt lat="59.9729638" lon="17.7206565">
        <ele>27.5349</ele>
        <time>2013-04-12T19:22:30Z</time>
      </trkpt>
      <trkpt lat="59.9729816" lon="17.7206796">
        <ele>27.5349</ele>
        <time>2013-04-12T19:22:31Z</time>
      </trkpt>
      <trkpt lat="59.9730019" lon="17.7207037">
        <ele>27.5349</ele>
        <time>2013-04-12T19:22:32Z</time>
      </trkpt>
      <trkpt lat="59.9730195" lon="17.7207323">
        <ele>27.0543</ele>
        <time>2013-04-12T19:22:33Z</time>
      </trkpt>
      <trkpt lat="59.9730369" lon="17.7207545">
        <ele>27.0543</ele>
        <time>2013-04-12T19:22:34Z</time>
      </trkpt>
      <trkpt lat="59.973056" lon="17.7207748">
        <ele>27.0543</ele>
        <time>2013-04-12T19:22:35Z</time>
      </trkpt>
      <trkpt lat="59.9730756" lon="17.7208043">
        <ele>27.5349</ele>
        <time>2013-04-12T19:22:36Z</time>
      </trkpt>
      <trkpt lat="59.9730919" lon="17.7208317">
        <ele>27.0543</ele>
        <time>2013-04-12T19:22:37Z</time>
      </trkpt>
      <trkpt lat="59.9731094" lon="17.7208484">
        <ele>27.0543</ele>
        <time>2013-04-12T19:22:38Z</time>
      </trkpt>
      <trkpt lat="59.9731266" lon="17.7208748">
        <ele>27.5349</ele>
        <time>2013-04-12T19:22:39Z</time>
      </trkpt>
      <trkpt lat="59.9731422" lon="17.720909">
        <ele>27.5349</ele>
        <time>2013-04-12T19:22:40Z</time>
      </trkpt>
      <trkpt lat="59.9731616" lon="17.7209391">
        <ele>27.5349</ele>
        <time>2013-04-12T19:22:41Z</time>
      </trkpt>
      <trkpt lat="59.9731818" lon="17.7209701">
        <ele>27.5349</ele>
        <time>2013-04-12T19:22:42Z</time>
      </trkpt>
      <trkpt lat="59.9731991" lon="17.7209987">
        <ele>27.5349</ele>
        <time>2013-04-12T19:22:43Z</time>
      </trkpt>
      <trkpt lat="59.9732152" lon="17.7210245">
        <ele>27.5349</ele>
        <time>2013-04-12T19:22:44Z</time>
      </trkpt>
      <trkpt lat="59.9732336" lon="17.7210503">
        <ele>27.5349</ele>
        <time>2013-04-12T19:22:45Z</time>
      </trkpt>
      <trkpt lat="59.973252" lon="17.7210779">
        <ele>27.5349</ele>
        <time>2013-04-12T19:22:46Z</time>
      </trkpt>
      <trkpt lat="59.9732709" lon="17.7211091">
        <ele>27.5349</ele>
        <time>2013-04-12T19:22:47Z</time>
      </trkpt>
      <trkpt lat="59.9732904" lon="17.7211442">
        <ele>28.0155</ele>
        <time>2013-04-12T19:22:48Z</time>
      </trkpt>
      <trkpt lat="59.973309" lon="17.7211768">
        <ele>28.0155</ele>
        <time>2013-04-12T19:22:49Z</time>
      </trkpt>
      <trkpt lat="59.9733272" lon="17.721207">
        <ele>28.0155</ele>
        <time>2013-04-12T19:22:50Z</time>
      </trkpt>
      <trkpt lat="59.9733451" lon="17.7212391">
        <ele>27.5349</ele>
        <time>2013-04-12T19:22:51Z</time>
      </trkpt>
      <trkpt lat="59.9733631" lon="17.7212685">
        <ele>27.5349</ele>
        <time>2013-04-12T19:22:52Z</time>
      </trkpt>
      <trkpt lat="59.973379" lon="17.7212983">
        <ele>27.5349</ele>
        <time>2013-04-12T19:22:53Z</time>
      </trkpt>
      <trkpt lat="59.9733959" lon="17.7213307">
        <ele>27.5349</ele>
        <time>2013-04-12T19:22:54Z</time>
      </trkpt>
      <trkpt lat="59.9734131" lon="17.7213642">
        <ele>27.5349</ele>
        <time>2013-04-12T19:22:55Z</time>
      </trkpt>
      <trkpt lat="59.9734299" lon="17.7213976">
        <ele>27.0543</ele>
        <time>2013-04-12T19:22:56Z</time>
      </trkpt>
      <trkpt lat="59.9734457" lon="17.7214286">
        <ele>27.0543</ele>
        <time>2013-04-12T19:22:57Z</time>
      </trkpt>
      <trkpt lat="59.9734607" lon="17.721458">
        <ele>26.5736</ele>
        <time>2013-04-12T19:22:58Z</time>
      </trkpt>
      <trkpt lat="59.9734766" lon="17.7214921">
        <ele>27.0543</ele>
        <time>2013-04-12T19:22:59Z</time>
      </trkpt>
      <trkpt lat="59.9734921" lon="17.7215275">
        <ele>26.5736</ele>
        <time>2013-04-12T19:23:00Z</time>
      </trkpt>
      <trkpt lat="59.9735068" lon="17.7215584">
        <ele>26.5736</ele>
        <time>2013-04-12T19:23:01Z</time>
      </trkpt>
      <trkpt lat="59.9735219" lon="17.7215926">
        <ele>26.5736</ele>
        <time>2013-04-12T19:23:02Z</time>
      </trkpt>
      <trkpt lat="59.9735369" lon="17.721625">
        <ele>26.0929</ele>
        <time>2013-04-12T19:23:03Z</time>
      </trkpt>
      <trkpt lat="59.9735494" lon="17.7216523">
        <ele>26.0929</ele>
        <time>2013-04-12T19:23:04Z</time>
      </trkpt>
      <trkpt lat="59.9735631" lon="17.7216853">
        <ele>26.0929</ele>
        <time>2013-04-12T19:23:05Z</time>
      </trkpt>
      <trkpt lat="59.9735788" lon="17.7217206">
        <ele>26.5736</ele>
        <time>2013-04-12T19:23:06Z</time>
      </trkpt>
      <trkpt lat="59.9735924" lon="17.7217538">
        <ele>26.0929</ele>
        <time>2013-04-12T19:23:07Z</time>
      </trkpt>
      <trkpt lat="59.9736051" lon="17.7217901">
        <ele>26.0929</ele>
        <time>2013-04-12T19:23:08Z</time>
      </trkpt>
      <trkpt lat="59.9736187" lon="17.7218264">
        <ele>26.0929</ele>
        <time>2013-04-12T19:23:09Z</time>
      </trkpt>
      <trkpt lat="59.9736331" lon="17.7218622">
        <ele>26.5736</ele>
        <time>2013-04-12T19:23:10Z</time>
      </trkpt>
      <trkpt lat="59.9736467" lon="17.7218977">
        <ele>26.5736</ele>
        <time>2013-04-12T19:23:11Z</time>
      </trkpt>
      <trkpt lat="59.9736607" lon="17.7219341">
        <ele>26.5736</ele>
        <time>2013-04-12T19:23:12Z</time>
      </trkpt>
      <trkpt lat="59.9736751" lon="17.7219694">
        <ele>26.5736</ele>
        <time>2013-04-12T19:23:13Z</time>
      </trkpt>
      <trkpt lat="59.9736858" lon="17.7220054">
        <ele>26.5736</ele>
        <time>2013-04-12T19:23:14Z</time>
      </trkpt>
      <trkpt lat="59.973698" lon="17.7220425">
        <ele>26.5736</ele>
        <time>2013-04-12T19:23:15Z</time>
      </trkpt>
      <trkpt lat="59.9737117" lon="17.7220792">
        <ele>26.5736</ele>
        <time>2013-04-12T19:23:16Z</time>
      </trkpt>
      <trkpt lat="59.9737239" lon="17.7221159">
        <ele>26.5736</ele>
        <time>2013-04-12T19:23:17Z</time>
      </trkpt>
      <trkpt lat="59.9737363" lon="17.7221523">
        <ele>26.5736</ele>
        <time>2013-04-12T19:23:18Z</time>
      </trkpt>
      <trkpt lat="59.9737487" lon="17.7221911">
        <ele>26.5736</ele>
        <time>2013-04-12T19:23:19Z</time>
      </trkpt>
      <trkpt lat="59.9737623" lon="17.7222324">
        <ele>27.0543</ele>
        <time>2013-04-12T19:23:20Z</time>
      </trkpt>
      <trkpt lat="59.9737757" lon="17.7222689">
        <ele>26.5736</ele>
        <time>2013-04-12T19:23:21Z</time>
      </trkpt>
      <trkpt lat="59.9737881" lon="17.7223045">
        <ele>26.5736</ele>
        <time>2013-04-12T19:23:22Z</time>
      </trkpt>
      <trkpt lat="59.9738009" lon="17.7223428">
        <ele>27.0543</ele>
        <time>2013-04-12T19:23:23Z</time>
      </trkpt>
      <trkpt lat="59.973813" lon="17.7223785">
        <ele>27.0543</ele>
        <time>2013-04-12T19:23:24Z</time>
      </trkpt>
      <trkpt lat="59.9738238" lon="17.7224149">
        <ele>27.0543</ele>
        <time>2013-04-12T19:23:25Z</time>
      </trkpt>
      <trkpt lat="59.973834" lon="17.7224535">
        <ele>27.0543</ele>
        <time>2013-04-12T19:23:26Z</time>
      </trkpt>
      <trkpt lat="59.9738454" lon="17.7224927">
        <ele>27.5349</ele>
        <time>2013-04-12T19:23:27Z</time>
      </trkpt>
      <trkpt lat="59.9738568" lon="17.7225297">
        <ele>27.0543</ele>
        <time>2013-04-12T19:23:28Z</time>
      </trkpt>
      <trkpt lat="59.9738698" lon="17.7225706">
        <ele>27.0543</ele>
        <time>2013-04-12T19:23:29Z</time>
      </trkpt>
      <trkpt lat="59.9738819" lon="17.7226092">
        <ele>26.5736</ele>
        <time>2013-04-12T19:23:30Z</time>
      </trkpt>
      <trkpt lat="59.9738922" lon="17.7226498">
        <ele>26.5736</ele>
        <time>2013-04-12T19:23:31Z</time>
      </trkpt>
      <trkpt lat="59.9739053" lon="17.7226941">
        <ele>27.0543</ele>
        <time>2013-04-12T19:23:32Z</time>
      </trkpt>
      <trkpt lat="59.9739186" lon="17.7227353">
        <ele>27.0543</ele>
        <time>2013-04-12T19:23:33Z</time>
      </trkpt>
      <trkpt lat="59.9739285" lon="17.7227748">
        <ele>26.5736</ele>
        <time>2013-04-12T19:23:34Z</time>
      </trkpt>
      <trkpt lat="59.97394" lon="17.7228172">
        <ele>27.0543</ele>
        <time>2013-04-12T19:23:35Z</time>
      </trkpt>
      <trkpt lat="59.9739513" lon="17.7228557">
        <ele>27.0543</ele>
        <time>2013-04-12T19:23:36Z</time>
      </trkpt>
      <trkpt lat="59.9739611" lon="17.7228936">
        <ele>26.5736</ele>
        <time>2013-04-12T19:23:37Z</time>
      </trkpt>
      <trkpt lat="59.9739707" lon="17.7229384">
        <ele>27.0543</ele>
        <time>2013-04-12T19:23:38Z</time>
      </trkpt>
      <trkpt lat="59.9739813" lon="17.7229827">
        <ele>27.0543</ele>
        <time>2013-04-12T19:23:39Z</time>
      </trkpt>
      <trkpt lat="59.97399" lon="17.7230225">
        <ele>27.0543</ele>
        <time>2013-04-12T19:23:40Z</time>
      </trkpt>
      <trkpt lat="59.9739983" lon="17.7230679">
        <ele>27.5349</ele>
        <time>2013-04-12T19:23:41Z</time>
      </trkpt>
      <trkpt lat="59.9740076" lon="17.7231114">
        <ele>27.5349</ele>
        <time>2013-04-12T19:23:42Z</time>
      </trkpt>
      <trkpt lat="59.9740161" lon="17.7231536">
        <ele>28.0155</ele>
        <time>2013-04-12T19:23:43Z</time>
      </trkpt>
      <trkpt lat="59.9740248" lon="17.7231981">
        <ele>28.0155</ele>
        <time>2013-04-12T19:23:44Z</time>
      </trkpt>
      <trkpt lat="59.9740316" lon="17.7232376">
        <ele>27.5349</ele>
        <time>2013-04-12T19:23:45Z</time>
      </trkpt>
      <trkpt lat="59.9740382" lon="17.7232797">
        <ele>27.5349</ele>
        <time>2013-04-12T19:23:46Z</time>
      </trkpt>
      <trkpt lat="59.9740471" lon="17.723326">
        <ele>27.5349</ele>
        <time>2013-04-12T19:23:47Z</time>
      </trkpt>
      <trkpt lat="59.9740559" lon="17.7233717">
        <ele>27.5349</ele>
        <time>2013-04-12T19:23:48Z</time>
      </trkpt>
      <trkpt lat="59.9740621" lon="17.7234167">
        <ele>27.5349</ele>
        <time>2013-04-12T19:23:49Z</time>
      </trkpt>
      <trkpt lat="59.9740686" lon="17.7234611">
        <ele>28.0155</ele>
        <time>2013-04-12T19:23:50Z</time>
      </trkpt>
      <trkpt lat="59.9740757" lon="17.7235018">
        <ele>28.0155</ele>
        <time>2013-04-12T19:23:51Z</time>
      </trkpt>
      <trkpt lat="59.9740818" lon="17.7235431">
        <ele>28.4962</ele>
        <time>2013-04-12T19:23:52Z</time>
      </trkpt>
      <trkpt lat="59.9740844" lon="17.7235871">
        <ele>28.0155</ele>
        <time>2013-04-12T19:23:53Z</time>
      </trkpt>
      <trkpt lat="59.9740881" lon="17.7236318">
        <ele>28.0155</ele>
        <time>2013-04-12T19:23:54Z</time>
      </trkpt>
      <trkpt lat="59.9740956" lon="17.7236777">
        <ele>28.4962</ele>
        <time>2013-04-12T19:23:55Z</time>
      </trkpt>
      <trkpt lat="59.9741006" lon="17.7237209">
        <ele>28.4962</ele>
        <time>2013-04-12T19:23:56Z</time>
      </trkpt>
      <trkpt lat="59.974105" lon="17.7237663">
        <ele>28.4962</ele>
        <time>2013-04-12T19:23:57Z</time>
      </trkpt>
      <trkpt lat="59.9741117" lon="17.7238165">
        <ele>28.4962</ele>
        <time>2013-04-12T19:23:58Z</time>
      </trkpt>
      <trkpt lat="59.9741186" lon="17.7238663">
        <ele>28.0155</ele>
        <time>2013-04-12T19:23:59Z</time>
      </trkpt>
      <trkpt lat="59.9741243" lon="17.7239135">
        <ele>27.5349</ele>
        <time>2013-04-12T19:24:00Z</time>
      </trkpt>
      <trkpt lat="59.9741324" lon="17.7239652">
        <ele>27.5349</ele>
        <time>2013-04-12T19:24:01Z</time>
      </trkpt>
      <trkpt lat="59.9741419" lon="17.7240145">
        <ele>27.0543</ele>
        <time>2013-04-12T19:24:02Z</time>
      </trkpt>
      <trkpt lat="59.9741491" lon="17.7240609">
        <ele>27.0543</ele>
        <time>2013-04-12T19:24:03Z</time>
      </trkpt>
      <trkpt lat="59.9741552" lon="17.7241066">
        <ele>27.0543</ele>
        <time>2013-04-12T19:24:04Z</time>
      </trkpt>
      <trkpt lat="59.9741625" lon="17.724151">
        <ele>27.0543</ele>
        <time>2013-04-12T19:24:05Z</time>
      </trkpt>
      <trkpt lat="59.9741707" lon="17.7242011">
        <ele>27.5349</ele>
        <time>2013-04-12T19:24:06Z</time>
      </trkpt>
      <trkpt lat="59.9741802" lon="17.7242502">
        <ele>27.5349</ele>
        <time>2013-04-12T19:24:07Z</time>
      </trkpt>
      <trkpt lat="59.9741881" lon="17.7242927">
        <ele>28.0155</ele>
        <time>2013-04-12T19:24:08Z</time>
      </trkpt>
      <trkpt lat="59.9741938" lon="17.7243365">
        <ele>28.0155</ele>
        <time>2013-04-12T19:24:09Z</time>
      </trkpt>
      <trkpt lat="59.974202" lon="17.7243848">
        <ele>28.0155</ele>
        <time>2013-04-12T19:24:10Z</time>
      </trkpt>
      <trkpt lat="59.9742097" lon="17.724428">
        <ele>28.0155</ele>
        <time>2013-04-12T19:24:11Z</time>
      </trkpt>
      <trkpt lat="59.9742149" lon="17.7244719">
        <ele>28.4962</ele>
        <time>2013-04-12T19:24:12Z</time>
      </trkpt>
      <trkpt lat="59.9742218" lon="17.7245184">
        <ele>28.4962</ele>
        <time>2013-04-12T19:24:13Z</time>
      </trkpt>
      <trkpt lat="59.9742304" lon="17.7245616">
        <ele>28.9769</ele>
        <time>2013-04-12T19:24:14Z</time>
      </trkpt>
      <trkpt lat="59.9742376" lon="17.7246092">
        <ele>29.4575</ele>
        <time>2013-04-12T19:24:15Z</time>
      </trkpt>
      <trkpt lat="59.9742455" lon="17.7246572">
        <ele>29.9381</ele>
        <time>2013-04-12T19:24:16Z</time>
      </trkpt>
      <trkpt lat="59.9742546" lon="17.7247035">
        <ele>30.4188</ele>
        <time>2013-04-12T19:24:17Z</time>
      </trkpt>
      <trkpt lat="59.9742616" lon="17.724753">
        <ele>30.4188</ele>
        <time>2013-04-12T19:24:18Z</time>
      </trkpt>
      <trkpt lat="59.9742697" lon="17.7248022">
        <ele>30.4188</ele>
        <time>2013-04-12T19:24:19Z</time>
      </trkpt>
      <trkpt lat="59.974278" lon="17.7248486">
        <ele>30.4188</ele>
        <time>2013-04-12T19:24:20Z</time>
      </trkpt>
      <trkpt lat="59.9742849" lon="17.7248972">
        <ele>30.4188</ele>
        <time>2013-04-12T19:24:21Z</time>
      </trkpt>
      <trkpt lat="59.9742926" lon="17.7249422">
        <ele>30.8995</ele>
        <time>2013-04-12T19:24:22Z</time>
      </trkpt>
      <trkpt lat="59.9742983" lon="17.7249842">
        <ele>30.8995</ele>
        <time>2013-04-12T19:24:23Z</time>
      </trkpt>
      <trkpt lat="59.9743034" lon="17.7250298">
        <ele>30.8995</ele>
        <time>2013-04-12T19:24:24Z</time>
      </trkpt>
      <trkpt lat="59.9743107" lon="17.7250744">
        <ele>31.3801</ele>
        <time>2013-04-12T19:24:25Z</time>
      </trkpt>
      <trkpt lat="59.9743189" lon="17.7251193">
        <ele>31.3801</ele>
        <time>2013-04-12T19:24:26Z</time>
      </trkpt>
      <trkpt lat="59.9743263" lon="17.7251689">
        <ele>31.8607</ele>
        <time>2013-04-12T19:24:27Z</time>
      </trkpt>
      <trkpt lat="59.9743334" lon="17.7252142">
        <ele>31.8607</ele>
        <time>2013-04-12T19:24:28Z</time>
      </trkpt>
      <trkpt lat="59.9743412" lon="17.7252634">
        <ele>32.3416</ele>
        <time>2013-04-12T19:24:29Z</time>
      </trkpt>
      <trkpt lat="59.974349" lon="17.7253126">
        <ele>32.3416</ele>
        <time>2013-04-12T19:24:30Z</time>
      </trkpt>
      <trkpt lat="59.9743553" lon="17.7253576">
        <ele>32.8223</ele>
        <time>2013-04-12T19:24:31Z</time>
      </trkpt>
      <trkpt lat="59.974361" lon="17.725406">
        <ele>32.8223</ele>
        <time>2013-04-12T19:24:32Z</time>
      </trkpt>
      <trkpt lat="59.9743639" lon="17.7254559">
        <ele>32.8223</ele>
        <time>2013-04-12T19:24:33Z</time>
      </trkpt>
      <trkpt lat="59.9743656" lon="17.7255016">
        <ele>32.8223</ele>
        <time>2013-04-12T19:24:34Z</time>
      </trkpt>
      <trkpt lat="59.9743662" lon="17.7255411">
        <ele>32.8223</ele>
        <time>2013-04-12T19:24:35Z</time>
      </trkpt>
      <trkpt lat="59.9743665" lon="17.7255881">
        <ele>32.8223</ele>
        <time>2013-04-12T19:24:36Z</time>
      </trkpt>
      <trkpt lat="59.9743677" lon="17.7256334">
        <ele>32.8223</ele>
        <time>2013-04-12T19:24:37Z</time>
      </trkpt>
      <trkpt lat="59.9743699" lon="17.7256783">
        <ele>32.8223</ele>
        <time>2013-04-12T19:24:38Z</time>
      </trkpt>
      <trkpt lat="59.9743746" lon="17.7257291">
        <ele>32.8223</ele>
        <time>2013-04-12T19:24:39Z</time>
      </trkpt>
      <trkpt lat="59.9743805" lon="17.725775">
        <ele>32.3416</ele>
        <time>2013-04-12T19:24:40Z</time>
      </trkpt>
      <trkpt lat="59.9743839" lon="17.7258159">
        <ele>31.8607</ele>
        <time>2013-04-12T19:24:41Z</time>
      </trkpt>
      <trkpt lat="59.9743855" lon="17.7258627">
        <ele>31.3801</ele>
        <time>2013-04-12T19:24:42Z</time>
      </trkpt>
      <trkpt lat="59.9743864" lon="17.7259102">
        <ele>31.3801</ele>
        <time>2013-04-12T19:24:43Z</time>
      </trkpt>
      <trkpt lat="59.9743893" lon="17.7259592">
        <ele>31.3801</ele>
        <time>2013-04-12T19:24:44Z</time>
      </trkpt>
      <trkpt lat="59.9743898" lon="17.7260084">
        <ele>31.3801</ele>
        <time>2013-04-12T19:24:45Z</time>
      </trkpt>
      <trkpt lat="59.9743932" lon="17.7260566">
        <ele>31.8607</ele>
        <time>2013-04-12T19:24:46Z</time>
      </trkpt>
      <trkpt lat="59.9743966" lon="17.7261052">
        <ele>31.8607</ele>
        <time>2013-04-12T19:24:47Z</time>
      </trkpt>
      <trkpt lat="59.9743998" lon="17.7261563">
        <ele>31.8607</ele>
        <time>2013-04-12T19:24:48Z</time>
      </trkpt>
      <trkpt lat="59.9744056" lon="17.7262042">
        <ele>31.3801</ele>
        <time>2013-04-12T19:24:49Z</time>
      </trkpt>
      <trkpt lat="59.9744133" lon="17.7262519">
        <ele>31.3801</ele>
        <time>2013-04-12T19:24:50Z</time>
      </trkpt>
      <trkpt lat="59.9744185" lon="17.7262971">
        <ele>30.8995</ele>
        <time>2013-04-12T19:24:51Z</time>
      </trkpt>
      <trkpt lat="59.9744188" lon="17.7263433">
        <ele>30.8995</ele>
        <time>2013-04-12T19:24:52Z</time>
      </trkpt>
      <trkpt lat="59.9744193" lon="17.7263933">
        <ele>30.8995</ele>
        <time>2013-04-12T19:24:53Z</time>
      </trkpt>
      <trkpt lat="59.9744215" lon="17.7264437">
        <ele>30.8995</ele>
        <time>2013-04-12T19:24:54Z</time>
      </trkpt>
      <trkpt lat="59.9744247" lon="17.7264921">
        <ele>31.3801</ele>
        <time>2013-04-12T19:24:55Z</time>
      </trkpt>
      <trkpt lat="59.9744242" lon="17.7265424">
        <ele>31.3801</ele>
        <time>2013-04-12T19:24:56Z</time>
      </trkpt>
      <trkpt lat="59.9744246" lon="17.7265915">
        <ele>31.3801</ele>
        <time>2013-04-12T19:24:57Z</time>
      </trkpt>
      <trkpt lat="59.9744252" lon="17.7266372">
        <ele>31.3801</ele>
        <time>2013-04-12T19:24:58Z</time>
      </trkpt>
      <trkpt lat="59.9744253" lon="17.7266885">
        <ele>31.3801</ele>
        <time>2013-04-12T19:24:59Z</time>
      </trkpt>
      <trkpt lat="59.9744264" lon="17.7267362">
        <ele>31.3801</ele>
        <time>2013-04-12T19:25:00Z</time>
      </trkpt>
      <trkpt lat="59.9744277" lon="17.7267802">
        <ele>31.3801</ele>
        <time>2013-04-12T19:25:01Z</time>
      </trkpt>
      <trkpt lat="59.9744278" lon="17.7268314">
        <ele>31.8607</ele>
        <time>2013-04-12T19:25:02Z</time>
      </trkpt>
      <trkpt lat="59.9744302" lon="17.7268775">
        <ele>31.8607</ele>
        <time>2013-04-12T19:25:03Z</time>
      </trkpt>
      <trkpt lat="59.9744312" lon="17.7269273">
        <ele>32.3416</ele>
        <time>2013-04-12T19:25:04Z</time>
      </trkpt>
      <trkpt lat="59.9744341" lon="17.726978">
        <ele>32.8223</ele>
        <time>2013-04-12T19:25:05Z</time>
      </trkpt>
      <trkpt lat="59.9744367" lon="17.727024">
        <ele>32.8223</ele>
        <time>2013-04-12T19:25:06Z</time>
      </trkpt>
      <trkpt lat="59.9744372" lon="17.7270726">
        <ele>32.8223</ele>
        <time>2013-04-12T19:25:07Z</time>
      </trkpt>
      <trkpt lat="59.9744398" lon="17.7271232">
        <ele>32.3416</ele>
        <time>2013-04-12T19:25:08Z</time>
      </trkpt>
      <trkpt lat="59.9744382" lon="17.7271814">
        <ele>32.3416</ele>
        <time>2013-04-12T19:25:09Z</time>
      </trkpt>
      <trkpt lat="59.9744369" lon="17.72724">
        <ele>31.8607</ele>
        <time>2013-04-12T19:25:10Z</time>
      </trkpt>
      <trkpt lat="59.9744372" lon="17.7272974">
        <ele>31.8607</ele>
        <time>2013-04-12T19:25:11Z</time>
      </trkpt>
      <trkpt lat="59.9744373" lon="17.7273432">
        <ele>31.3801</ele>
        <time>2013-04-12T19:25:12Z</time>
      </trkpt>
      <trkpt lat="59.9744364" lon="17.7273956">
        <ele>30.8995</ele>
        <time>2013-04-12T19:25:13Z</time>
      </trkpt>
      <trkpt lat="59.9744356" lon="17.7274461">
        <ele>30.8995</ele>
        <time>2013-04-12T19:25:14Z</time>
      </trkpt>
      <trkpt lat="59.9744364" lon="17.7274943">
        <ele>30.8995</ele>
        <time>2013-04-12T19:25:15Z</time>
      </trkpt>
      <trkpt lat="59.9744371" lon="17.7275447">
        <ele>30.8995</ele>
        <time>2013-04-12T19:25:16Z</time>
      </trkpt>
      <trkpt lat="59.9744364" lon="17.7275961">
        <ele>30.4188</ele>
        <time>2013-04-12T19:25:17Z</time>
      </trkpt>
      <trkpt lat="59.9744367" lon="17.7276442">
        <ele>29.9381</ele>
        <time>2013-04-12T19:25:18Z</time>
      </trkpt>
      <trkpt lat="59.9744349" lon="17.7276898">
        <ele>28.9769</ele>
        <time>2013-04-12T19:25:19Z</time>
      </trkpt>
      <trkpt lat="59.9744307" lon="17.7277368">
        <ele>28.9769</ele>
        <time>2013-04-12T19:25:20Z</time>
      </trkpt>
      <trkpt lat="59.9744294" lon="17.7277761">
        <ele>28.4962</ele>
        <time>2013-04-12T19:25:21Z</time>
      </trkpt>
      <trkpt lat="59.9744309" lon="17.7278243">
        <ele>27.5349</ele>
        <time>2013-04-12T19:25:22Z</time>
      </trkpt>
      <trkpt lat="59.9744354" lon="17.7278769">
        <ele>27.5349</ele>
        <time>2013-04-12T19:25:23Z</time>
      </trkpt>
      <trkpt lat="59.9744393" lon="17.7279261">
        <ele>26.5736</ele>
        <time>2013-04-12T19:25:24Z</time>
      </trkpt>
      <trkpt lat="59.9744413" lon="17.7279825">
        <ele>26.5736</ele>
        <time>2013-04-12T19:25:25Z</time>
      </trkpt>
      <trkpt lat="59.9744429" lon="17.7280356">
        <ele>26.5736</ele>
        <time>2013-04-12T19:25:26Z</time>
      </trkpt>
      <trkpt lat="59.9744429" lon="17.7280797">
        <ele>26.5736</ele>
        <time>2013-04-12T19:25:27Z</time>
      </trkpt>
      <trkpt lat="59.9744421" lon="17.728131">
        <ele>26.5736</ele>
        <time>2013-04-12T19:25:28Z</time>
      </trkpt>
      <trkpt lat="59.9744426" lon="17.7281835">
        <ele>27.0543</ele>
        <time>2013-04-12T19:25:29Z</time>
      </trkpt>
      <trkpt lat="59.9744433" lon="17.7282314">
        <ele>26.5736</ele>
        <time>2013-04-12T19:25:30Z</time>
      </trkpt>
      <trkpt lat="59.9744444" lon="17.7282797">
        <ele>26.5736</ele>
        <time>2013-04-12T19:25:31Z</time>
      </trkpt>
      <trkpt lat="59.974446" lon="17.7283295">
        <ele>26.0929</ele>
        <time>2013-04-12T19:25:32Z</time>
      </trkpt>
      <trkpt lat="59.9744454" lon="17.7283797">
        <ele>26.0929</ele>
        <time>2013-04-12T19:25:33Z</time>
      </trkpt>
      <trkpt lat="59.974445" lon="17.7284283">
        <ele>25.6123</ele>
        <time>2013-04-12T19:25:34Z</time>
      </trkpt>
      <trkpt lat="59.9744424" lon="17.7284785">
        <ele>25.1317</ele>
        <time>2013-04-12T19:25:35Z</time>
      </trkpt>
      <trkpt lat="59.9744392" lon="17.7285269">
        <ele>25.6123</ele>
        <time>2013-04-12T19:25:36Z</time>
      </trkpt>
      <trkpt lat="59.9744387" lon="17.7285662">
        <ele>25.1317</ele>
        <time>2013-04-12T19:25:37Z</time>
      </trkpt>
      <trkpt lat="59.9744375" lon="17.7286102">
        <ele>25.1317</ele>
        <time>2013-04-12T19:25:38Z</time>
      </trkpt>
      <trkpt lat="59.9744359" lon="17.7286538">
        <ele>24.651</ele>
        <time>2013-04-12T19:25:39Z</time>
      </trkpt>
      <trkpt lat="59.974436" lon="17.7286953">
        <ele>24.1703</ele>
        <time>2013-04-12T19:25:40Z</time>
      </trkpt>
      <trkpt lat="59.9744387" lon="17.7287427">
        <ele>23.209</ele>
        <time>2013-04-12T19:25:41Z</time>
      </trkpt>
      <trkpt lat="59.9744414" lon="17.7287945">
        <ele>23.209</ele>
        <time>2013-04-12T19:25:42Z</time>
      </trkpt>
      <trkpt lat="59.9744448" lon="17.7288429">
        <ele>23.209</ele>
        <time>2013-04-12T19:25:43Z</time>
      </trkpt>
      <trkpt lat="59.97445" lon="17.728895">
        <ele>23.209</ele>
        <time>2013-04-12T19:25:44Z</time>
      </trkpt>
      <trkpt lat="59.9744511" lon="17.7289499">
        <ele>23.209</ele>
        <time>2013-04-12T19:25:45Z</time>
      </trkpt>
      <trkpt lat="59.9744491" lon="17.7289915">
        <ele>23.209</ele>
        <time>2013-04-12T19:25:46Z</time>
      </trkpt>
      <trkpt lat="59.9744487" lon="17.7290362">
        <ele>22.7283</ele>
        <time>2013-04-12T19:25:47Z</time>
      </trkpt>
      <trkpt lat="59.9744487" lon="17.7290862">
        <ele>22.7283</ele>
        <time>2013-04-12T19:25:48Z</time>
      </trkpt>
      <trkpt lat="59.974448" lon="17.7291284">
        <ele>22.2476</ele>
        <time>2013-04-12T19:25:49Z</time>
      </trkpt>
      <trkpt lat="59.9744455" lon="17.7291744">
        <ele>22.2476</ele>
        <time>2013-04-12T19:25:50Z</time>
      </trkpt>
      <trkpt lat="59.9744442" lon="17.7292208">
        <ele>22.2476</ele>
        <time>2013-04-12T19:25:51Z</time>
      </trkpt>
      <trkpt lat="59.974446" lon="17.729269">
        <ele>21.767</ele>
        <time>2013-04-12T19:25:52Z</time>
      </trkpt>
      <trkpt lat="59.9744506" lon="17.7293182">
        <ele>21.767</ele>
        <time>2013-04-12T19:25:53Z</time>
      </trkpt>
      <trkpt lat="59.9744518" lon="17.7293696">
        <ele>22.2476</ele>
        <time>2013-04-12T19:25:54Z</time>
      </trkpt>
      <trkpt lat="59.9744504" lon="17.7294152">
        <ele>22.2476</ele>
        <time>2013-04-12T19:25:55Z</time>
      </trkpt>
      <trkpt lat="59.9744495" lon="17.7294619">
        <ele>22.2476</ele>
        <time>2013-04-12T19:25:56Z</time>
      </trkpt>
      <trkpt lat="59.9744492" lon="17.7295153">
        <ele>22.7283</ele>
        <time>2013-04-12T19:25:57Z</time>
      </trkpt>
      <trkpt lat="59.9744505" lon="17.7295682">
        <ele>23.6896</ele>
        <time>2013-04-12T19:25:58Z</time>
      </trkpt>
      <trkpt lat="59.9744522" lon="17.7296214">
        <ele>24.1703</ele>
        <time>2013-04-12T19:25:59Z</time>
      </trkpt>
      <trkpt lat="59.9744506" lon="17.7296739">
        <ele>25.1317</ele>
        <time>2013-04-12T19:26:00Z</time>
      </trkpt>
      <trkpt lat="59.9744491" lon="17.7297255">
        <ele>25.1317</ele>
        <time>2013-04-12T19:26:01Z</time>
      </trkpt>
      <trkpt lat="59.9744461" lon="17.7297741">
        <ele>25.1317</ele>
        <time>2013-04-12T19:26:02Z</time>
      </trkpt>
      <trkpt lat="59.9744413" lon="17.7298223">
        <ele>25.1317</ele>
        <time>2013-04-12T19:26:03Z</time>
      </trkpt>
      <trkpt lat="59.9744386" lon="17.7298696">
        <ele>25.1317</ele>
        <time>2013-04-12T19:26:04Z</time>
      </trkpt>
      <trkpt lat="59.9744346" lon="17.7299152">
        <ele>25.6123</ele>
        <time>2013-04-12T19:26:05Z</time>
      </trkpt>
      <trkpt lat="59.9744279" lon="17.7299631">
        <ele>25.6123</ele>
        <time>2013-04-12T19:26:06Z</time>
      </trkpt>
      <trkpt lat="59.9744209" lon="17.7300056">
        <ele>25.6123</ele>
        <time>2013-04-12T19:26:07Z</time>
      </trkpt>
      <trkpt lat="59.9744138" lon="17.7300515">
        <ele>25.6123</ele>
        <time>2013-04-12T19:26:08Z</time>
      </trkpt>
      <trkpt lat="59.9744034" lon="17.7300947">
        <ele>25.1317</ele>
        <time>2013-04-12T19:26:09Z</time>
      </trkpt>
      <trkpt lat="59.9743945" lon="17.7301344">
        <ele>24.651</ele>
        <time>2013-04-12T19:26:10Z</time>
      </trkpt>
      <trkpt lat="59.9743896" lon="17.7301841">
        <ele>24.651</ele>
        <time>2013-04-12T19:26:11Z</time>
      </trkpt>
      <trkpt lat="59.9743802" lon="17.7302322">
        <ele>24.651</ele>
        <time>2013-04-12T19:26:12Z</time>
      </trkpt>
      <trkpt lat="59.974373" lon="17.7302783">
        <ele>24.651</ele>
        <time>2013-04-12T19:26:13Z</time>
      </trkpt>
      <trkpt lat="59.9743706" lon="17.7303315">
        <ele>24.651</ele>
        <time>2013-04-12T19:26:14Z</time>
      </trkpt>
      <trkpt lat="59.9743686" lon="17.7303768">
        <ele>24.651</ele>
        <time>2013-04-12T19:26:15Z</time>
      </trkpt>
      <trkpt lat="59.9743647" lon="17.7304206">
        <ele>24.651</ele>
        <time>2013-04-12T19:26:16Z</time>
      </trkpt>
      <trkpt lat="59.9743614" lon="17.7304676">
        <ele>24.1703</ele>
        <time>2013-04-12T19:26:17Z</time>
      </trkpt>
      <trkpt lat="59.9743575" lon="17.7305163">
        <ele>24.1703</ele>
        <time>2013-04-12T19:26:18Z</time>
      </trkpt>
      <trkpt lat="59.9743552" lon="17.7305621">
        <ele>24.651</ele>
        <time>2013-04-12T19:26:19Z</time>
      </trkpt>
      <trkpt lat="59.9743517" lon="17.7306093">
        <ele>24.651</ele>
        <time>2013-04-12T19:26:20Z</time>
      </trkpt>
      <trkpt lat="59.9743455" lon="17.7306532">
        <ele>23.6896</ele>
        <time>2013-04-12T19:26:21Z</time>
      </trkpt>
      <trkpt lat="59.9743411" lon="17.7307005">
        <ele>23.209</ele>
        <time>2013-04-12T19:26:22Z</time>
      </trkpt>
      <trkpt lat="59.9743368" lon="17.7307495">
        <ele>22.7283</ele>
        <time>2013-04-12T19:26:23Z</time>
      </trkpt>
      <trkpt lat="59.9743302" lon="17.7307978">
        <ele>21.767</ele>
        <time>2013-04-12T19:26:24Z</time>
      </trkpt>
      <trkpt lat="59.9743253" lon="17.7308465">
        <ele>21.2864</ele>
        <time>2013-04-12T19:26:25Z</time>
      </trkpt>
      <trkpt lat="59.9743232" lon="17.730902">
        <ele>20.8057</ele>
        <time>2013-04-12T19:26:26Z</time>
      </trkpt>
      <trkpt lat="59.974321" lon="17.7309626">
        <ele>20.8057</ele>
        <time>2013-04-12T19:26:27Z</time>
      </trkpt>
      <trkpt lat="59.9743217" lon="17.731021">
        <ele>21.2864</ele>
        <time>2013-04-12T19:26:28Z</time>
      </trkpt>
      <trkpt lat="59.9743233" lon="17.7310827">
        <ele>21.2864</ele>
        <time>2013-04-12T19:26:29Z</time>
      </trkpt>
      <trkpt lat="59.9743221" lon="17.7311345">
        <ele>20.8057</ele>
        <time>2013-04-12T19:26:30Z</time>
      </trkpt>
      <trkpt lat="59.9743196" lon="17.7311849">
        <ele>20.8057</ele>
        <time>2013-04-12T19:26:31Z</time>
      </trkpt>
      <trkpt lat="59.974318" lon="17.7312361">
        <ele>20.325</ele>
        <time>2013-04-12T19:26:32Z</time>
      </trkpt>
      <trkpt lat="59.9743155" lon="17.7312835">
        <ele>19.8444</ele>
        <time>2013-04-12T19:26:33Z</time>
      </trkpt>
      <trkpt lat="59.9743122" lon="17.7313286">
        <ele>19.3638</ele>
        <time>2013-04-12T19:26:34Z</time>
      </trkpt>
      <trkpt lat="59.9743097" lon="17.7313757">
        <ele>19.3638</ele>
        <time>2013-04-12T19:26:35Z</time>
      </trkpt>
      <trkpt lat="59.9743132" lon="17.7314267">
        <ele>19.3638</ele>
        <time>2013-04-12T19:26:36Z</time>
      </trkpt>
      <trkpt lat="59.9743134" lon="17.7314819">
        <ele>18.8831</ele>
        <time>2013-04-12T19:26:37Z</time>
      </trkpt>
      <trkpt lat="59.9743096" lon="17.7315291">
        <ele>18.8831</ele>
        <time>2013-04-12T19:26:38Z</time>
      </trkpt>
      <trkpt lat="59.9743093" lon="17.7315733">
        <ele>18.4023</ele>
        <time>2013-04-12T19:26:39Z</time>
      </trkpt>
      <trkpt lat="59.9743081" lon="17.7316226">
        <ele>18.4023</ele>
        <time>2013-04-12T19:26:40Z</time>
      </trkpt>
      <trkpt lat="59.9743082" lon="17.7316677">
        <ele>17.9218</ele>
        <time>2013-04-12T19:26:41Z</time>
      </trkpt>
      <trkpt lat="59.9743078" lon="17.7317214">
        <ele>18.8831</ele>
        <time>2013-04-12T19:26:42Z</time>
      </trkpt>
      <trkpt lat="59.9743078" lon="17.7317722">
        <ele>18.4023</ele>
        <time>2013-04-12T19:26:43Z</time>
      </trkpt>
      <trkpt lat="59.9743077" lon="17.7318226">
        <ele>18.4023</ele>
        <time>2013-04-12T19:26:44Z</time>
      </trkpt>
      <trkpt lat="59.9743088" lon="17.7318732">
        <ele>18.8831</ele>
        <time>2013-04-12T19:26:45Z</time>
      </trkpt>
      <trkpt lat="59.9743091" lon="17.7319198">
        <ele>18.4023</ele>
        <time>2013-04-12T19:26:46Z</time>
      </trkpt>
      <trkpt lat="59.9743101" lon="17.7319649">
        <ele>18.8831</ele>
        <time>2013-04-12T19:26:47Z</time>
      </trkpt>
      <trkpt lat="59.9743116" lon="17.7320142">
        <ele>19.3638</ele>
        <time>2013-04-12T19:26:48Z</time>
      </trkpt>
      <trkpt lat="59.9743134" lon="17.7320626">
        <ele>18.8831</ele>
        <time>2013-04-12T19:26:49Z</time>
      </trkpt>
      <trkpt lat="59.9743155" lon="17.7321079">
        <ele>19.3638</ele>
        <time>2013-04-12T19:26:50Z</time>
      </trkpt>
      <trkpt lat="59.9743175" lon="17.7321559">
        <ele>19.3638</ele>
        <time>2013-04-12T19:26:51Z</time>
      </trkpt>
      <trkpt lat="59.9743188" lon="17.7322015">
        <ele>18.8831</ele>
        <time>2013-04-12T19:26:52Z</time>
      </trkpt>
      <trkpt lat="59.9743204" lon="17.7322492">
        <ele>19.3638</ele>
        <time>2013-04-12T19:26:53Z</time>
      </trkpt>
      <trkpt lat="59.9743237" lon="17.7323012">
        <ele>20.325</ele>
        <time>2013-04-12T19:26:54Z</time>
      </trkpt>
      <trkpt lat="59.9743257" lon="17.7323472">
        <ele>19.8444</ele>
        <time>2013-04-12T19:26:55Z</time>
      </trkpt>
      <trkpt lat="59.9743285" lon="17.7323923">
        <ele>19.3638</ele>
        <time>2013-04-12T19:26:56Z</time>
      </trkpt>
      <trkpt lat="59.9743314" lon="17.7324419">
        <ele>19.3638</ele>
        <time>2013-04-12T19:26:57Z</time>
      </trkpt>
      <trkpt lat="59.9743304" lon="17.7324906">
        <ele>19.8444</ele>
        <time>2013-04-12T19:26:58Z</time>
      </trkpt>
      <trkpt lat="59.9743306" lon="17.7325363">
        <ele>19.8444</ele>
        <time>2013-04-12T19:26:59Z</time>
      </trkpt>
      <trkpt lat="59.974334" lon="17.7325866">
        <ele>19.8444</ele>
        <time>2013-04-12T19:27:00Z</time>
      </trkpt>
      <trkpt lat="59.9743412" lon="17.732635">
        <ele>20.325</ele>
        <time>2013-04-12T19:27:01Z</time>
      </trkpt>
      <trkpt lat="59.974345" lon="17.7326896">
        <ele>20.8057</ele>
        <time>2013-04-12T19:27:02Z</time>
      </trkpt>
      <trkpt lat="59.9743449" lon="17.7327429">
        <ele>20.8057</ele>
        <time>2013-04-12T19:27:03Z</time>
      </trkpt>
      <trkpt lat="59.9743447" lon="17.7327912">
        <ele>20.8057</ele>
        <time>2013-04-12T19:27:04Z</time>
      </trkpt>
      <trkpt lat="59.9743474" lon="17.7328396">
        <ele>21.2864</ele>
        <time>2013-04-12T19:27:05Z</time>
      </trkpt>
      <trkpt lat="59.9743513" lon="17.7328925">
        <ele>21.767</ele>
        <time>2013-04-12T19:27:06Z</time>
      </trkpt>
      <trkpt lat="59.9743536" lon="17.7329412">
        <ele>22.7283</ele>
        <time>2013-04-12T19:27:07Z</time>
      </trkpt>
      <trkpt lat="59.9743549" lon="17.7329859">
        <ele>22.7283</ele>
        <time>2013-04-12T19:27:08Z</time>
      </trkpt>
      <trkpt lat="59.9743544" lon="17.7330422">
        <ele>23.209</ele>
        <time>2013-04-12T19:27:09Z</time>
      </trkpt>
      <trkpt lat="59.9743537" lon="17.7330929">
        <ele>23.6896</ele>
        <time>2013-04-12T19:27:10Z</time>
      </trkpt>
      <trkpt lat="59.9743535" lon="17.7331423">
        <ele>24.1703</ele>
        <time>2013-04-12T19:27:11Z</time>
      </trkpt>
      <trkpt lat="59.9743511" lon="17.7331936">
        <ele>25.1317</ele>
        <time>2013-04-12T19:27:12Z</time>
      </trkpt>
      <trkpt lat="59.9743487" lon="17.7332439">
        <ele>26.0929</ele>
        <time>2013-04-12T19:27:13Z</time>
      </trkpt>
      <trkpt lat="59.9743473" lon="17.7332879">
        <ele>26.0929</ele>
        <time>2013-04-12T19:27:14Z</time>
      </trkpt>
      <trkpt lat="59.9743455" lon="17.7333372">
        <ele>26.5736</ele>
        <time>2013-04-12T19:27:15Z</time>
      </trkpt>
      <trkpt lat="59.974343" lon="17.7333868">
        <ele>26.5736</ele>
        <time>2013-04-12T19:27:16Z</time>
      </trkpt>
      <trkpt lat="59.9743419" lon="17.733439">
        <ele>26.5736</ele>
        <time>2013-04-12T19:27:17Z</time>
      </trkpt>
      <trkpt lat="59.9743408" lon="17.7334956">
        <ele>27.0543</ele>
        <time>2013-04-12T19:27:18Z</time>
      </trkpt>
      <trkpt lat="59.9743401" lon="17.7335483">
        <ele>28.0155</ele>
        <time>2013-04-12T19:27:19Z</time>
      </trkpt>
      <trkpt lat="59.9743387" lon="17.7335997">
        <ele>28.0155</ele>
        <time>2013-04-12T19:27:20Z</time>
      </trkpt>
      <trkpt lat="59.9743367" lon="17.7336493">
        <ele>28.9769</ele>
        <time>2013-04-12T19:27:21Z</time>
      </trkpt>
      <trkpt lat="59.9743359" lon="17.7336966">
        <ele>29.4575</ele>
        <time>2013-04-12T19:27:22Z</time>
      </trkpt>
      <trkpt lat="59.974335" lon="17.7337448">
        <ele>29.4575</ele>
        <time>2013-04-12T19:27:23Z</time>
      </trkpt>
      <trkpt lat="59.9743323" lon="17.7337904">
        <ele>29.9381</ele>
        <time>2013-04-12T19:27:24Z</time>
      </trkpt>
      <trkpt lat="59.9743299" lon="17.7338359">
        <ele>29.4575</ele>
        <time>2013-04-12T19:27:25Z</time>
      </trkpt>
      <trkpt lat="59.9743283" lon="17.7338839">
        <ele>28.9769</ele>
        <time>2013-04-12T19:27:26Z</time>
      </trkpt>
      <trkpt lat="59.9743261" lon="17.7339314">
        <ele>29.4575</ele>
        <time>2013-04-12T19:27:27Z</time>
      </trkpt>
      <trkpt lat="59.974324" lon="17.7339783">
        <ele>29.4575</ele>
        <time>2013-04-12T19:27:28Z</time>
      </trkpt>
      <trkpt lat="59.9743197" lon="17.7340251">
        <ele>29.4575</ele>
        <time>2013-04-12T19:27:29Z</time>
      </trkpt>
      <trkpt lat="59.9743155" lon="17.7340691">
        <ele>28.9769</ele>
        <time>2013-04-12T19:27:30Z</time>
      </trkpt>
      <trkpt lat="59.9743144" lon="17.7341136">
        <ele>28.4962</ele>
        <time>2013-04-12T19:27:31Z</time>
      </trkpt>
      <trkpt lat="59.9743111" lon="17.7341613">
        <ele>28.4962</ele>
        <time>2013-04-12T19:27:32Z</time>
      </trkpt>
      <trkpt lat="59.9743095" lon="17.7342074">
        <ele>28.0155</ele>
        <time>2013-04-12T19:27:33Z</time>
      </trkpt>
      <trkpt lat="59.9743091" lon="17.7342592">
        <ele>28.4962</ele>
        <time>2013-04-12T19:27:34Z</time>
      </trkpt>
      <trkpt lat="59.9743087" lon="17.7343075">
        <ele>28.0155</ele>
        <time>2013-04-12T19:27:35Z</time>
      </trkpt>
      <trkpt lat="59.974308" lon="17.7343566">
        <ele>27.5349</ele>
        <time>2013-04-12T19:27:36Z</time>
      </trkpt>
      <trkpt lat="59.9743045" lon="17.7344037">
        <ele>28.0155</ele>
        <time>2013-04-12T19:27:37Z</time>
      </trkpt>
      <trkpt lat="59.974303" lon="17.7344451">
        <ele>27.5349</ele>
        <time>2013-04-12T19:27:38Z</time>
      </trkpt>
      <trkpt lat="59.9743035" lon="17.734489">
        <ele>27.0543</ele>
        <time>2013-04-12T19:27:39Z</time>
      </trkpt>
      <trkpt lat="59.9743009" lon="17.7345383">
        <ele>27.0543</ele>
        <time>2013-04-12T19:27:40Z</time>
      </trkpt>
      <trkpt lat="59.9742989" lon="17.7345814">
        <ele>27.0543</ele>
        <time>2013-04-12T19:27:41Z</time>
      </trkpt>
      <trkpt lat="59.9743017" lon="17.7346291">
        <ele>27.0543</ele>
        <time>2013-04-12T19:27:42Z</time>
      </trkpt>
      <trkpt lat="59.9743035" lon="17.7346785">
        <ele>27.0543</ele>
        <time>2013-04-12T19:27:43Z</time>
      </trkpt>
      <trkpt lat="59.974302" lon="17.7347242">
        <ele>27.5349</ele>
        <time>2013-04-12T19:27:44Z</time>
      </trkpt>
      <trkpt lat="59.974302" lon="17.7347692">
        <ele>27.0543</ele>
        <time>2013-04-12T19:27:45Z</time>
      </trkpt>
      <trkpt lat="59.9743038" lon="17.7348191">
        <ele>27.0543</ele>
        <time>2013-04-12T19:27:46Z</time>
      </trkpt>
      <trkpt lat="59.974305" lon="17.7348661">
        <ele>27.5349</ele>
        <time>2013-04-12T19:27:47Z</time>
      </trkpt>
      <trkpt lat="59.9743067" lon="17.7349171">
        <ele>28.0155</ele>
        <time>2013-04-12T19:27:48Z</time>
      </trkpt>
      <trkpt lat="59.9743082" lon="17.7349635">
        <ele>28.0155</ele>
        <time>2013-04-12T19:27:49Z</time>
      </trkpt>
      <trkpt lat="59.9743123" lon="17.7350041">
        <ele>27.5349</ele>
        <time>2013-04-12T19:27:50Z</time>
      </trkpt>
      <trkpt lat="59.9743158" lon="17.7350464">
        <ele>27.5349</ele>
        <time>2013-04-12T19:27:51Z</time>
      </trkpt>
      <trkpt lat="59.9743178" lon="17.73509">
        <ele>27.0543</ele>
        <time>2013-04-12T19:27:52Z</time>
      </trkpt>
      <trkpt lat="59.9743227" lon="17.735131">
        <ele>27.0543</ele>
        <time>2013-04-12T19:27:53Z</time>
      </trkpt>
      <trkpt lat="59.9743268" lon="17.7351766">
        <ele>26.5736</ele>
        <time>2013-04-12T19:27:54Z</time>
      </trkpt>
      <trkpt lat="59.97433" lon="17.7352257">
        <ele>26.5736</ele>
        <time>2013-04-12T19:27:55Z</time>
      </trkpt>
      <trkpt lat="59.9743349" lon="17.735272">
        <ele>26.5736</ele>
        <time>2013-04-12T19:27:56Z</time>
      </trkpt>
      <trkpt lat="59.9743394" lon="17.7353191">
        <ele>27.0543</ele>
        <time>2013-04-12T19:27:57Z</time>
      </trkpt>
      <trkpt lat="59.9743417" lon="17.7353646">
        <ele>27.0543</ele>
        <time>2013-04-12T19:27:58Z</time>
      </trkpt>
      <trkpt lat="59.9743455" lon="17.7354079">
        <ele>27.0543</ele>
        <time>2013-04-12T19:27:59Z</time>
      </trkpt>
      <trkpt lat="59.9743508" lon="17.7354553">
        <ele>27.5349</ele>
        <time>2013-04-12T19:28:00Z</time>
      </trkpt>
      <trkpt lat="59.9743558" lon="17.7354999">
        <ele>27.0543</ele>
        <time>2013-04-12T19:28:01Z</time>
      </trkpt>
      <trkpt lat="59.9743619" lon="17.7355432">
        <ele>27.0543</ele>
        <time>2013-04-12T19:28:02Z</time>
      </trkpt>
      <trkpt lat="59.9743683" lon="17.735588">
        <ele>27.0543</ele>
        <time>2013-04-12T19:28:03Z</time>
      </trkpt>
      <trkpt lat="59.9743748" lon="17.7356293">
        <ele>26.5736</ele>
        <time>2013-04-12T19:28:04Z</time>
      </trkpt>
      <trkpt lat="59.9743823" lon="17.7356736">
        <ele>26.5736</ele>
        <time>2013-04-12T19:28:05Z</time>
      </trkpt>
      <trkpt lat="59.974388" lon="17.7357204">
        <ele>26.5736</ele>
        <time>2013-04-12T19:28:06Z</time>
      </trkpt>
      <trkpt lat="59.9743951" lon="17.7357593">
        <ele>26.5736</ele>
        <time>2013-04-12T19:28:07Z</time>
      </trkpt>
      <trkpt lat="59.974404" lon="17.7358">
        <ele>26.5736</ele>
        <time>2013-04-12T19:28:08Z</time>
      </trkpt>
      <trkpt lat="59.9744126" lon="17.7358427">
        <ele>26.5736</ele>
        <time>2013-04-12T19:28:09Z</time>
      </trkpt>
      <trkpt lat="59.9744216" lon="17.735883">
        <ele>27.0543</ele>
        <time>2013-04-12T19:28:10Z</time>
      </trkpt>
      <trkpt lat="59.9744303" lon="17.7359277">
        <ele>27.0543</ele>
        <time>2013-04-12T19:28:11Z</time>
      </trkpt>
      <trkpt lat="59.9744372" lon="17.7359758">
        <ele>27.0543</ele>
        <time>2013-04-12T19:28:12Z</time>
      </trkpt>
      <trkpt lat="59.9744465" lon="17.7360178">
        <ele>27.0543</ele>
        <time>2013-04-12T19:28:13Z</time>
      </trkpt>
      <trkpt lat="59.9744577" lon="17.7360598">
        <ele>27.5349</ele>
        <time>2013-04-12T19:28:14Z</time>
      </trkpt>
      <trkpt lat="59.974467" lon="17.7361039">
        <ele>27.5349</ele>
        <time>2013-04-12T19:28:15Z</time>
      </trkpt>
      <trkpt lat="59.9744765" lon="17.7361456">
        <ele>27.5349</ele>
        <time>2013-04-12T19:28:16Z</time>
      </trkpt>
      <trkpt lat="59.9744859" lon="17.7361865">
        <ele>27.5349</ele>
        <time>2013-04-12T19:28:17Z</time>
      </trkpt>
      <trkpt lat="59.9744931" lon="17.7362308">
        <ele>27.0543</ele>
        <time>2013-04-12T19:28:18Z</time>
      </trkpt>
      <trkpt lat="59.974501" lon="17.736271">
        <ele>26.5736</ele>
        <time>2013-04-12T19:28:19Z</time>
      </trkpt>
      <trkpt lat="59.9745117" lon="17.7363119">
        <ele>27.0543</ele>
        <time>2013-04-12T19:28:20Z</time>
      </trkpt>
      <trkpt lat="59.9745221" lon="17.7363523">
        <ele>27.0543</ele>
        <time>2013-04-12T19:28:21Z</time>
      </trkpt>
      <trkpt lat="59.9745314" lon="17.7363891">
        <ele>26.5736</ele>
        <time>2013-04-12T19:28:22Z</time>
      </trkpt>
      <trkpt lat="59.974544" lon="17.7364291">
        <ele>27.0543</ele>
        <time>2013-04-12T19:28:23Z</time>
      </trkpt>
      <trkpt lat="59.9745579" lon="17.736471">
        <ele>27.0543</ele>
        <time>2013-04-12T19:28:24Z</time>
      </trkpt>
      <trkpt lat="59.9745686" lon="17.7365099">
        <ele>27.0543</ele>
        <time>2013-04-12T19:28:25Z</time>
      </trkpt>
      <trkpt lat="59.9745807" lon="17.7365481">
        <ele>27.5349</ele>
        <time>2013-04-12T19:28:26Z</time>
      </trkpt>
      <trkpt lat="59.9745955" lon="17.7365912">
        <ele>28.0155</ele>
        <time>2013-04-12T19:28:27Z</time>
      </trkpt>
      <trkpt lat="59.9746076" lon="17.7366321">
        <ele>28.0155</ele>
        <time>2013-04-12T19:28:28Z</time>
      </trkpt>
      <trkpt lat="59.9746225" lon="17.7366709">
        <ele>28.4962</ele>
        <time>2013-04-12T19:28:29Z</time>
      </trkpt>
      <trkpt lat="59.9746369" lon="17.736713">
        <ele>28.4962</ele>
        <time>2013-04-12T19:28:30Z</time>
      </trkpt>
      <trkpt lat="59.974648" lon="17.7367547">
        <ele>28.0155</ele>
        <time>2013-04-12T19:28:31Z</time>
      </trkpt>
      <trkpt lat="59.9746607" lon="17.736796">
        <ele>28.4962</ele>
        <time>2013-04-12T19:28:32Z</time>
      </trkpt>
      <trkpt lat="59.9746744" lon="17.7368371">
        <ele>28.4962</ele>
        <time>2013-04-12T19:28:33Z</time>
      </trkpt>
      <trkpt lat="59.9746857" lon="17.7368745">
        <ele>28.0155</ele>
        <time>2013-04-12T19:28:34Z</time>
      </trkpt>
      <trkpt lat="59.9747006" lon="17.7369102">
        <ele>28.4962</ele>
        <time>2013-04-12T19:28:35Z</time>
      </trkpt>
      <trkpt lat="59.9747169" lon="17.73695">
        <ele>28.4962</ele>
        <time>2013-04-12T19:28:36Z</time>
      </trkpt>
      <trkpt lat="59.9747315" lon="17.7369847">
        <ele>28.4962</ele>
        <time>2013-04-12T19:28:37Z</time>
      </trkpt>
      <trkpt lat="59.974748" lon="17.7370155">
        <ele>28.4962</ele>
        <time>2013-04-12T19:28:38Z</time>
      </trkpt>
      <trkpt lat="59.9747648" lon="17.7370517">
        <ele>28.9769</ele>
        <time>2013-04-12T19:28:39Z</time>
      </trkpt>
      <trkpt lat="59.9747791" lon="17.7370911">
        <ele>28.9769</ele>
        <time>2013-04-12T19:28:40Z</time>
      </trkpt>
      <trkpt lat="59.9747946" lon="17.7371248">
        <ele>28.0155</ele>
        <time>2013-04-12T19:28:41Z</time>
      </trkpt>
      <trkpt lat="59.9748095" lon="17.7371645">
        <ele>28.0155</ele>
        <time>2013-04-12T19:28:42Z</time>
      </trkpt>
      <trkpt lat="59.9748231" lon="17.7371998">
        <ele>28.0155</ele>
        <time>2013-04-12T19:28:43Z</time>
      </trkpt>
      <trkpt lat="59.9748386" lon="17.7372316">
        <ele>28.0155</ele>
        <time>2013-04-12T19:28:44Z</time>
      </trkpt>
      <trkpt lat="59.9748556" lon="17.7372662">
        <ele>28.0155</ele>
        <time>2013-04-12T19:28:45Z</time>
      </trkpt>
      <trkpt lat="59.9748716" lon="17.7372998">
        <ele>28.0155</ele>
        <time>2013-04-12T19:28:46Z</time>
      </trkpt>
      <trkpt lat="59.9748894" lon="17.7373345">
        <ele>28.0155</ele>
        <time>2013-04-12T19:28:47Z</time>
      </trkpt>
      <trkpt lat="59.9749066" lon="17.7373682">
        <ele>28.0155</ele>
        <time>2013-04-12T19:28:48Z</time>
      </trkpt>
      <trkpt lat="59.9749213" lon="17.7374004">
        <ele>28.0155</ele>
        <time>2013-04-12T19:28:49Z</time>
      </trkpt>
      <trkpt lat="59.9749376" lon="17.737431">
        <ele>28.4962</ele>
        <time>2013-04-12T19:28:50Z</time>
      </trkpt>
      <trkpt lat="59.9749562" lon="17.7374672">
        <ele>28.9769</ele>
        <time>2013-04-12T19:28:51Z</time>
      </trkpt>
      <trkpt lat="59.9749738" lon="17.7375029">
        <ele>28.9769</ele>
        <time>2013-04-12T19:28:52Z</time>
      </trkpt>
      <trkpt lat="59.9749893" lon="17.7375345">
        <ele>28.9769</ele>
        <time>2013-04-12T19:28:53Z</time>
      </trkpt>
      <trkpt lat="59.9750058" lon="17.7375631">
        <ele>28.0155</ele>
        <time>2013-04-12T19:28:54Z</time>
      </trkpt>
      <trkpt lat="59.975023" lon="17.7375998">
        <ele>28.9769</ele>
        <time>2013-04-12T19:28:55Z</time>
      </trkpt>
      <trkpt lat="59.9750369" lon="17.7376355">
        <ele>28.9769</ele>
        <time>2013-04-12T19:28:56Z</time>
      </trkpt>
      <trkpt lat="59.9750519" lon="17.7376675">
        <ele>28.9769</ele>
        <time>2013-04-12T19:28:57Z</time>
      </trkpt>
      <trkpt lat="59.9750712" lon="17.7376998">
        <ele>28.9769</ele>
        <time>2013-04-12T19:28:58Z</time>
      </trkpt>
      <trkpt lat="59.9750904" lon="17.7377305">
        <ele>29.9381</ele>
        <time>2013-04-12T19:28:59Z</time>
      </trkpt>
      <trkpt lat="59.9751083" lon="17.7377573">
        <ele>29.9381</ele>
        <time>2013-04-12T19:29:00Z</time>
      </trkpt>
      <trkpt lat="59.9751251" lon="17.7377862">
        <ele>29.9381</ele>
        <time>2013-04-12T19:29:01Z</time>
      </trkpt>
      <trkpt lat="59.9751426" lon="17.7378223">
        <ele>29.4575</ele>
        <time>2013-04-12T19:29:02Z</time>
      </trkpt>
      <trkpt lat="59.9751592" lon="17.7378547">
        <ele>28.9769</ele>
        <time>2013-04-12T19:29:03Z</time>
      </trkpt>
      <trkpt lat="59.9751765" lon="17.7378832">
        <ele>28.4962</ele>
        <time>2013-04-12T19:29:04Z</time>
      </trkpt>
      <trkpt lat="59.975195" lon="17.7379136">
        <ele>28.4962</ele>
        <time>2013-04-12T19:29:05Z</time>
      </trkpt>
      <trkpt lat="59.9752138" lon="17.7379452">
        <ele>28.9769</ele>
        <time>2013-04-12T19:29:06Z</time>
      </trkpt>
      <trkpt lat="59.9752319" lon="17.7379723">
        <ele>28.9769</ele>
        <time>2013-04-12T19:29:07Z</time>
      </trkpt>
      <trkpt lat="59.9752518" lon="17.7380018">
        <ele>29.4575</ele>
        <time>2013-04-12T19:29:08Z</time>
      </trkpt>
      <trkpt lat="59.975272" lon="17.7380364">
        <ele>29.4575</ele>
        <time>2013-04-12T19:29:09Z</time>
      </trkpt>
      <trkpt lat="59.9752901" lon="17.7380664">
        <ele>28.9769</ele>
        <time>2013-04-12T19:29:10Z</time>
      </trkpt>
      <trkpt lat="59.9753078" lon="17.7380929">
        <ele>28.9769</ele>
        <time>2013-04-12T19:29:11Z</time>
      </trkpt>
      <trkpt lat="59.9753262" lon="17.7381223">
        <ele>28.4962</ele>
        <time>2013-04-12T19:29:12Z</time>
      </trkpt>
      <trkpt lat="59.9753437" lon="17.7381526">
        <ele>28.4962</ele>
        <time>2013-04-12T19:29:13Z</time>
      </trkpt>
      <trkpt lat="59.9753606" lon="17.7381808">
        <ele>28.0155</ele>
        <time>2013-04-12T19:29:14Z</time>
      </trkpt>
      <trkpt lat="59.9753779" lon="17.7382116">
        <ele>28.0155</ele>
        <time>2013-04-12T19:29:15Z</time>
      </trkpt>
      <trkpt lat="59.9753958" lon="17.7382461">
        <ele>28.4962</ele>
        <time>2013-04-12T19:29:16Z</time>
      </trkpt>
      <trkpt lat="59.9754146" lon="17.7382775">
        <ele>28.9769</ele>
        <time>2013-04-12T19:29:17Z</time>
      </trkpt>
      <trkpt lat="59.9754317" lon="17.7383051">
        <ele>28.4962</ele>
        <time>2013-04-12T19:29:18Z</time>
      </trkpt>
      <trkpt lat="59.9754489" lon="17.7383362">
        <ele>28.9769</ele>
        <time>2013-04-12T19:29:19Z</time>
      </trkpt>
      <trkpt lat="59.9754645" lon="17.7383671">
        <ele>28.0155</ele>
        <time>2013-04-12T19:29:20Z</time>
      </trkpt>
      <trkpt lat="59.9754809" lon="17.7383959">
        <ele>28.4962</ele>
        <time>2013-04-12T19:29:21Z</time>
      </trkpt>
      <trkpt lat="59.9754982" lon="17.7384255">
        <ele>28.4962</ele>
        <time>2013-04-12T19:29:22Z</time>
      </trkpt>
      <trkpt lat="59.9755176" lon="17.738455">
        <ele>28.0155</ele>
        <time>2013-04-12T19:29:23Z</time>
      </trkpt>
      <trkpt lat="59.9755343" lon="17.7384829">
        <ele>27.5349</ele>
        <time>2013-04-12T19:29:24Z</time>
      </trkpt>
      <trkpt lat="59.9755508" lon="17.7385123">
        <ele>27.5349</ele>
        <time>2013-04-12T19:29:25Z</time>
      </trkpt>
      <trkpt lat="59.9755685" lon="17.7385488">
        <ele>27.5349</ele>
        <time>2013-04-12T19:29:26Z</time>
      </trkpt>
      <trkpt lat="59.9755867" lon="17.7385825">
        <ele>27.5349</ele>
        <time>2013-04-12T19:29:27Z</time>
      </trkpt>
      <trkpt lat="59.9756053" lon="17.7386105">
        <ele>27.5349</ele>
        <time>2013-04-12T19:29:28Z</time>
      </trkpt>
      <trkpt lat="59.9756218" lon="17.7386368">
        <ele>27.0543</ele>
        <time>2013-04-12T19:29:29Z</time>
      </trkpt>
      <trkpt lat="59.9756389" lon="17.7386674">
        <ele>26.5736</ele>
        <time>2013-04-12T19:29:30Z</time>
      </trkpt>
      <trkpt lat="59.9756579" lon="17.7386984">
        <ele>26.5736</ele>
        <time>2013-04-12T19:29:31Z</time>
      </trkpt>
      <trkpt lat="59.9756741" lon="17.738727">
        <ele>26.5736</ele>
        <time>2013-04-12T19:29:32Z</time>
      </trkpt>
    </trkseg>
  </trk>
</gpx>